<?xml version='1.0' encoding='UTF-8'?>
<gpx version="1.1" creator="https://www.komoot.de" xmlns="http://www.topografix.com/GPX/1/1" xmlns:xsi="http://www.w3.org/2001/XMLSchema-instance" xsi:schemaLocation="http://www.topografix.com/GPX/1/1 http://www.topografix.com/GPX/1/1/gpx.xsd">
  <metadata>
    <name>260507 Groningen Ride: Beijum</name>
    <author>
      <link href="https://www.komoot.de">
        <text>komoot</text>
        <type>text/html</type>
      </link>
    </author>
  </metadata>
  <trk>
    <name>260507 Groningen Ride: Beijum</name>
    <trkseg>
      <trkpt lat="53.240542" lon="6.536950">
        <ele>53.633223</ele>
        <time>2026-05-07T15:43:00.636Z</time>
      </trkpt>
      <trkpt lat="53.240471" lon="6.537188">
        <ele>53.633223</ele>
        <time>2026-05-07T15:43:12.999Z</time>
      </trkpt>
      <trkpt lat="53.240427" lon="6.537342">
        <ele>53.633223</ele>
        <time>2026-05-07T15:43:28.995Z</time>
      </trkpt>
      <trkpt lat="53.240525" lon="6.537408">
        <ele>53.633223</ele>
        <time>2026-05-07T15:43:35.994Z</time>
      </trkpt>
      <trkpt lat="53.240621" lon="6.537481">
        <ele>53.633223</ele>
        <time>2026-05-07T15:43:39.988Z</time>
      </trkpt>
      <trkpt lat="53.240704" lon="6.537554">
        <ele>53.633223</ele>
        <time>2026-05-07T15:43:42.993Z</time>
      </trkpt>
      <trkpt lat="53.240787" lon="6.537643">
        <ele>53.633223</ele>
        <time>2026-05-07T15:43:45.996Z</time>
      </trkpt>
      <trkpt lat="53.240860" lon="6.537754">
        <ele>53.633223</ele>
        <time>2026-05-07T15:43:49.001Z</time>
      </trkpt>
      <trkpt lat="53.240971" lon="6.537672">
        <ele>53.633223</ele>
        <time>2026-05-07T15:43:51.994Z</time>
      </trkpt>
      <trkpt lat="53.241083" lon="6.537579">
        <ele>52.897071</ele>
        <time>2026-05-07T15:43:54.991Z</time>
      </trkpt>
      <trkpt lat="53.241186" lon="6.537553">
        <ele>52.203930</ele>
        <time>2026-05-07T15:43:57.998Z</time>
      </trkpt>
      <trkpt lat="53.241232" lon="6.537721">
        <ele>51.468241</ele>
        <time>2026-05-07T15:44:01.995Z</time>
      </trkpt>
      <trkpt lat="53.241262" lon="6.537868">
        <ele>50.849773</ele>
        <time>2026-05-07T15:44:04.997Z</time>
      </trkpt>
      <trkpt lat="53.241287" lon="6.538059">
        <ele>50.071216</ele>
        <time>2026-05-07T15:44:08.000Z</time>
      </trkpt>
      <trkpt lat="53.241332" lon="6.538243">
        <ele>49.279690</ele>
        <time>2026-05-07T15:44:10.999Z</time>
      </trkpt>
      <trkpt lat="53.241364" lon="6.538402">
        <ele>48.611695</ele>
        <time>2026-05-07T15:44:12.997Z</time>
      </trkpt>
      <trkpt lat="53.241402" lon="6.538565">
        <ele>47.915105</ele>
        <time>2026-05-07T15:44:14.997Z</time>
      </trkpt>
      <trkpt lat="53.241443" lon="6.538726">
        <ele>47.218359</ele>
        <time>2026-05-07T15:44:16.996Z</time>
      </trkpt>
      <trkpt lat="53.241494" lon="6.538894">
        <ele>46.468222</ele>
        <time>2026-05-07T15:44:18.997Z</time>
      </trkpt>
      <trkpt lat="53.241546" lon="6.539046">
        <ele>45.771029</ele>
        <time>2026-05-07T15:44:20.996Z</time>
      </trkpt>
      <trkpt lat="53.241606" lon="6.539202">
        <ele>45.032595</ele>
        <time>2026-05-07T15:44:22.998Z</time>
      </trkpt>
      <trkpt lat="53.241662" lon="6.539378">
        <ele>44.238852</ele>
        <time>2026-05-07T15:44:24.997Z</time>
      </trkpt>
      <trkpt lat="53.241708" lon="6.539542">
        <ele>43.517624</ele>
        <time>2026-05-07T15:44:26.997Z</time>
      </trkpt>
      <trkpt lat="53.241761" lon="6.539701">
        <ele>42.792887</ele>
        <time>2026-05-07T15:44:29.004Z</time>
      </trkpt>
      <trkpt lat="53.241814" lon="6.539880">
        <ele>41.997630</ele>
        <time>2026-05-07T15:44:31.004Z</time>
      </trkpt>
      <trkpt lat="53.241881" lon="6.540055">
        <ele>41.603634</ele>
        <time>2026-05-07T15:44:33.000Z</time>
      </trkpt>
      <trkpt lat="53.241956" lon="6.540230">
        <ele>41.497310</ele>
        <time>2026-05-07T15:44:34.994Z</time>
      </trkpt>
      <trkpt lat="53.242051" lon="6.540363">
        <ele>41.395012</ele>
        <time>2026-05-07T15:44:37.002Z</time>
      </trkpt>
      <trkpt lat="53.242146" lon="6.540494">
        <ele>41.293345</ele>
        <time>2026-05-07T15:44:39.000Z</time>
      </trkpt>
      <trkpt lat="53.242238" lon="6.540627">
        <ele>41.192933</ele>
        <time>2026-05-07T15:44:41.002Z</time>
      </trkpt>
      <trkpt lat="53.242327" lon="6.540757">
        <ele>41.095361</ele>
        <time>2026-05-07T15:44:42.995Z</time>
      </trkpt>
      <trkpt lat="53.242394" lon="6.540880">
        <ele>41.013204</ele>
        <time>2026-05-07T15:44:44.999Z</time>
      </trkpt>
      <trkpt lat="53.242450" lon="6.541033">
        <ele>40.924614</ele>
        <time>2026-05-07T15:44:47.994Z</time>
      </trkpt>
      <trkpt lat="53.242360" lon="6.541158">
        <ele>40.828017</ele>
        <time>2026-05-07T15:44:50.999Z</time>
      </trkpt>
      <trkpt lat="53.242268" lon="6.541228">
        <ele>40.744577</ele>
        <time>2026-05-07T15:44:53.000Z</time>
      </trkpt>
      <trkpt lat="53.242170" lon="6.541293">
        <ele>40.657547</ele>
        <time>2026-05-07T15:44:54.999Z</time>
      </trkpt>
      <trkpt lat="53.242055" lon="6.541376">
        <ele>40.554148</ele>
        <time>2026-05-07T15:44:56.989Z</time>
      </trkpt>
      <trkpt lat="53.241940" lon="6.541427">
        <ele>40.455939</ele>
        <time>2026-05-07T15:44:59.009Z</time>
      </trkpt>
      <trkpt lat="53.241831" lon="6.541487">
        <ele>40.361213</ele>
        <time>2026-05-07T15:45:00.998Z</time>
      </trkpt>
      <trkpt lat="53.241719" lon="6.541553">
        <ele>40.263186</ele>
        <time>2026-05-07T15:45:02.998Z</time>
      </trkpt>
      <trkpt lat="53.241600" lon="6.541603">
        <ele>40.193833</ele>
        <time>2026-05-07T15:45:04.997Z</time>
      </trkpt>
      <trkpt lat="53.241482" lon="6.541664">
        <ele>40.268271</ele>
        <time>2026-05-07T15:45:06.992Z</time>
      </trkpt>
      <trkpt lat="53.241367" lon="6.541712">
        <ele>40.339704</ele>
        <time>2026-05-07T15:45:08.993Z</time>
      </trkpt>
      <trkpt lat="53.241248" lon="6.541769">
        <ele>40.414308</ele>
        <time>2026-05-07T15:45:10.998Z</time>
      </trkpt>
      <trkpt lat="53.241125" lon="6.541824">
        <ele>40.491041</ele>
        <time>2026-05-07T15:45:12.998Z</time>
      </trkpt>
      <trkpt lat="53.241004" lon="6.541883">
        <ele>40.567003</ele>
        <time>2026-05-07T15:45:14.993Z</time>
      </trkpt>
      <trkpt lat="53.240881" lon="6.541945">
        <ele>40.644428</ele>
        <time>2026-05-07T15:45:16.996Z</time>
      </trkpt>
      <trkpt lat="53.240761" lon="6.541994">
        <ele>40.718874</ele>
        <time>2026-05-07T15:45:18.996Z</time>
      </trkpt>
      <trkpt lat="53.240632" lon="6.542049">
        <ele>40.799106</ele>
        <time>2026-05-07T15:45:20.999Z</time>
      </trkpt>
      <trkpt lat="53.240500" lon="6.542109">
        <ele>40.881546</ele>
        <time>2026-05-07T15:45:22.990Z</time>
      </trkpt>
      <trkpt lat="53.240370" lon="6.542170">
        <ele>40.962921</ele>
        <time>2026-05-07T15:45:24.995Z</time>
      </trkpt>
      <trkpt lat="53.240242" lon="6.542223">
        <ele>41.042393</ele>
        <time>2026-05-07T15:45:26.992Z</time>
      </trkpt>
      <trkpt lat="53.240112" lon="6.542274">
        <ele>41.122867</ele>
        <time>2026-05-07T15:45:28.995Z</time>
      </trkpt>
      <trkpt lat="53.239982" lon="6.542337">
        <ele>41.204440</ele>
        <time>2026-05-07T15:45:30.994Z</time>
      </trkpt>
      <trkpt lat="53.239856" lon="6.542397">
        <ele>41.250099</ele>
        <time>2026-05-07T15:45:32.994Z</time>
      </trkpt>
      <trkpt lat="53.239729" lon="6.542441">
        <ele>41.191922</ele>
        <time>2026-05-07T15:45:35.002Z</time>
      </trkpt>
      <trkpt lat="53.239597" lon="6.542484">
        <ele>41.131600</ele>
        <time>2026-05-07T15:45:36.997Z</time>
      </trkpt>
      <trkpt lat="53.239468" lon="6.542526">
        <ele>41.072650</ele>
        <time>2026-05-07T15:45:38.995Z</time>
      </trkpt>
      <trkpt lat="53.239337" lon="6.542571">
        <ele>41.012663</ele>
        <time>2026-05-07T15:45:40.997Z</time>
      </trkpt>
      <trkpt lat="53.239204" lon="6.542612">
        <ele>40.952000</ele>
        <time>2026-05-07T15:45:42.993Z</time>
      </trkpt>
      <trkpt lat="53.239073" lon="6.542659">
        <ele>40.891902</ele>
        <time>2026-05-07T15:45:44.995Z</time>
      </trkpt>
      <trkpt lat="53.238939" lon="6.542701">
        <ele>40.830749</ele>
        <time>2026-05-07T15:45:46.995Z</time>
      </trkpt>
      <trkpt lat="53.238804" lon="6.542746">
        <ele>40.769003</ele>
        <time>2026-05-07T15:45:48.995Z</time>
      </trkpt>
      <trkpt lat="53.238669" lon="6.542787">
        <ele>40.707457</ele>
        <time>2026-05-07T15:45:50.991Z</time>
      </trkpt>
      <trkpt lat="53.238535" lon="6.542828">
        <ele>40.646353</ele>
        <time>2026-05-07T15:45:52.993Z</time>
      </trkpt>
      <trkpt lat="53.238402" lon="6.542876">
        <ele>40.585322</ele>
        <time>2026-05-07T15:45:54.994Z</time>
      </trkpt>
      <trkpt lat="53.238276" lon="6.542911">
        <ele>40.528030</ele>
        <time>2026-05-07T15:45:56.998Z</time>
      </trkpt>
      <trkpt lat="53.238147" lon="6.542960">
        <ele>40.468692</ele>
        <time>2026-05-07T15:45:59.000Z</time>
      </trkpt>
      <trkpt lat="53.238022" lon="6.542996">
        <ele>40.518579</ele>
        <time>2026-05-07T15:46:00.997Z</time>
      </trkpt>
      <trkpt lat="53.237896" lon="6.543030">
        <ele>40.594968</ele>
        <time>2026-05-07T15:46:02.992Z</time>
      </trkpt>
      <trkpt lat="53.237764" lon="6.543075">
        <ele>40.675599</ele>
        <time>2026-05-07T15:46:04.998Z</time>
      </trkpt>
      <trkpt lat="53.237644" lon="6.543118">
        <ele>40.749052</ele>
        <time>2026-05-07T15:46:06.993Z</time>
      </trkpt>
      <trkpt lat="53.237524" lon="6.543176">
        <ele>40.823817</ele>
        <time>2026-05-07T15:46:08.995Z</time>
      </trkpt>
      <trkpt lat="53.237415" lon="6.543234">
        <ele>40.892283</ele>
        <time>2026-05-07T15:46:10.996Z</time>
      </trkpt>
      <trkpt lat="53.237318" lon="6.543324">
        <ele>40.958689</ele>
        <time>2026-05-07T15:46:13.000Z</time>
      </trkpt>
      <trkpt lat="53.237209" lon="6.543400">
        <ele>41.029378</ele>
        <time>2026-05-07T15:46:14.996Z</time>
      </trkpt>
      <trkpt lat="53.237115" lon="6.543491">
        <ele>41.094399</ele>
        <time>2026-05-07T15:46:16.994Z</time>
      </trkpt>
      <trkpt lat="53.237005" lon="6.543565">
        <ele>41.165370</ele>
        <time>2026-05-07T15:46:19.009Z</time>
      </trkpt>
      <trkpt lat="53.236898" lon="6.543618">
        <ele>41.232165</ele>
        <time>2026-05-07T15:46:20.990Z</time>
      </trkpt>
      <trkpt lat="53.236789" lon="6.543682">
        <ele>41.301313</ele>
        <time>2026-05-07T15:46:22.994Z</time>
      </trkpt>
      <trkpt lat="53.236561" lon="6.543780">
        <ele>41.442216</ele>
        <time>2026-05-07T15:46:25.994Z</time>
      </trkpt>
      <trkpt lat="53.236480" lon="6.543875">
        <ele>41.501446</ele>
        <time>2026-05-07T15:46:30.994Z</time>
      </trkpt>
      <trkpt lat="53.236536" lon="6.544051">
        <ele>41.460260</ele>
        <time>2026-05-07T15:46:34.003Z</time>
      </trkpt>
      <trkpt lat="53.236608" lon="6.544214">
        <ele>41.322300</ele>
        <time>2026-05-07T15:46:37.003Z</time>
      </trkpt>
      <trkpt lat="53.236647" lon="6.544361">
        <ele>41.212798</ele>
        <time>2026-05-07T15:46:39.000Z</time>
      </trkpt>
      <trkpt lat="53.236664" lon="6.544526">
        <ele>41.098780</ele>
        <time>2026-05-07T15:46:41.000Z</time>
      </trkpt>
      <trkpt lat="53.236688" lon="6.544673">
        <ele>40.995016</ele>
        <time>2026-05-07T15:46:42.993Z</time>
      </trkpt>
      <trkpt lat="53.236749" lon="6.544816">
        <ele>40.875430</ele>
        <time>2026-05-07T15:46:45.000Z</time>
      </trkpt>
      <trkpt lat="53.236795" lon="6.545010">
        <ele>40.733326</ele>
        <time>2026-05-07T15:46:47.002Z</time>
      </trkpt>
      <trkpt lat="53.236840" lon="6.545179">
        <ele>40.607362</ele>
        <time>2026-05-07T15:46:48.997Z</time>
      </trkpt>
      <trkpt lat="53.236868" lon="6.545363">
        <ele>40.478072</ele>
        <time>2026-05-07T15:46:50.994Z</time>
      </trkpt>
      <trkpt lat="53.236889" lon="6.545530">
        <ele>40.361862</ele>
        <time>2026-05-07T15:46:53.006Z</time>
      </trkpt>
      <trkpt lat="53.236920" lon="6.545707">
        <ele>40.236271</ele>
        <time>2026-05-07T15:46:54.999Z</time>
      </trkpt>
      <trkpt lat="53.236967" lon="6.545878">
        <ele>40.108128</ele>
        <time>2026-05-07T15:46:57.009Z</time>
      </trkpt>
      <trkpt lat="53.236997" lon="6.546048">
        <ele>39.987432</ele>
        <time>2026-05-07T15:46:58.997Z</time>
      </trkpt>
      <trkpt lat="53.237025" lon="6.546239">
        <ele>39.853517</ele>
        <time>2026-05-07T15:47:00.992Z</time>
      </trkpt>
      <trkpt lat="53.237057" lon="6.546429">
        <ele>39.719103</ele>
        <time>2026-05-07T15:47:02.999Z</time>
      </trkpt>
      <trkpt lat="53.237084" lon="6.546633">
        <ele>39.576824</ele>
        <time>2026-05-07T15:47:04.999Z</time>
      </trkpt>
      <trkpt lat="53.237102" lon="6.546842">
        <ele>39.546097</ele>
        <time>2026-05-07T15:47:06.996Z</time>
      </trkpt>
      <trkpt lat="53.237075" lon="6.547040">
        <ele>39.694863</ele>
        <time>2026-05-07T15:47:08.999Z</time>
      </trkpt>
      <trkpt lat="53.237090" lon="6.547248">
        <ele>39.848339</ele>
        <time>2026-05-07T15:47:10.995Z</time>
      </trkpt>
      <trkpt lat="53.237123" lon="6.547459">
        <ele>40.008102</ele>
        <time>2026-05-07T15:47:12.996Z</time>
      </trkpt>
      <trkpt lat="53.237159" lon="6.547654">
        <ele>40.157594</ele>
        <time>2026-05-07T15:47:14.997Z</time>
      </trkpt>
      <trkpt lat="53.237197" lon="6.547849">
        <ele>40.307826</ele>
        <time>2026-05-07T15:47:16.996Z</time>
      </trkpt>
      <trkpt lat="53.237231" lon="6.548041">
        <ele>40.454506</ele>
        <time>2026-05-07T15:47:18.997Z</time>
      </trkpt>
      <trkpt lat="53.237272" lon="6.548242">
        <ele>40.610069</ele>
        <time>2026-05-07T15:47:20.991Z</time>
      </trkpt>
      <trkpt lat="53.237328" lon="6.548435">
        <ele>40.767193</ele>
        <time>2026-05-07T15:47:23.002Z</time>
      </trkpt>
      <trkpt lat="53.237431" lon="6.548566">
        <ele>40.925634</ele>
        <time>2026-05-07T15:47:24.996Z</time>
      </trkpt>
      <trkpt lat="53.237505" lon="6.548728">
        <ele>41.074925</ele>
        <time>2026-05-07T15:47:26.994Z</time>
      </trkpt>
      <trkpt lat="53.237540" lon="6.548904">
        <ele>41.210787</ele>
        <time>2026-05-07T15:47:29.002Z</time>
      </trkpt>
      <trkpt lat="53.237570" lon="6.549097">
        <ele>41.356861</ele>
        <time>2026-05-07T15:47:30.995Z</time>
      </trkpt>
      <trkpt lat="53.237604" lon="6.549304">
        <ele>41.514108</ele>
        <time>2026-05-07T15:47:32.989Z</time>
      </trkpt>
      <trkpt lat="53.237645" lon="6.549491">
        <ele>41.660000</ele>
        <time>2026-05-07T15:47:34.992Z</time>
      </trkpt>
      <trkpt lat="53.237675" lon="6.549686">
        <ele>41.770941</ele>
        <time>2026-05-07T15:47:36.994Z</time>
      </trkpt>
      <trkpt lat="53.237712" lon="6.549866">
        <ele>41.867341</ele>
        <time>2026-05-07T15:47:38.993Z</time>
      </trkpt>
      <trkpt lat="53.237748" lon="6.550058">
        <ele>41.969252</ele>
        <time>2026-05-07T15:47:40.999Z</time>
      </trkpt>
      <trkpt lat="53.237767" lon="6.550251">
        <ele>42.068323</ele>
        <time>2026-05-07T15:47:42.991Z</time>
      </trkpt>
      <trkpt lat="53.237750" lon="6.550447">
        <ele>42.168637</ele>
        <time>2026-05-07T15:47:44.993Z</time>
      </trkpt>
      <trkpt lat="53.237719" lon="6.550644">
        <ele>42.271812</ele>
        <time>2026-05-07T15:47:46.990Z</time>
      </trkpt>
      <trkpt lat="53.237719" lon="6.550838">
        <ele>42.370076</ele>
        <time>2026-05-07T15:47:48.993Z</time>
      </trkpt>
      <trkpt lat="53.237750" lon="6.551022">
        <ele>42.466897</ele>
        <time>2026-05-07T15:47:50.993Z</time>
      </trkpt>
      <trkpt lat="53.237779" lon="6.551203">
        <ele>42.561804</ele>
        <time>2026-05-07T15:47:52.990Z</time>
      </trkpt>
      <trkpt lat="53.237813" lon="6.551393">
        <ele>42.662251</ele>
        <time>2026-05-07T15:47:54.989Z</time>
      </trkpt>
      <trkpt lat="53.237853" lon="6.551573">
        <ele>42.759505</ele>
        <time>2026-05-07T15:47:56.996Z</time>
      </trkpt>
      <trkpt lat="53.237918" lon="6.551741">
        <ele>42.860832</ele>
        <time>2026-05-07T15:47:58.996Z</time>
      </trkpt>
      <trkpt lat="53.238004" lon="6.551889">
        <ele>42.965316</ele>
        <time>2026-05-07T15:48:00.991Z</time>
      </trkpt>
      <trkpt lat="53.238070" lon="6.552048">
        <ele>43.063326</ele>
        <time>2026-05-07T15:48:02.988Z</time>
      </trkpt>
      <trkpt lat="53.238094" lon="6.552247">
        <ele>43.166147</ele>
        <time>2026-05-07T15:48:04.996Z</time>
      </trkpt>
      <trkpt lat="53.238104" lon="6.552438">
        <ele>43.171821</ele>
        <time>2026-05-07T15:48:06.996Z</time>
      </trkpt>
      <trkpt lat="53.238117" lon="6.552633">
        <ele>43.096486</ele>
        <time>2026-05-07T15:48:08.996Z</time>
      </trkpt>
      <trkpt lat="53.238135" lon="6.552833">
        <ele>43.018831</ele>
        <time>2026-05-07T15:48:10.994Z</time>
      </trkpt>
      <trkpt lat="53.238146" lon="6.553033">
        <ele>42.941716</ele>
        <time>2026-05-07T15:48:12.996Z</time>
      </trkpt>
      <trkpt lat="53.238151" lon="6.553220">
        <ele>42.869844</ele>
        <time>2026-05-07T15:48:14.993Z</time>
      </trkpt>
      <trkpt lat="53.238164" lon="6.553411">
        <ele>42.796035</ele>
        <time>2026-05-07T15:48:16.994Z</time>
      </trkpt>
      <trkpt lat="53.238166" lon="6.553586">
        <ele>42.728830</ele>
        <time>2026-05-07T15:48:18.995Z</time>
      </trkpt>
      <trkpt lat="53.238172" lon="6.553777">
        <ele>42.655393</ele>
        <time>2026-05-07T15:48:20.998Z</time>
      </trkpt>
      <trkpt lat="53.238164" lon="6.553967">
        <ele>42.582261</ele>
        <time>2026-05-07T15:48:22.997Z</time>
      </trkpt>
      <trkpt lat="53.238157" lon="6.554146">
        <ele>42.513386</ele>
        <time>2026-05-07T15:48:24.991Z</time>
      </trkpt>
      <trkpt lat="53.238156" lon="6.554342">
        <ele>42.438127</ele>
        <time>2026-05-07T15:48:27.994Z</time>
      </trkpt>
      <trkpt lat="53.238236" lon="6.554417">
        <ele>42.379277</ele>
        <time>2026-05-07T15:48:32.001Z</time>
      </trkpt>
      <trkpt lat="53.238357" lon="6.554416">
        <ele>42.301649</ele>
        <time>2026-05-07T15:48:34.991Z</time>
      </trkpt>
      <trkpt lat="53.238449" lon="6.554445">
        <ele>42.241586</ele>
        <time>2026-05-07T15:48:37.999Z</time>
      </trkpt>
      <trkpt lat="53.238595" lon="6.554420">
        <ele>42.147430</ele>
        <time>2026-05-07T15:48:39.999Z</time>
      </trkpt>
      <trkpt lat="53.238695" lon="6.554397">
        <ele>42.082670</ele>
        <time>2026-05-07T15:48:41.994Z</time>
      </trkpt>
      <trkpt lat="53.238815" lon="6.554407">
        <ele>42.055382</ele>
        <time>2026-05-07T15:48:44.995Z</time>
      </trkpt>
      <trkpt lat="53.238927" lon="6.554383">
        <ele>42.052644</ele>
        <time>2026-05-07T15:48:47.991Z</time>
      </trkpt>
      <trkpt lat="53.239032" lon="6.554390">
        <ele>42.050096</ele>
        <time>2026-05-07T15:48:50.996Z</time>
      </trkpt>
      <trkpt lat="53.239086" lon="6.554232">
        <ele>42.047455</ele>
        <time>2026-05-07T15:48:53.999Z</time>
      </trkpt>
      <trkpt lat="53.239169" lon="6.554085">
        <ele>42.044522</ele>
        <time>2026-05-07T15:48:57.005Z</time>
      </trkpt>
      <trkpt lat="53.239269" lon="6.553947">
        <ele>42.041377</ele>
        <time>2026-05-07T15:48:59.999Z</time>
      </trkpt>
      <trkpt lat="53.239360" lon="6.553795">
        <ele>42.038257</ele>
        <time>2026-05-07T15:49:02.995Z</time>
      </trkpt>
      <trkpt lat="53.239428" lon="6.553635">
        <ele>42.035409</ele>
        <time>2026-05-07T15:49:05.995Z</time>
      </trkpt>
      <trkpt lat="53.239473" lon="6.553464">
        <ele>42.032698</ele>
        <time>2026-05-07T15:49:08.994Z</time>
      </trkpt>
      <trkpt lat="53.239507" lon="6.553295">
        <ele>42.030110</ele>
        <time>2026-05-07T15:49:11.996Z</time>
      </trkpt>
      <trkpt lat="53.239533" lon="6.553105">
        <ele>42.027282</ele>
        <time>2026-05-07T15:49:15.993Z</time>
      </trkpt>
      <trkpt lat="53.239561" lon="6.552949">
        <ele>42.024918</ele>
        <time>2026-05-07T15:49:19.004Z</time>
      </trkpt>
      <trkpt lat="53.239603" lon="6.552754">
        <ele>42.021911</ele>
        <time>2026-05-07T15:49:22.001Z</time>
      </trkpt>
      <trkpt lat="53.239648" lon="6.552558">
        <ele>42.018864</ele>
        <time>2026-05-07T15:49:24.995Z</time>
      </trkpt>
      <trkpt lat="53.239726" lon="6.552446">
        <ele>42.016370</ele>
        <time>2026-05-07T15:49:29.000Z</time>
      </trkpt>
      <trkpt lat="53.239832" lon="6.552489">
        <ele>42.013725</ele>
        <time>2026-05-07T15:49:30.998Z</time>
      </trkpt>
      <trkpt lat="53.239964" lon="6.552524">
        <ele>42.130004</ele>
        <time>2026-05-07T15:49:33.996Z</time>
      </trkpt>
      <trkpt lat="53.240067" lon="6.552541">
        <ele>42.220139</ele>
        <time>2026-05-07T15:49:36.000Z</time>
      </trkpt>
      <trkpt lat="53.240164" lon="6.552534">
        <ele>42.304691</ele>
        <time>2026-05-07T15:49:37.998Z</time>
      </trkpt>
      <trkpt lat="53.240266" lon="6.552513">
        <ele>42.394190</ele>
        <time>2026-05-07T15:49:39.999Z</time>
      </trkpt>
      <trkpt lat="53.240400" lon="6.552484">
        <ele>42.511860</ele>
        <time>2026-05-07T15:49:42.997Z</time>
      </trkpt>
      <trkpt lat="53.240540" lon="6.552428">
        <ele>42.637225</ele>
        <time>2026-05-07T15:49:45.996Z</time>
      </trkpt>
      <trkpt lat="53.240626" lon="6.552380">
        <ele>42.716186</ele>
        <time>2026-05-07T15:49:47.998Z</time>
      </trkpt>
      <trkpt lat="53.240710" lon="6.552322">
        <ele>42.795337</ele>
        <time>2026-05-07T15:49:49.995Z</time>
      </trkpt>
      <trkpt lat="53.240830" lon="6.552214">
        <ele>42.914035</ele>
        <time>2026-05-07T15:49:52.995Z</time>
      </trkpt>
      <trkpt lat="53.240936" lon="6.552093">
        <ele>43.025829</ele>
        <time>2026-05-07T15:49:56.002Z</time>
      </trkpt>
      <trkpt lat="53.241039" lon="6.551958">
        <ele>43.139829</ele>
        <time>2026-05-07T15:49:58.993Z</time>
      </trkpt>
      <trkpt lat="53.241112" lon="6.551870">
        <ele>43.218218</ele>
        <time>2026-05-07T15:50:00.997Z</time>
      </trkpt>
      <trkpt lat="53.241173" lon="6.551759">
        <ele>43.296758</ele>
        <time>2026-05-07T15:50:03.001Z</time>
      </trkpt>
      <trkpt lat="53.241233" lon="6.551638">
        <ele>43.378653</ele>
        <time>2026-05-07T15:50:04.993Z</time>
      </trkpt>
      <trkpt lat="53.241289" lon="6.551519">
        <ele>43.457550</ele>
        <time>2026-05-07T15:50:06.994Z</time>
      </trkpt>
      <trkpt lat="53.241342" lon="6.551357">
        <ele>43.553770</ele>
        <time>2026-05-07T15:50:09.995Z</time>
      </trkpt>
      <trkpt lat="53.241419" lon="6.551221">
        <ele>43.585419</ele>
        <time>2026-05-07T15:50:13.001Z</time>
      </trkpt>
      <trkpt lat="53.241542" lon="6.551132">
        <ele>43.594155</ele>
        <time>2026-05-07T15:50:16.001Z</time>
      </trkpt>
      <trkpt lat="53.241626" lon="6.551076">
        <ele>43.600050</ele>
        <time>2026-05-07T15:50:18.001Z</time>
      </trkpt>
      <trkpt lat="53.241725" lon="6.551090">
        <ele>43.606526</ele>
        <time>2026-05-07T15:50:19.997Z</time>
      </trkpt>
      <trkpt lat="53.241841" lon="6.551061">
        <ele>43.614171</ele>
        <time>2026-05-07T15:50:23.000Z</time>
      </trkpt>
      <trkpt lat="53.241945" lon="6.550957">
        <ele>43.622071</ele>
        <time>2026-05-07T15:50:25.998Z</time>
      </trkpt>
      <trkpt lat="53.242047" lon="6.550841">
        <ele>43.630114</ele>
        <time>2026-05-07T15:50:28.996Z</time>
      </trkpt>
      <trkpt lat="53.242126" lon="6.550741">
        <ele>43.636573</ele>
        <time>2026-05-07T15:50:30.998Z</time>
      </trkpt>
      <trkpt lat="53.242200" lon="6.550649">
        <ele>43.642585</ele>
        <time>2026-05-07T15:50:32.998Z</time>
      </trkpt>
      <trkpt lat="53.242273" lon="6.550553">
        <ele>43.648640</ele>
        <time>2026-05-07T15:50:34.997Z</time>
      </trkpt>
      <trkpt lat="53.242349" lon="6.550466">
        <ele>43.654645</ele>
        <time>2026-05-07T15:50:36.996Z</time>
      </trkpt>
      <trkpt lat="53.242434" lon="6.550395">
        <ele>43.660839</ele>
        <time>2026-05-07T15:50:38.999Z</time>
      </trkpt>
      <trkpt lat="53.242520" lon="6.550322">
        <ele>43.667127</ele>
        <time>2026-05-07T15:50:40.996Z</time>
      </trkpt>
      <trkpt lat="53.242616" lon="6.550235">
        <ele>43.674245</ele>
        <time>2026-05-07T15:50:42.996Z</time>
      </trkpt>
      <trkpt lat="53.242702" lon="6.550147">
        <ele>43.680818</ele>
        <time>2026-05-07T15:50:45.004Z</time>
      </trkpt>
      <trkpt lat="53.242799" lon="6.550017">
        <ele>43.688923</ele>
        <time>2026-05-07T15:50:47.996Z</time>
      </trkpt>
      <trkpt lat="53.242890" lon="6.549864">
        <ele>43.697362</ele>
        <time>2026-05-07T15:50:50.991Z</time>
      </trkpt>
      <trkpt lat="53.242977" lon="6.549700">
        <ele>43.721620</ele>
        <time>2026-05-07T15:50:53.993Z</time>
      </trkpt>
      <trkpt lat="53.243059" lon="6.549518">
        <ele>43.746835</ele>
        <time>2026-05-07T15:50:56.996Z</time>
      </trkpt>
      <trkpt lat="53.243106" lon="6.549373">
        <ele>43.765087</ele>
        <time>2026-05-07T15:50:58.989Z</time>
      </trkpt>
      <trkpt lat="53.243178" lon="6.549198">
        <ele>43.788593</ele>
        <time>2026-05-07T15:51:01.997Z</time>
      </trkpt>
      <trkpt lat="53.243230" lon="6.549021">
        <ele>43.810418</ele>
        <time>2026-05-07T15:51:04.994Z</time>
      </trkpt>
      <trkpt lat="53.243261" lon="6.548837">
        <ele>43.831575</ele>
        <time>2026-05-07T15:51:08.000Z</time>
      </trkpt>
      <trkpt lat="53.243343" lon="6.548951">
        <ele>43.851304</ele>
        <time>2026-05-07T15:51:18.006Z</time>
      </trkpt>
      <trkpt lat="53.243429" lon="6.549005">
        <ele>43.868296</ele>
        <time>2026-05-07T15:51:20.995Z</time>
      </trkpt>
      <trkpt lat="53.243521" lon="6.549056">
        <ele>43.886224</ele>
        <time>2026-05-07T15:51:23.991Z</time>
      </trkpt>
      <trkpt lat="53.243618" lon="6.549109">
        <ele>43.905100</ele>
        <time>2026-05-07T15:51:26.999Z</time>
      </trkpt>
      <trkpt lat="53.243706" lon="6.549144">
        <ele>43.921831</ele>
        <time>2026-05-07T15:51:29.997Z</time>
      </trkpt>
      <trkpt lat="53.243867" lon="6.549232">
        <ele>43.953161</ele>
        <time>2026-05-07T15:52:03.998Z</time>
      </trkpt>
      <trkpt lat="53.243927" lon="6.549105">
        <ele>43.971070</ele>
        <time>2026-05-07T15:52:07.998Z</time>
      </trkpt>
      <trkpt lat="53.243953" lon="6.548945">
        <ele>43.989421</ele>
        <time>2026-05-07T15:52:10.999Z</time>
      </trkpt>
      <trkpt lat="53.243969" lon="6.548778">
        <ele>44.008140</ele>
        <time>2026-05-07T15:52:13.997Z</time>
      </trkpt>
      <trkpt lat="53.243984" lon="6.548629">
        <ele>44.024863</ele>
        <time>2026-05-07T15:52:16.998Z</time>
      </trkpt>
      <trkpt lat="53.244001" lon="6.548438">
        <ele>43.956269</ele>
        <time>2026-05-07T15:52:20.996Z</time>
      </trkpt>
      <trkpt lat="53.244000" lon="6.548270">
        <ele>43.871841</ele>
        <time>2026-05-07T15:52:23.996Z</time>
      </trkpt>
      <trkpt lat="53.244000" lon="6.548106">
        <ele>43.789427</ele>
        <time>2026-05-07T15:52:26.988Z</time>
      </trkpt>
      <trkpt lat="53.244000" lon="6.547931">
        <ele>43.701485</ele>
        <time>2026-05-07T15:52:30.003Z</time>
      </trkpt>
      <trkpt lat="53.243993" lon="6.547764">
        <ele>43.617358</ele>
        <time>2026-05-07T15:52:32.992Z</time>
      </trkpt>
      <trkpt lat="53.243986" lon="6.547598">
        <ele>43.533732</ele>
        <time>2026-05-07T15:52:35.993Z</time>
      </trkpt>
      <trkpt lat="53.243931" lon="6.547425">
        <ele>43.435288</ele>
        <time>2026-05-07T15:52:39.996Z</time>
      </trkpt>
      <trkpt lat="53.243858" lon="6.547311">
        <ele>43.351384</ele>
        <time>2026-05-07T15:52:42.993Z</time>
      </trkpt>
      <trkpt lat="53.243770" lon="6.547219">
        <ele>43.264214</ele>
        <time>2026-05-07T15:52:45.991Z</time>
      </trkpt>
      <trkpt lat="53.243684" lon="6.547168">
        <ele>43.187582</ele>
        <time>2026-05-07T15:52:49.001Z</time>
      </trkpt>
      <trkpt lat="53.243576" lon="6.547127">
        <ele>43.094576</ele>
        <time>2026-05-07T15:52:52.995Z</time>
      </trkpt>
      <trkpt lat="53.243453" lon="6.547130">
        <ele>42.991274</ele>
        <time>2026-05-07T15:52:56.997Z</time>
      </trkpt>
      <trkpt lat="53.243356" lon="6.547149">
        <ele>42.909259</ele>
        <time>2026-05-07T15:52:59.992Z</time>
      </trkpt>
      <trkpt lat="53.243264" lon="6.547196">
        <ele>42.828471</ele>
        <time>2026-05-07T15:53:02.999Z</time>
      </trkpt>
      <trkpt lat="53.243159" lon="6.547181">
        <ele>42.739974</ele>
        <time>2026-05-07T15:53:07.997Z</time>
      </trkpt>
      <trkpt lat="53.243091" lon="6.547039">
        <ele>42.648578</ele>
        <time>2026-05-07T15:53:10.995Z</time>
      </trkpt>
      <trkpt lat="53.243022" lon="6.546909">
        <ele>42.561255</ele>
        <time>2026-05-07T15:53:13.993Z</time>
      </trkpt>
      <trkpt lat="53.242945" lon="6.546797">
        <ele>42.520228</ele>
        <time>2026-05-07T15:53:16.993Z</time>
      </trkpt>
      <trkpt lat="53.242873" lon="6.546655">
        <ele>42.521653</ele>
        <time>2026-05-07T15:53:21.001Z</time>
      </trkpt>
      <trkpt lat="53.242797" lon="6.546516">
        <ele>42.523095</ele>
        <time>2026-05-07T15:53:23.996Z</time>
      </trkpt>
      <trkpt lat="53.242715" lon="6.546372">
        <ele>42.524618</ele>
        <time>2026-05-07T15:53:26.995Z</time>
      </trkpt>
      <trkpt lat="53.242650" lon="6.546236">
        <ele>42.525951</ele>
        <time>2026-05-07T15:53:29.994Z</time>
      </trkpt>
      <trkpt lat="53.242540" lon="6.546241">
        <ele>42.527359</ele>
        <time>2026-05-07T15:53:33.993Z</time>
      </trkpt>
      <trkpt lat="53.242463" lon="6.546369">
        <ele>42.528749</ele>
        <time>2026-05-07T15:53:36.995Z</time>
      </trkpt>
      <trkpt lat="53.242396" lon="6.546524">
        <ele>42.530213</ele>
        <time>2026-05-07T15:53:39.996Z</time>
      </trkpt>
      <trkpt lat="53.242331" lon="6.546685">
        <ele>42.531701</ele>
        <time>2026-05-07T15:53:43.000Z</time>
      </trkpt>
      <trkpt lat="53.242289" lon="6.546823">
        <ele>42.532886</ele>
        <time>2026-05-07T15:53:45.999Z</time>
      </trkpt>
      <trkpt lat="53.242257" lon="6.546977">
        <ele>42.534135</ele>
        <time>2026-05-07T15:53:48.993Z</time>
      </trkpt>
      <trkpt lat="53.242200" lon="6.547125">
        <ele>42.535483</ele>
        <time>2026-05-07T15:53:51.999Z</time>
      </trkpt>
      <trkpt lat="53.242104" lon="6.547223">
        <ele>42.536923</ele>
        <time>2026-05-07T15:53:54.998Z</time>
      </trkpt>
      <trkpt lat="53.242015" lon="6.547259">
        <ele>42.538094</ele>
        <time>2026-05-07T15:53:57.997Z</time>
      </trkpt>
      <trkpt lat="53.241922" lon="6.547211">
        <ele>42.539340</ele>
        <time>2026-05-07T15:54:00.992Z</time>
      </trkpt>
      <trkpt lat="53.241846" lon="6.547129">
        <ele>42.540498</ele>
        <time>2026-05-07T15:54:03.996Z</time>
      </trkpt>
      <trkpt lat="53.241832" lon="6.546966">
        <ele>42.541759</ele>
        <time>2026-05-07T15:54:07.997Z</time>
      </trkpt>
      <trkpt lat="53.241875" lon="6.546777">
        <ele>42.551204</ele>
        <time>2026-05-07T15:54:11.996Z</time>
      </trkpt>
      <trkpt lat="53.241958" lon="6.546650">
        <ele>42.568181</ele>
        <time>2026-05-07T15:54:14.994Z</time>
      </trkpt>
      <trkpt lat="53.242047" lon="6.546537">
        <ele>42.585043</ele>
        <time>2026-05-07T15:54:18.002Z</time>
      </trkpt>
      <trkpt lat="53.242115" lon="6.546371">
        <ele>42.603204</ele>
        <time>2026-05-07T15:54:20.996Z</time>
      </trkpt>
      <trkpt lat="53.242150" lon="6.546188">
        <ele>42.620549</ele>
        <time>2026-05-07T15:54:23.998Z</time>
      </trkpt>
      <trkpt lat="53.242155" lon="6.546007">
        <ele>42.636906</ele>
        <time>2026-05-07T15:54:26.997Z</time>
      </trkpt>
      <trkpt lat="53.242128" lon="6.545839">
        <ele>42.652611</ele>
        <time>2026-05-07T15:54:30.003Z</time>
      </trkpt>
      <trkpt lat="53.242065" lon="6.545699">
        <ele>42.668424</ele>
        <time>2026-05-07T15:54:32.996Z</time>
      </trkpt>
      <trkpt lat="53.241984" lon="6.545563">
        <ele>42.685747</ele>
        <time>2026-05-07T15:54:35.993Z</time>
      </trkpt>
      <trkpt lat="53.241887" lon="6.545459">
        <ele>42.703133</ele>
        <time>2026-05-07T15:54:38.994Z</time>
      </trkpt>
      <trkpt lat="53.241785" lon="6.545410">
        <ele>42.719144</ele>
        <time>2026-05-07T15:54:41.994Z</time>
      </trkpt>
      <trkpt lat="53.241685" lon="6.545383">
        <ele>42.734425</ele>
        <time>2026-05-07T15:54:44.995Z</time>
      </trkpt>
      <trkpt lat="53.241581" lon="6.545413">
        <ele>42.750346</ele>
        <time>2026-05-07T15:54:47.995Z</time>
      </trkpt>
      <trkpt lat="53.241486" lon="6.545467">
        <ele>42.765484</ele>
        <time>2026-05-07T15:54:50.995Z</time>
      </trkpt>
      <trkpt lat="53.241396" lon="6.545510">
        <ele>42.779606</ele>
        <time>2026-05-07T15:54:54.000Z</time>
      </trkpt>
      <trkpt lat="53.241303" lon="6.545621">
        <ele>42.796847</ele>
        <time>2026-05-07T15:54:57.994Z</time>
      </trkpt>
      <trkpt lat="53.241273" lon="6.545783">
        <ele>42.812156</ele>
        <time>2026-05-07T15:55:00.998Z</time>
      </trkpt>
      <trkpt lat="53.241235" lon="6.545954">
        <ele>42.891746</ele>
        <time>2026-05-07T15:55:03.998Z</time>
      </trkpt>
      <trkpt lat="53.241146" lon="6.546061">
        <ele>42.979266</ele>
        <time>2026-05-07T15:55:06.997Z</time>
      </trkpt>
      <trkpt lat="53.241073" lon="6.546158">
        <ele>43.053715</ele>
        <time>2026-05-07T15:55:09.996Z</time>
      </trkpt>
      <trkpt lat="53.241041" lon="6.546322">
        <ele>43.136117</ele>
        <time>2026-05-07T15:55:13.991Z</time>
      </trkpt>
      <trkpt lat="53.241012" lon="6.546569">
        <ele>43.256359</ele>
        <time>2026-05-07T15:55:49.032Z</time>
      </trkpt>
      <trkpt lat="53.240910" lon="6.546582">
        <ele>43.338016</ele>
        <time>2026-05-07T15:56:04.000Z</time>
      </trkpt>
      <trkpt lat="53.241008" lon="6.546602">
        <ele>43.416824</ele>
        <time>2026-05-07T15:56:28.996Z</time>
      </trkpt>
      <trkpt lat="53.240975" lon="6.546863">
        <ele>43.544257</ele>
        <time>2026-05-07T15:57:08.000Z</time>
      </trkpt>
      <trkpt lat="53.240939" lon="6.547019">
        <ele>43.624127</ele>
        <time>2026-05-07T15:57:12.000Z</time>
      </trkpt>
      <trkpt lat="53.240902" lon="6.547173">
        <ele>43.703401</ele>
        <time>2026-05-07T15:57:16.001Z</time>
      </trkpt>
      <trkpt lat="53.240851" lon="6.547321">
        <ele>43.784984</ele>
        <time>2026-05-07T15:57:20.002Z</time>
      </trkpt>
      <trkpt lat="53.240797" lon="6.547489">
        <ele>43.876082</ele>
        <time>2026-05-07T15:57:23.999Z</time>
      </trkpt>
      <trkpt lat="53.240715" lon="6.547591">
        <ele>43.957682</ele>
        <time>2026-05-07T15:57:28.002Z</time>
      </trkpt>
      <trkpt lat="53.240531" lon="6.547459">
        <ele>44.117521</ele>
        <time>2026-05-07T15:58:08.999Z</time>
      </trkpt>
      <trkpt lat="53.240438" lon="6.547427">
        <ele>44.193314</ele>
        <time>2026-05-07T15:58:12.999Z</time>
      </trkpt>
      <trkpt lat="53.240349" lon="6.547360">
        <ele>44.222628</ele>
        <time>2026-05-07T15:58:16.995Z</time>
      </trkpt>
      <trkpt lat="53.240241" lon="6.547312">
        <ele>44.110926</ele>
        <time>2026-05-07T15:58:21.010Z</time>
      </trkpt>
      <trkpt lat="53.240153" lon="6.547271">
        <ele>44.019612</ele>
        <time>2026-05-07T15:58:23.998Z</time>
      </trkpt>
      <trkpt lat="53.240040" lon="6.547236">
        <ele>43.904741</ele>
        <time>2026-05-07T15:58:27.993Z</time>
      </trkpt>
      <trkpt lat="53.239951" lon="6.547275">
        <ele>43.812774</ele>
        <time>2026-05-07T15:58:30.993Z</time>
      </trkpt>
      <trkpt lat="53.239863" lon="6.547393">
        <ele>43.699995</ele>
        <time>2026-05-07T15:58:34.993Z</time>
      </trkpt>
      <trkpt lat="53.239773" lon="6.547525">
        <ele>43.580299</ele>
        <time>2026-05-07T15:58:38.999Z</time>
      </trkpt>
      <trkpt lat="53.239692" lon="6.547621">
        <ele>43.481039</ele>
        <time>2026-05-07T15:58:42.000Z</time>
      </trkpt>
      <trkpt lat="53.239610" lon="6.547723">
        <ele>43.378860</ele>
        <time>2026-05-07T15:58:44.987Z</time>
      </trkpt>
      <trkpt lat="53.239528" lon="6.547823">
        <ele>43.277390</ele>
        <time>2026-05-07T15:58:47.988Z</time>
      </trkpt>
      <trkpt lat="53.239452" lon="6.547921">
        <ele>43.181436</ele>
        <time>2026-05-07T15:58:50.993Z</time>
      </trkpt>
      <trkpt lat="53.239381" lon="6.548015">
        <ele>43.090893</ele>
        <time>2026-05-07T15:58:53.997Z</time>
      </trkpt>
      <trkpt lat="53.239306" lon="6.548108">
        <ele>42.997541</ele>
        <time>2026-05-07T15:58:56.995Z</time>
      </trkpt>
      <trkpt lat="53.239194" lon="6.548155">
        <ele>42.882117</ele>
        <time>2026-05-07T15:59:01.005Z</time>
      </trkpt>
      <trkpt lat="53.239134" lon="6.548290">
        <ele>42.781527</ele>
        <time>2026-05-07T15:59:04.996Z</time>
      </trkpt>
      <trkpt lat="53.239136" lon="6.548442">
        <ele>42.690580</ele>
        <time>2026-05-07T15:59:09.995Z</time>
      </trkpt>
      <trkpt lat="53.239153" lon="6.548591">
        <ele>42.599843</ele>
        <time>2026-05-07T15:59:17.994Z</time>
      </trkpt>
      <trkpt lat="53.239151" lon="6.548796">
        <ele>42.477197</ele>
        <time>2026-05-07T15:59:21.989Z</time>
      </trkpt>
      <trkpt lat="53.239140" lon="6.548980">
        <ele>42.548273</ele>
        <time>2026-05-07T15:59:24.992Z</time>
      </trkpt>
      <trkpt lat="53.239132" lon="6.549137">
        <ele>42.654855</ele>
        <time>2026-05-07T15:59:27.995Z</time>
      </trkpt>
      <trkpt lat="53.239100" lon="6.549320">
        <ele>42.783814</ele>
        <time>2026-05-07T15:59:30.992Z</time>
      </trkpt>
      <trkpt lat="53.239066" lon="6.549512">
        <ele>42.919251</ele>
        <time>2026-05-07T15:59:33.991Z</time>
      </trkpt>
      <trkpt lat="53.239021" lon="6.549693">
        <ele>43.051826</ele>
        <time>2026-05-07T15:59:36.995Z</time>
      </trkpt>
      <trkpt lat="53.238981" lon="6.549884">
        <ele>43.188703</ele>
        <time>2026-05-07T15:59:39.999Z</time>
      </trkpt>
      <trkpt lat="53.238952" lon="6.550061">
        <ele>43.312834</ele>
        <time>2026-05-07T15:59:42.994Z</time>
      </trkpt>
      <trkpt lat="53.238944" lon="6.550223">
        <ele>43.422786</ele>
        <time>2026-05-07T15:59:45.992Z</time>
      </trkpt>
      <trkpt lat="53.238947" lon="6.550377">
        <ele>43.527009</ele>
        <time>2026-05-07T15:59:47.993Z</time>
      </trkpt>
      <trkpt lat="53.238947" lon="6.550582">
        <ele>43.665675</ele>
        <time>2026-05-07T15:59:50.995Z</time>
      </trkpt>
      <trkpt lat="53.238952" lon="6.550786">
        <ele>43.803779</ele>
        <time>2026-05-07T15:59:53.992Z</time>
      </trkpt>
      <trkpt lat="53.238959" lon="6.550967">
        <ele>43.926466</ele>
        <time>2026-05-07T15:59:56.996Z</time>
      </trkpt>
      <trkpt lat="53.238993" lon="6.551177">
        <ele>44.073619</ele>
        <time>2026-05-07T15:59:59.996Z</time>
      </trkpt>
      <trkpt lat="53.239030" lon="6.551374">
        <ele>44.213281</ele>
        <time>2026-05-07T16:00:02.991Z</time>
      </trkpt>
      <trkpt lat="53.239077" lon="6.551536">
        <ele>44.335057</ele>
        <time>2026-05-07T16:00:05.995Z</time>
      </trkpt>
      <trkpt lat="53.239129" lon="6.551690">
        <ele>44.454660</ele>
        <time>2026-05-07T16:00:08.994Z</time>
      </trkpt>
      <trkpt lat="53.239200" lon="6.551855">
        <ele>44.417021</ele>
        <time>2026-05-07T16:00:11.994Z</time>
      </trkpt>
      <trkpt lat="53.239290" lon="6.552002">
        <ele>44.327350</ele>
        <time>2026-05-07T16:00:15.003Z</time>
      </trkpt>
      <trkpt lat="53.239377" lon="6.552129">
        <ele>44.245039</ele>
        <time>2026-05-07T16:00:17.998Z</time>
      </trkpt>
      <trkpt lat="53.239477" lon="6.552240">
        <ele>44.159502</ele>
        <time>2026-05-07T16:00:21.002Z</time>
      </trkpt>
      <trkpt lat="53.239573" lon="6.552342">
        <ele>44.078446</ele>
        <time>2026-05-07T16:00:23.994Z</time>
      </trkpt>
      <trkpt lat="53.239649" lon="6.552479">
        <ele>43.998792</ele>
        <time>2026-05-07T16:00:26.999Z</time>
      </trkpt>
      <trkpt lat="53.239620" lon="6.552653">
        <ele>43.921774</ele>
        <time>2026-05-07T16:00:30.000Z</time>
      </trkpt>
      <trkpt lat="53.239582" lon="6.552826">
        <ele>43.843195</ele>
        <time>2026-05-07T16:00:32.994Z</time>
      </trkpt>
      <trkpt lat="53.239543" lon="6.552996">
        <ele>43.765563</ele>
        <time>2026-05-07T16:00:35.995Z</time>
      </trkpt>
      <trkpt lat="53.239494" lon="6.553183">
        <ele>43.678517</ele>
        <time>2026-05-07T16:00:39.996Z</time>
      </trkpt>
      <trkpt lat="53.239443" lon="6.553364">
        <ele>43.593212</ele>
        <time>2026-05-07T16:00:43.991Z</time>
      </trkpt>
      <trkpt lat="53.239340" lon="6.553412">
        <ele>43.517024</ele>
        <time>2026-05-07T16:00:47.992Z</time>
      </trkpt>
      <trkpt lat="53.239407" lon="6.553530">
        <ele>43.447667</ele>
        <time>2026-05-07T16:01:02.994Z</time>
      </trkpt>
      <trkpt lat="53.239385" lon="6.553684">
        <ele>43.380155</ele>
        <time>2026-05-07T16:01:06.994Z</time>
      </trkpt>
      <trkpt lat="53.239323" lon="6.553802">
        <ele>43.313199</ele>
        <time>2026-05-07T16:01:09.997Z</time>
      </trkpt>
      <trkpt lat="53.239252" lon="6.553915">
        <ele>43.243337</ele>
        <time>2026-05-07T16:01:12.987Z</time>
      </trkpt>
      <trkpt lat="53.239078" lon="6.554177">
        <ele>43.152201</ele>
        <time>2026-05-07T16:01:46.998Z</time>
      </trkpt>
      <trkpt lat="53.239097" lon="6.554372">
        <ele>43.118300</ele>
        <time>2026-05-07T16:01:49.998Z</time>
      </trkpt>
      <trkpt lat="53.239212" lon="6.554427">
        <ele>43.084004</ele>
        <time>2026-05-07T16:01:52.995Z</time>
      </trkpt>
      <trkpt lat="53.239344" lon="6.554394">
        <ele>43.045736</ele>
        <time>2026-05-07T16:01:55.994Z</time>
      </trkpt>
      <trkpt lat="53.239475" lon="6.554349">
        <ele>43.007392</ele>
        <time>2026-05-07T16:01:58.997Z</time>
      </trkpt>
      <trkpt lat="53.239609" lon="6.554307">
        <ele>42.968302</ele>
        <time>2026-05-07T16:02:02.002Z</time>
      </trkpt>
      <trkpt lat="53.239706" lon="6.554278">
        <ele>42.940049</ele>
        <time>2026-05-07T16:02:03.995Z</time>
      </trkpt>
      <trkpt lat="53.239798" lon="6.554254">
        <ele>42.913352</ele>
        <time>2026-05-07T16:02:05.994Z</time>
      </trkpt>
      <trkpt lat="53.239895" lon="6.554209">
        <ele>42.884489</ele>
        <time>2026-05-07T16:02:09.001Z</time>
      </trkpt>
      <trkpt lat="53.239992" lon="6.554169">
        <ele>42.855843</ele>
        <time>2026-05-07T16:02:12.993Z</time>
      </trkpt>
      <trkpt lat="53.240085" lon="6.554128">
        <ele>42.828267</ele>
        <time>2026-05-07T16:02:18.993Z</time>
      </trkpt>
      <trkpt lat="53.240186" lon="6.554069">
        <ele>42.797590</ele>
        <time>2026-05-07T16:02:24.994Z</time>
      </trkpt>
      <trkpt lat="53.240087" lon="6.554077">
        <ele>42.769172</ele>
        <time>2026-05-07T16:02:33.997Z</time>
      </trkpt>
      <trkpt lat="53.239988" lon="6.554126">
        <ele>42.739569</ele>
        <time>2026-05-07T16:02:36.998Z</time>
      </trkpt>
      <trkpt lat="53.239895" lon="6.554148">
        <ele>42.712639</ele>
        <time>2026-05-07T16:02:40.005Z</time>
      </trkpt>
      <trkpt lat="53.239811" lon="6.554234">
        <ele>42.686703</ele>
        <time>2026-05-07T16:02:43.994Z</time>
      </trkpt>
      <trkpt lat="53.239946" lon="6.554174">
        <ele>42.676295</ele>
        <time>2026-05-07T16:04:49.007Z</time>
      </trkpt>
      <trkpt lat="53.240053" lon="6.554147">
        <ele>42.668232</ele>
        <time>2026-05-07T16:04:51.992Z</time>
      </trkpt>
      <trkpt lat="53.240173" lon="6.554102">
        <ele>42.659068</ele>
        <time>2026-05-07T16:04:54.995Z</time>
      </trkpt>
      <trkpt lat="53.240259" lon="6.554045">
        <ele>42.652175</ele>
        <time>2026-05-07T16:04:56.994Z</time>
      </trkpt>
      <trkpt lat="53.240342" lon="6.553988">
        <ele>42.645489</ele>
        <time>2026-05-07T16:04:59.001Z</time>
      </trkpt>
      <trkpt lat="53.240432" lon="6.553913">
        <ele>42.637995</ele>
        <time>2026-05-07T16:05:00.994Z</time>
      </trkpt>
      <trkpt lat="53.240519" lon="6.553865">
        <ele>42.631169</ele>
        <time>2026-05-07T16:05:02.992Z</time>
      </trkpt>
      <trkpt lat="53.240610" lon="6.553801">
        <ele>42.623812</ele>
        <time>2026-05-07T16:05:05.006Z</time>
      </trkpt>
      <trkpt lat="53.240580" lon="6.553977">
        <ele>42.615652</ele>
        <time>2026-05-07T16:05:18.993Z</time>
      </trkpt>
      <trkpt lat="53.240644" lon="6.554121">
        <ele>42.607654</ele>
        <time>2026-05-07T16:05:22.994Z</time>
      </trkpt>
      <trkpt lat="53.240694" lon="6.554261">
        <ele>42.600384</ele>
        <time>2026-05-07T16:05:26.990Z</time>
      </trkpt>
      <trkpt lat="53.240745" lon="6.554422">
        <ele>42.592261</ele>
        <time>2026-05-07T16:05:30.992Z</time>
      </trkpt>
      <trkpt lat="53.240811" lon="6.554586">
        <ele>42.583449</ele>
        <time>2026-05-07T16:05:34.996Z</time>
      </trkpt>
      <trkpt lat="53.240872" lon="6.554735">
        <ele>42.575399</ele>
        <time>2026-05-07T16:05:38.998Z</time>
      </trkpt>
      <trkpt lat="53.240824" lon="6.554602">
        <ele>42.568473</ele>
        <time>2026-05-07T16:05:53.995Z</time>
      </trkpt>
      <trkpt lat="53.240763" lon="6.554438">
        <ele>42.559863</ele>
        <time>2026-05-07T16:05:57.995Z</time>
      </trkpt>
      <trkpt lat="53.240713" lon="6.554279">
        <ele>42.567531</ele>
        <time>2026-05-07T16:06:01.994Z</time>
      </trkpt>
      <trkpt lat="53.240656" lon="6.554117">
        <ele>42.639052</ele>
        <time>2026-05-07T16:06:05.994Z</time>
      </trkpt>
      <trkpt lat="53.240606" lon="6.553977">
        <ele>42.701101</ele>
        <time>2026-05-07T16:06:08.995Z</time>
      </trkpt>
      <trkpt lat="53.240557" lon="6.553849">
        <ele>42.758930</ele>
        <time>2026-05-07T16:06:12.000Z</time>
      </trkpt>
      <trkpt lat="53.240634" lon="6.553740">
        <ele>42.823107</ele>
        <time>2026-05-07T16:06:15.993Z</time>
      </trkpt>
      <trkpt lat="53.240746" lon="6.553657">
        <ele>42.901023</ele>
        <time>2026-05-07T16:06:18.992Z</time>
      </trkpt>
      <trkpt lat="53.240831" lon="6.553583">
        <ele>42.961975</ele>
        <time>2026-05-07T16:06:20.991Z</time>
      </trkpt>
      <trkpt lat="53.240916" lon="6.553512">
        <ele>43.022408</ele>
        <time>2026-05-07T16:06:22.989Z</time>
      </trkpt>
      <trkpt lat="53.240996" lon="6.553427">
        <ele>43.082697</ele>
        <time>2026-05-07T16:06:24.999Z</time>
      </trkpt>
      <trkpt lat="53.241084" lon="6.553333">
        <ele>43.149117</ele>
        <time>2026-05-07T16:06:26.992Z</time>
      </trkpt>
      <trkpt lat="53.241167" lon="6.553243">
        <ele>43.212040</ele>
        <time>2026-05-07T16:06:28.996Z</time>
      </trkpt>
      <trkpt lat="53.241244" lon="6.553154">
        <ele>43.271581</ele>
        <time>2026-05-07T16:06:30.999Z</time>
      </trkpt>
      <trkpt lat="53.241324" lon="6.553043">
        <ele>43.337709</ele>
        <time>2026-05-07T16:06:32.998Z</time>
      </trkpt>
      <trkpt lat="53.241395" lon="6.552945">
        <ele>43.396273</ele>
        <time>2026-05-07T16:06:34.992Z</time>
      </trkpt>
      <trkpt lat="53.241504" lon="6.552810">
        <ele>43.482555</ele>
        <time>2026-05-07T16:06:38.002Z</time>
      </trkpt>
      <trkpt lat="53.241580" lon="6.552710">
        <ele>43.544072</ele>
        <time>2026-05-07T16:06:39.998Z</time>
      </trkpt>
      <trkpt lat="53.241654" lon="6.552603">
        <ele>43.606305</ele>
        <time>2026-05-07T16:06:41.998Z</time>
      </trkpt>
      <trkpt lat="53.241721" lon="6.552492">
        <ele>43.666305</ele>
        <time>2026-05-07T16:06:43.995Z</time>
      </trkpt>
      <trkpt lat="53.241810" lon="6.552323">
        <ele>43.617594</ele>
        <time>2026-05-07T16:06:46.998Z</time>
      </trkpt>
      <trkpt lat="53.241895" lon="6.552147">
        <ele>43.491995</ele>
        <time>2026-05-07T16:06:49.994Z</time>
      </trkpt>
      <trkpt lat="53.241980" lon="6.551973">
        <ele>43.367259</ele>
        <time>2026-05-07T16:06:52.995Z</time>
      </trkpt>
      <trkpt lat="53.242042" lon="6.551853">
        <ele>43.279217</ele>
        <time>2026-05-07T16:06:54.995Z</time>
      </trkpt>
      <trkpt lat="53.242133" lon="6.551687">
        <ele>43.154199</ele>
        <time>2026-05-07T16:06:57.992Z</time>
      </trkpt>
      <trkpt lat="53.242197" lon="6.551573">
        <ele>43.067393</ele>
        <time>2026-05-07T16:06:59.994Z</time>
      </trkpt>
      <trkpt lat="53.242266" lon="6.551471">
        <ele>42.981902</ele>
        <time>2026-05-07T16:07:01.989Z</time>
      </trkpt>
      <trkpt lat="53.242359" lon="6.551357">
        <ele>42.874869</ele>
        <time>2026-05-07T16:07:04.994Z</time>
      </trkpt>
      <trkpt lat="53.242487" lon="6.551207">
        <ele>42.729789</ele>
        <time>2026-05-07T16:08:21.998Z</time>
      </trkpt>
      <trkpt lat="53.242594" lon="6.551095">
        <ele>42.612622</ele>
        <time>2026-05-07T16:08:25.003Z</time>
      </trkpt>
      <trkpt lat="53.242702" lon="6.550986">
        <ele>42.495539</ele>
        <time>2026-05-07T16:08:27.996Z</time>
      </trkpt>
      <trkpt lat="53.242820" lon="6.550880">
        <ele>42.371217</ele>
        <time>2026-05-07T16:08:30.999Z</time>
      </trkpt>
      <trkpt lat="53.242911" lon="6.550809">
        <ele>42.278019</ele>
        <time>2026-05-07T16:08:32.995Z</time>
      </trkpt>
      <trkpt lat="53.243034" lon="6.550739">
        <ele>42.157438</ele>
        <time>2026-05-07T16:08:35.992Z</time>
      </trkpt>
      <trkpt lat="53.243142" lon="6.550698">
        <ele>42.054662</ele>
        <time>2026-05-07T16:08:38.997Z</time>
      </trkpt>
      <trkpt lat="53.243260" lon="6.550664">
        <ele>42.066752</ele>
        <time>2026-05-07T16:08:41.995Z</time>
      </trkpt>
      <trkpt lat="53.243387" lon="6.550634">
        <ele>42.120924</ele>
        <time>2026-05-07T16:08:45.002Z</time>
      </trkpt>
      <trkpt lat="53.243505" lon="6.550611">
        <ele>42.171100</ele>
        <time>2026-05-07T16:08:48.003Z</time>
      </trkpt>
      <trkpt lat="53.243641" lon="6.550610">
        <ele>42.228541</ele>
        <time>2026-05-07T16:08:51.001Z</time>
      </trkpt>
      <trkpt lat="53.243734" lon="6.550589">
        <ele>42.268176</ele>
        <time>2026-05-07T16:08:53.001Z</time>
      </trkpt>
      <trkpt lat="53.243865" lon="6.550561">
        <ele>42.323956</ele>
        <time>2026-05-07T16:08:55.996Z</time>
      </trkpt>
      <trkpt lat="53.243990" lon="6.550535">
        <ele>42.377157</ele>
        <time>2026-05-07T16:08:59.000Z</time>
      </trkpt>
      <trkpt lat="53.244057" lon="6.550650">
        <ele>42.417723</ele>
        <time>2026-05-07T16:09:03.000Z</time>
      </trkpt>
      <trkpt lat="53.244015" lon="6.550803">
        <ele>42.460266</ele>
        <time>2026-05-07T16:09:05.995Z</time>
      </trkpt>
      <trkpt lat="53.243950" lon="6.550976">
        <ele>42.511895</ele>
        <time>2026-05-07T16:09:08.996Z</time>
      </trkpt>
      <trkpt lat="53.243892" lon="6.551143">
        <ele>42.560696</ele>
        <time>2026-05-07T16:09:11.998Z</time>
      </trkpt>
      <trkpt lat="53.243837" lon="6.551335">
        <ele>42.614496</ele>
        <time>2026-05-07T16:09:14.997Z</time>
      </trkpt>
      <trkpt lat="53.243780" lon="6.551525">
        <ele>42.668213</ele>
        <time>2026-05-07T16:09:17.996Z</time>
      </trkpt>
      <trkpt lat="53.243727" lon="6.551709">
        <ele>42.719825</ele>
        <time>2026-05-07T16:09:20.996Z</time>
      </trkpt>
      <trkpt lat="53.243655" lon="6.551898">
        <ele>42.776451</ele>
        <time>2026-05-07T16:09:23.995Z</time>
      </trkpt>
      <trkpt lat="53.243600" lon="6.552099">
        <ele>42.829399</ele>
        <time>2026-05-07T16:09:26.989Z</time>
      </trkpt>
      <trkpt lat="53.243540" lon="6.552279">
        <ele>42.878062</ele>
        <time>2026-05-07T16:09:29.994Z</time>
      </trkpt>
      <trkpt lat="53.243475" lon="6.552476">
        <ele>42.931192</ele>
        <time>2026-05-07T16:09:32.994Z</time>
      </trkpt>
      <trkpt lat="53.243428" lon="6.552687">
        <ele>42.984366</ele>
        <time>2026-05-07T16:09:36.009Z</time>
      </trkpt>
      <trkpt lat="53.243375" lon="6.552854">
        <ele>43.029012</ele>
        <time>2026-05-07T16:09:37.997Z</time>
      </trkpt>
      <trkpt lat="53.243334" lon="6.552989">
        <ele>43.064767</ele>
        <time>2026-05-07T16:09:40.005Z</time>
      </trkpt>
      <trkpt lat="53.243285" lon="6.553117">
        <ele>43.100654</ele>
        <time>2026-05-07T16:09:41.996Z</time>
      </trkpt>
      <trkpt lat="53.243244" lon="6.553263">
        <ele>43.138744</ele>
        <time>2026-05-07T16:09:43.995Z</time>
      </trkpt>
      <trkpt lat="53.243183" lon="6.553488">
        <ele>43.197084</ele>
        <time>2026-05-07T16:09:46.992Z</time>
      </trkpt>
      <trkpt lat="53.243137" lon="6.553621">
        <ele>43.233365</ele>
        <time>2026-05-07T16:09:48.995Z</time>
      </trkpt>
      <trkpt lat="53.243073" lon="6.553847">
        <ele>43.292416</ele>
        <time>2026-05-07T16:09:51.994Z</time>
      </trkpt>
      <trkpt lat="53.243028" lon="6.553984">
        <ele>43.329327</ele>
        <time>2026-05-07T16:09:53.994Z</time>
      </trkpt>
      <trkpt lat="53.242972" lon="6.554188">
        <ele>43.382335</ele>
        <time>2026-05-07T16:09:57.000Z</time>
      </trkpt>
      <trkpt lat="53.242911" lon="6.554400">
        <ele>43.437893</ele>
        <time>2026-05-07T16:10:00.000Z</time>
      </trkpt>
      <trkpt lat="53.242865" lon="6.554533">
        <ele>43.474174</ele>
        <time>2026-05-07T16:10:01.999Z</time>
      </trkpt>
      <trkpt lat="53.242825" lon="6.554675">
        <ele>43.525662</ele>
        <time>2026-05-07T16:10:03.998Z</time>
      </trkpt>
      <trkpt lat="53.242776" lon="6.554812">
        <ele>43.603663</ele>
        <time>2026-05-07T16:10:05.994Z</time>
      </trkpt>
      <trkpt lat="53.242724" lon="6.555003">
        <ele>43.706212</ele>
        <time>2026-05-07T16:10:08.993Z</time>
      </trkpt>
      <trkpt lat="53.242680" lon="6.555145">
        <ele>43.784360</ele>
        <time>2026-05-07T16:10:10.999Z</time>
      </trkpt>
      <trkpt lat="53.242623" lon="6.555299">
        <ele>43.872854</ele>
        <time>2026-05-07T16:10:12.998Z</time>
      </trkpt>
      <trkpt lat="53.242583" lon="6.555446">
        <ele>43.951773</ele>
        <time>2026-05-07T16:10:14.989Z</time>
      </trkpt>
      <trkpt lat="53.242540" lon="6.555587">
        <ele>44.029114</ele>
        <time>2026-05-07T16:10:16.997Z</time>
      </trkpt>
      <trkpt lat="53.242497" lon="6.555739">
        <ele>44.111280</ele>
        <time>2026-05-07T16:10:18.993Z</time>
      </trkpt>
      <trkpt lat="53.242438" lon="6.555949">
        <ele>44.224658</ele>
        <time>2026-05-07T16:10:21.993Z</time>
      </trkpt>
      <trkpt lat="53.242394" lon="6.556098">
        <ele>44.305859</ele>
        <time>2026-05-07T16:10:23.994Z</time>
      </trkpt>
      <trkpt lat="53.242340" lon="6.556250">
        <ele>44.392248</ele>
        <time>2026-05-07T16:10:25.998Z</time>
      </trkpt>
      <trkpt lat="53.242292" lon="6.556402">
        <ele>44.476241</ele>
        <time>2026-05-07T16:10:27.995Z</time>
      </trkpt>
      <trkpt lat="53.242255" lon="6.556550">
        <ele>44.554629</ele>
        <time>2026-05-07T16:10:29.990Z</time>
      </trkpt>
      <trkpt lat="53.242207" lon="6.556679">
        <ele>44.628867</ele>
        <time>2026-05-07T16:10:31.989Z</time>
      </trkpt>
      <trkpt lat="53.242136" lon="6.556871">
        <ele>44.739170</ele>
        <time>2026-05-07T16:10:34.990Z</time>
      </trkpt>
      <trkpt lat="53.242099" lon="6.557075">
        <ele>44.843346</ele>
        <time>2026-05-07T16:10:37.998Z</time>
      </trkpt>
      <trkpt lat="53.242041" lon="6.557285">
        <ele>44.956380</ele>
        <time>2026-05-07T16:10:41.009Z</time>
      </trkpt>
      <trkpt lat="53.241991" lon="6.557434">
        <ele>44.916012</ele>
        <time>2026-05-07T16:10:42.990Z</time>
      </trkpt>
      <trkpt lat="53.241932" lon="6.557582">
        <ele>44.855936</ele>
        <time>2026-05-07T16:10:44.994Z</time>
      </trkpt>
      <trkpt lat="53.241883" lon="6.557738">
        <ele>44.796417</ele>
        <time>2026-05-07T16:10:47.000Z</time>
      </trkpt>
      <trkpt lat="53.241839" lon="6.557877">
        <ele>44.743295</ele>
        <time>2026-05-07T16:10:48.992Z</time>
      </trkpt>
      <trkpt lat="53.241794" lon="6.558038">
        <ele>44.683265</ele>
        <time>2026-05-07T16:10:50.992Z</time>
      </trkpt>
      <trkpt lat="53.241751" lon="6.558190">
        <ele>44.626467</ele>
        <time>2026-05-07T16:10:52.996Z</time>
      </trkpt>
      <trkpt lat="53.241703" lon="6.558337">
        <ele>44.569894</ele>
        <time>2026-05-07T16:10:55.000Z</time>
      </trkpt>
      <trkpt lat="53.241657" lon="6.558487">
        <ele>44.512954</ele>
        <time>2026-05-07T16:10:56.999Z</time>
      </trkpt>
      <trkpt lat="53.241614" lon="6.558643">
        <ele>44.454931</ele>
        <time>2026-05-07T16:10:59.002Z</time>
      </trkpt>
      <trkpt lat="53.241565" lon="6.558775">
        <ele>44.402456</ele>
        <time>2026-05-07T16:11:00.992Z</time>
      </trkpt>
      <trkpt lat="53.241482" lon="6.558857">
        <ele>44.348025</ele>
        <time>2026-05-07T16:11:02.995Z</time>
      </trkpt>
      <trkpt lat="53.241344" lon="6.558930">
        <ele>44.266311</ele>
        <time>2026-05-07T16:11:05.994Z</time>
      </trkpt>
      <trkpt lat="53.241251" lon="6.558968">
        <ele>44.212265</ele>
        <time>2026-05-07T16:11:07.993Z</time>
      </trkpt>
      <trkpt lat="53.241155" lon="6.559013">
        <ele>44.155980</ele>
        <time>2026-05-07T16:11:09.988Z</time>
      </trkpt>
      <trkpt lat="53.241054" lon="6.559053">
        <ele>44.097385</ele>
        <time>2026-05-07T16:11:11.989Z</time>
      </trkpt>
      <trkpt lat="53.240966" lon="6.559096">
        <ele>44.045627</ele>
        <time>2026-05-07T16:11:14.004Z</time>
      </trkpt>
      <trkpt lat="53.240867" lon="6.559139">
        <ele>43.987883</ele>
        <time>2026-05-07T16:11:15.998Z</time>
      </trkpt>
      <trkpt lat="53.240765" lon="6.559188">
        <ele>44.007302</ele>
        <time>2026-05-07T16:11:18.001Z</time>
      </trkpt>
      <trkpt lat="53.240674" lon="6.559231">
        <ele>44.135633</ele>
        <time>2026-05-07T16:11:20.003Z</time>
      </trkpt>
      <trkpt lat="53.240574" lon="6.559276">
        <ele>44.276169</ele>
        <time>2026-05-07T16:11:21.992Z</time>
      </trkpt>
      <trkpt lat="53.240475" lon="6.559321">
        <ele>44.415396</ele>
        <time>2026-05-07T16:11:23.995Z</time>
      </trkpt>
      <trkpt lat="53.240361" lon="6.559386">
        <ele>44.578854</ele>
        <time>2026-05-07T16:11:26.994Z</time>
      </trkpt>
      <trkpt lat="53.240266" lon="6.559433">
        <ele>44.713302</ele>
        <time>2026-05-07T16:11:28.994Z</time>
      </trkpt>
      <trkpt lat="53.240150" lon="6.559493">
        <ele>44.878085</ele>
        <time>2026-05-07T16:11:31.996Z</time>
      </trkpt>
      <trkpt lat="53.240040" lon="6.559535">
        <ele>45.031204</ele>
        <time>2026-05-07T16:11:35.000Z</time>
      </trkpt>
      <trkpt lat="53.239931" lon="6.559573">
        <ele>45.182304</ele>
        <time>2026-05-07T16:11:37.995Z</time>
      </trkpt>
      <trkpt lat="53.239810" lon="6.559645">
        <ele>45.356604</ele>
        <time>2026-05-07T16:11:40.995Z</time>
      </trkpt>
      <trkpt lat="53.239720" lon="6.559694">
        <ele>45.485055</ele>
        <time>2026-05-07T16:11:42.993Z</time>
      </trkpt>
      <trkpt lat="53.239632" lon="6.559748">
        <ele>45.612270</ele>
        <time>2026-05-07T16:11:44.995Z</time>
      </trkpt>
      <trkpt lat="53.239541" lon="6.559796">
        <ele>45.741766</ele>
        <time>2026-05-07T16:11:46.992Z</time>
      </trkpt>
      <trkpt lat="53.239445" lon="6.559839">
        <ele>45.876639</ele>
        <time>2026-05-07T16:11:49.004Z</time>
      </trkpt>
      <trkpt lat="53.239355" lon="6.559875">
        <ele>46.002221</ele>
        <time>2026-05-07T16:11:50.993Z</time>
      </trkpt>
      <trkpt lat="53.239269" lon="6.559918">
        <ele>46.124037</ele>
        <time>2026-05-07T16:11:53.001Z</time>
      </trkpt>
      <trkpt lat="53.239168" lon="6.560052">
        <ele>46.299047</ele>
        <time>2026-05-07T16:11:55.998Z</time>
      </trkpt>
      <trkpt lat="53.239127" lon="6.560194">
        <ele>46.470305</ele>
        <time>2026-05-07T16:11:57.994Z</time>
      </trkpt>
      <trkpt lat="53.239105" lon="6.560352">
        <ele>46.764593</ele>
        <time>2026-05-07T16:11:59.993Z</time>
      </trkpt>
      <trkpt lat="53.239080" lon="6.560513">
        <ele>47.066338</ele>
        <time>2026-05-07T16:12:01.998Z</time>
      </trkpt>
      <trkpt lat="53.239060" lon="6.560662">
        <ele>47.343359</ele>
        <time>2026-05-07T16:12:03.986Z</time>
      </trkpt>
      <trkpt lat="53.239021" lon="6.560862">
        <ele>47.724959</ele>
        <time>2026-05-07T16:12:06.995Z</time>
      </trkpt>
      <trkpt lat="53.238982" lon="6.561037">
        <ele>48.063728</ele>
        <time>2026-05-07T16:12:09.994Z</time>
      </trkpt>
      <trkpt lat="53.238939" lon="6.561242">
        <ele>48.457806</ele>
        <time>2026-05-07T16:12:12.995Z</time>
      </trkpt>
      <trkpt lat="53.238898" lon="6.561441">
        <ele>48.839613</ele>
        <time>2026-05-07T16:12:15.990Z</time>
      </trkpt>
      <trkpt lat="53.238857" lon="6.561575">
        <ele>49.112634</ele>
        <time>2026-05-07T16:12:17.994Z</time>
      </trkpt>
      <trkpt lat="53.238825" lon="6.561725">
        <ele>49.401527</ele>
        <time>2026-05-07T16:12:19.990Z</time>
      </trkpt>
      <trkpt lat="53.238794" lon="6.561888">
        <ele>49.711803</ele>
        <time>2026-05-07T16:12:22.002Z</time>
      </trkpt>
      <trkpt lat="53.238753" lon="6.562096">
        <ele>50.109085</ele>
        <time>2026-05-07T16:12:24.995Z</time>
      </trkpt>
      <trkpt lat="53.238720" lon="6.562299">
        <ele>50.490699</ele>
        <time>2026-05-07T16:12:28.001Z</time>
      </trkpt>
      <trkpt lat="53.238679" lon="6.562496">
        <ele>50.869079</ele>
        <time>2026-05-07T16:12:30.995Z</time>
      </trkpt>
      <trkpt lat="53.238650" lon="6.562651">
        <ele>51.163692</ele>
        <time>2026-05-07T16:12:32.995Z</time>
      </trkpt>
      <trkpt lat="53.238625" lon="6.562805">
        <ele>51.453166</ele>
        <time>2026-05-07T16:12:34.993Z</time>
      </trkpt>
      <trkpt lat="53.238595" lon="6.562954">
        <ele>51.738361</ele>
        <time>2026-05-07T16:12:36.991Z</time>
      </trkpt>
      <trkpt lat="53.238566" lon="6.563112">
        <ele>51.624723</ele>
        <time>2026-05-07T16:12:39.001Z</time>
      </trkpt>
      <trkpt lat="53.238532" lon="6.563319">
        <ele>51.184162</ele>
        <time>2026-05-07T16:12:41.994Z</time>
      </trkpt>
      <trkpt lat="53.238507" lon="6.563551">
        <ele>50.700343</ele>
        <time>2026-05-07T16:12:44.996Z</time>
      </trkpt>
      <trkpt lat="53.238487" lon="6.563702">
        <ele>50.382929</ele>
        <time>2026-05-07T16:12:46.996Z</time>
      </trkpt>
      <trkpt lat="53.238446" lon="6.563858">
        <ele>50.033238</ele>
        <time>2026-05-07T16:12:49.000Z</time>
      </trkpt>
      <trkpt lat="53.238399" lon="6.564006">
        <ele>49.689365</ele>
        <time>2026-05-07T16:12:50.995Z</time>
      </trkpt>
      <trkpt lat="53.238360" lon="6.564158">
        <ele>49.349935</ele>
        <time>2026-05-07T16:12:52.999Z</time>
      </trkpt>
      <trkpt lat="53.238338" lon="6.564313">
        <ele>49.022984</ele>
        <time>2026-05-07T16:12:54.994Z</time>
      </trkpt>
      <trkpt lat="53.238310" lon="6.564533">
        <ele>48.561352</ele>
        <time>2026-05-07T16:12:57.998Z</time>
      </trkpt>
      <trkpt lat="53.238292" lon="6.564682">
        <ele>48.249372</ele>
        <time>2026-05-07T16:12:59.993Z</time>
      </trkpt>
      <trkpt lat="53.238290" lon="6.564849">
        <ele>47.906547</ele>
        <time>2026-05-07T16:13:01.997Z</time>
      </trkpt>
      <trkpt lat="53.238270" lon="6.565010">
        <ele>47.569062</ele>
        <time>2026-05-07T16:13:03.996Z</time>
      </trkpt>
      <trkpt lat="53.238243" lon="6.565165">
        <ele>47.237734</ele>
        <time>2026-05-07T16:13:05.998Z</time>
      </trkpt>
      <trkpt lat="53.238214" lon="6.565316">
        <ele>46.912250</ele>
        <time>2026-05-07T16:13:08.012Z</time>
      </trkpt>
      <trkpt lat="53.238174" lon="6.565459">
        <ele>46.588277</ele>
        <time>2026-05-07T16:13:09.995Z</time>
      </trkpt>
      <trkpt lat="53.238128" lon="6.565600">
        <ele>46.258680</ele>
        <time>2026-05-07T16:13:11.994Z</time>
      </trkpt>
      <trkpt lat="53.238074" lon="6.565734">
        <ele>45.927118</ele>
        <time>2026-05-07T16:13:13.995Z</time>
      </trkpt>
      <trkpt lat="53.238011" lon="6.565860">
        <ele>45.670783</ele>
        <time>2026-05-07T16:13:15.994Z</time>
      </trkpt>
      <trkpt lat="53.237937" lon="6.565985">
        <ele>45.648904</ele>
        <time>2026-05-07T16:13:17.996Z</time>
      </trkpt>
      <trkpt lat="53.237868" lon="6.566081">
        <ele>45.630234</ele>
        <time>2026-05-07T16:13:19.996Z</time>
      </trkpt>
      <trkpt lat="53.237784" lon="6.566174">
        <ele>45.609283</ele>
        <time>2026-05-07T16:13:21.991Z</time>
      </trkpt>
      <trkpt lat="53.237709" lon="6.566272">
        <ele>45.589486</ele>
        <time>2026-05-07T16:13:23.995Z</time>
      </trkpt>
      <trkpt lat="53.237626" lon="6.566389">
        <ele>45.566907</ele>
        <time>2026-05-07T16:13:25.992Z</time>
      </trkpt>
      <trkpt lat="53.237535" lon="6.566493">
        <ele>45.543984</ele>
        <time>2026-05-07T16:13:27.992Z</time>
      </trkpt>
      <trkpt lat="53.237456" lon="6.566601">
        <ele>45.522760</ele>
        <time>2026-05-07T16:13:30.000Z</time>
      </trkpt>
      <trkpt lat="53.237374" lon="6.566696">
        <ele>45.502013</ele>
        <time>2026-05-07T16:13:31.992Z</time>
      </trkpt>
      <trkpt lat="53.237214" lon="6.566892">
        <ele>45.460762</ele>
        <time>2026-05-07T16:13:35.992Z</time>
      </trkpt>
      <trkpt lat="53.237114" lon="6.567040">
        <ele>45.432986</ele>
        <time>2026-05-07T16:13:38.992Z</time>
      </trkpt>
      <trkpt lat="53.237004" lon="6.566998">
        <ele>45.409525</ele>
        <time>2026-05-07T16:13:41.991Z</time>
      </trkpt>
      <trkpt lat="53.236953" lon="6.567130">
        <ele>45.389973</ele>
        <time>2026-05-07T16:13:46.996Z</time>
      </trkpt>
      <trkpt lat="53.236855" lon="6.567124">
        <ele>45.369583</ele>
        <time>2026-05-07T16:13:50.008Z</time>
      </trkpt>
      <trkpt lat="53.236772" lon="6.567060">
        <ele>45.350576</ele>
        <time>2026-05-07T16:13:51.996Z</time>
      </trkpt>
      <trkpt lat="53.236685" lon="6.567011">
        <ele>45.331487</ele>
        <time>2026-05-07T16:13:53.996Z</time>
      </trkpt>
      <trkpt lat="53.236554" lon="6.566955">
        <ele>45.303372</ele>
        <time>2026-05-07T16:13:56.999Z</time>
      </trkpt>
      <trkpt lat="53.236443" lon="6.566902">
        <ele>45.445364</ele>
        <time>2026-05-07T16:13:59.989Z</time>
      </trkpt>
      <trkpt lat="53.236326" lon="6.566828">
        <ele>45.610057</ele>
        <time>2026-05-07T16:14:02.992Z</time>
      </trkpt>
      <trkpt lat="53.236247" lon="6.566755">
        <ele>45.728904</ele>
        <time>2026-05-07T16:14:04.996Z</time>
      </trkpt>
      <trkpt lat="53.236155" lon="6.566596">
        <ele>45.903157</ele>
        <time>2026-05-07T16:14:08.004Z</time>
      </trkpt>
      <trkpt lat="53.236065" lon="6.566450">
        <ele>46.068298</ele>
        <time>2026-05-07T16:14:10.992Z</time>
      </trkpt>
      <trkpt lat="53.236015" lon="6.566255">
        <ele>46.235451</ele>
        <time>2026-05-07T16:14:13.991Z</time>
      </trkpt>
      <trkpt lat="53.236072" lon="6.566067">
        <ele>46.401504</ele>
        <time>2026-05-07T16:14:16.995Z</time>
      </trkpt>
      <trkpt lat="53.236171" lon="6.565967">
        <ele>46.553801</ele>
        <time>2026-05-07T16:14:19.994Z</time>
      </trkpt>
      <trkpt lat="53.236280" lon="6.566050">
        <ele>46.711496</ele>
        <time>2026-05-07T16:14:22.993Z</time>
      </trkpt>
      <trkpt lat="53.236392" lon="6.566133">
        <ele>46.872793</ele>
        <time>2026-05-07T16:14:25.994Z</time>
      </trkpt>
      <trkpt lat="53.236502" lon="6.566210">
        <ele>47.029800</ele>
        <time>2026-05-07T16:14:29.001Z</time>
      </trkpt>
      <trkpt lat="53.236616" lon="6.566284">
        <ele>47.190805</ele>
        <time>2026-05-07T16:14:31.992Z</time>
      </trkpt>
      <trkpt lat="53.236725" lon="6.566367">
        <ele>47.348500</ele>
        <time>2026-05-07T16:14:34.999Z</time>
      </trkpt>
      <trkpt lat="53.236835" lon="6.566442">
        <ele>47.504904</ele>
        <time>2026-05-07T16:14:37.993Z</time>
      </trkpt>
      <trkpt lat="53.236947" lon="6.566527">
        <ele>47.666846</ele>
        <time>2026-05-07T16:14:40.999Z</time>
      </trkpt>
      <trkpt lat="53.237059" lon="6.566619">
        <ele>48.009659</ele>
        <time>2026-05-07T16:14:43.998Z</time>
      </trkpt>
      <trkpt lat="53.237176" lon="6.566708">
        <ele>48.366217</ele>
        <time>2026-05-07T16:14:46.991Z</time>
      </trkpt>
      <trkpt lat="53.237290" lon="6.566785">
        <ele>48.707264</ele>
        <time>2026-05-07T16:14:49.997Z</time>
      </trkpt>
      <trkpt lat="53.237398" lon="6.566865">
        <ele>49.034928</ele>
        <time>2026-05-07T16:14:52.998Z</time>
      </trkpt>
      <trkpt lat="53.237507" lon="6.566952">
        <ele>49.369972</ele>
        <time>2026-05-07T16:14:55.996Z</time>
      </trkpt>
      <trkpt lat="53.237616" lon="6.567028">
        <ele>49.697560</ele>
        <time>2026-05-07T16:14:58.993Z</time>
      </trkpt>
      <trkpt lat="53.237726" lon="6.567103">
        <ele>50.027078</ele>
        <time>2026-05-07T16:15:01.994Z</time>
      </trkpt>
      <trkpt lat="53.237834" lon="6.567175">
        <ele>50.349589</ele>
        <time>2026-05-07T16:15:04.996Z</time>
      </trkpt>
      <trkpt lat="53.237939" lon="6.567244">
        <ele>50.662529</ele>
        <time>2026-05-07T16:15:07.994Z</time>
      </trkpt>
      <trkpt lat="53.238045" lon="6.567334">
        <ele>50.992310</ele>
        <time>2026-05-07T16:15:10.993Z</time>
      </trkpt>
      <trkpt lat="53.238157" lon="6.567417">
        <ele>51.332134</ele>
        <time>2026-05-07T16:15:13.994Z</time>
      </trkpt>
      <trkpt lat="53.238268" lon="6.567499">
        <ele>51.668750</ele>
        <time>2026-05-07T16:15:16.993Z</time>
      </trkpt>
      <trkpt lat="53.238379" lon="6.567581">
        <ele>52.005366</ele>
        <time>2026-05-07T16:15:19.994Z</time>
      </trkpt>
      <trkpt lat="53.238485" lon="6.567655">
        <ele>52.323995</ele>
        <time>2026-05-07T16:15:22.994Z</time>
      </trkpt>
      <trkpt lat="53.238590" lon="6.567718">
        <ele>52.633428</ele>
        <time>2026-05-07T16:15:26.000Z</time>
      </trkpt>
      <trkpt lat="53.238704" lon="6.567769">
        <ele>52.632747</ele>
        <time>2026-05-07T16:15:28.993Z</time>
      </trkpt>
      <trkpt lat="53.238822" lon="6.567817">
        <ele>52.603988</ele>
        <time>2026-05-07T16:15:31.999Z</time>
      </trkpt>
      <trkpt lat="53.238944" lon="6.567879">
        <ele>52.573791</ele>
        <time>2026-05-07T16:15:34.993Z</time>
      </trkpt>
      <trkpt lat="53.239070" lon="6.567944">
        <ele>52.542564</ele>
        <time>2026-05-07T16:15:37.993Z</time>
      </trkpt>
      <trkpt lat="53.239193" lon="6.568016">
        <ele>52.511701</ele>
        <time>2026-05-07T16:15:40.994Z</time>
      </trkpt>
      <trkpt lat="53.239322" lon="6.568086">
        <ele>52.479582</ele>
        <time>2026-05-07T16:15:43.992Z</time>
      </trkpt>
      <trkpt lat="53.239413" lon="6.568136">
        <ele>52.456898</ele>
        <time>2026-05-07T16:15:45.997Z</time>
      </trkpt>
      <trkpt lat="53.239502" lon="6.568191">
        <ele>52.434427</ele>
        <time>2026-05-07T16:15:47.996Z</time>
      </trkpt>
      <trkpt lat="53.239592" lon="6.568242">
        <ele>52.411922</ele>
        <time>2026-05-07T16:15:49.995Z</time>
      </trkpt>
      <trkpt lat="53.239682" lon="6.568291">
        <ele>52.389507</ele>
        <time>2026-05-07T16:15:51.999Z</time>
      </trkpt>
      <trkpt lat="53.239777" lon="6.568342">
        <ele>52.365878</ele>
        <time>2026-05-07T16:15:53.997Z</time>
      </trkpt>
      <trkpt lat="53.239870" lon="6.568384">
        <ele>52.343065</ele>
        <time>2026-05-07T16:15:55.996Z</time>
      </trkpt>
      <trkpt lat="53.239965" lon="6.568427">
        <ele>52.319758</ele>
        <time>2026-05-07T16:15:57.999Z</time>
      </trkpt>
      <trkpt lat="53.240055" lon="6.568477">
        <ele>52.297298</ele>
        <time>2026-05-07T16:15:59.996Z</time>
      </trkpt>
      <trkpt lat="53.240180" lon="6.568560">
        <ele>52.265446</ele>
        <time>2026-05-07T16:16:02.991Z</time>
      </trkpt>
      <trkpt lat="53.240268" lon="6.568615">
        <ele>52.243197</ele>
        <time>2026-05-07T16:16:04.996Z</time>
      </trkpt>
      <trkpt lat="53.240366" lon="6.568661">
        <ele>52.086092</ele>
        <time>2026-05-07T16:16:07.003Z</time>
      </trkpt>
      <trkpt lat="53.240459" lon="6.568717">
        <ele>51.832546</ele>
        <time>2026-05-07T16:16:08.995Z</time>
      </trkpt>
      <trkpt lat="53.240554" lon="6.568779">
        <ele>51.570960</ele>
        <time>2026-05-07T16:16:10.996Z</time>
      </trkpt>
      <trkpt lat="53.240652" lon="6.568842">
        <ele>51.301645</ele>
        <time>2026-05-07T16:16:12.996Z</time>
      </trkpt>
      <trkpt lat="53.240751" lon="6.568907">
        <ele>51.028828</ele>
        <time>2026-05-07T16:16:14.994Z</time>
      </trkpt>
      <trkpt lat="53.240847" lon="6.568972">
        <ele>50.763157</ele>
        <time>2026-05-07T16:16:16.994Z</time>
      </trkpt>
      <trkpt lat="53.240953" lon="6.569042">
        <ele>50.470822</ele>
        <time>2026-05-07T16:16:18.992Z</time>
      </trkpt>
      <trkpt lat="53.241046" lon="6.569111">
        <ele>50.209835</ele>
        <time>2026-05-07T16:16:20.998Z</time>
      </trkpt>
      <trkpt lat="53.241142" lon="6.569182">
        <ele>49.940571</ele>
        <time>2026-05-07T16:16:22.987Z</time>
      </trkpt>
      <trkpt lat="53.241232" lon="6.569260">
        <ele>49.680534</ele>
        <time>2026-05-07T16:16:25.003Z</time>
      </trkpt>
      <trkpt lat="53.241321" lon="6.569328">
        <ele>49.429532</ele>
        <time>2026-05-07T16:16:26.993Z</time>
      </trkpt>
      <trkpt lat="53.241402" lon="6.569404">
        <ele>49.191269</ele>
        <time>2026-05-07T16:16:29.000Z</time>
      </trkpt>
      <trkpt lat="53.241492" lon="6.569486">
        <ele>48.928349</ele>
        <time>2026-05-07T16:16:30.993Z</time>
      </trkpt>
      <trkpt lat="53.241580" lon="6.569570">
        <ele>48.668413</ele>
        <time>2026-05-07T16:16:32.994Z</time>
      </trkpt>
      <trkpt lat="53.241668" lon="6.569652">
        <ele>48.409985</ele>
        <time>2026-05-07T16:16:34.995Z</time>
      </trkpt>
      <trkpt lat="53.241755" lon="6.569733">
        <ele>48.154546</ele>
        <time>2026-05-07T16:16:36.991Z</time>
      </trkpt>
      <trkpt lat="53.241840" lon="6.569821">
        <ele>47.898082</ele>
        <time>2026-05-07T16:16:38.994Z</time>
      </trkpt>
      <trkpt lat="53.241919" lon="6.569906">
        <ele>47.657089</ele>
        <time>2026-05-07T16:16:40.998Z</time>
      </trkpt>
      <trkpt lat="53.242004" lon="6.569998">
        <ele>47.453554</ele>
        <time>2026-05-07T16:16:42.995Z</time>
      </trkpt>
      <trkpt lat="53.242097" lon="6.570099">
        <ele>47.241095</ele>
        <time>2026-05-07T16:16:44.994Z</time>
      </trkpt>
      <trkpt lat="53.242182" lon="6.570205">
        <ele>47.037935</ele>
        <time>2026-05-07T16:16:46.991Z</time>
      </trkpt>
      <trkpt lat="53.242270" lon="6.570310">
        <ele>46.830810</ele>
        <time>2026-05-07T16:16:48.997Z</time>
      </trkpt>
      <trkpt lat="53.242350" lon="6.570413">
        <ele>46.637360</ele>
        <time>2026-05-07T16:16:50.996Z</time>
      </trkpt>
      <trkpt lat="53.242432" lon="6.570510">
        <ele>46.444915</ele>
        <time>2026-05-07T16:16:52.987Z</time>
      </trkpt>
      <trkpt lat="53.242512" lon="6.570612">
        <ele>46.252163</ele>
        <time>2026-05-07T16:16:54.995Z</time>
      </trkpt>
      <trkpt lat="53.242595" lon="6.570723">
        <ele>46.048530</ele>
        <time>2026-05-07T16:16:56.989Z</time>
      </trkpt>
      <trkpt lat="53.242677" lon="6.570833">
        <ele>45.847109</ele>
        <time>2026-05-07T16:16:58.996Z</time>
      </trkpt>
      <trkpt lat="53.242756" lon="6.570935">
        <ele>45.655876</ele>
        <time>2026-05-07T16:17:00.994Z</time>
      </trkpt>
      <trkpt lat="53.242838" lon="6.571042">
        <ele>45.456590</ele>
        <time>2026-05-07T16:17:02.991Z</time>
      </trkpt>
      <trkpt lat="53.242912" lon="6.571148">
        <ele>45.269892</ele>
        <time>2026-05-07T16:17:04.995Z</time>
      </trkpt>
      <trkpt lat="53.242993" lon="6.571250">
        <ele>45.075615</ele>
        <time>2026-05-07T16:17:06.992Z</time>
      </trkpt>
      <trkpt lat="53.243073" lon="6.571350">
        <ele>44.884245</ele>
        <time>2026-05-07T16:17:08.991Z</time>
      </trkpt>
      <trkpt lat="53.243150" lon="6.571453">
        <ele>44.695316</ele>
        <time>2026-05-07T16:17:10.989Z</time>
      </trkpt>
      <trkpt lat="53.243212" lon="6.571576">
        <ele>44.510972</ele>
        <time>2026-05-07T16:17:12.994Z</time>
      </trkpt>
      <trkpt lat="53.243219" lon="6.571733">
        <ele>44.330508</ele>
        <time>2026-05-07T16:17:14.995Z</time>
      </trkpt>
      <trkpt lat="53.243176" lon="6.571876">
        <ele>44.170709</ele>
        <time>2026-05-07T16:17:16.993Z</time>
      </trkpt>
      <trkpt lat="53.243121" lon="6.572002">
        <ele>44.148460</ele>
        <time>2026-05-07T16:17:18.996Z</time>
      </trkpt>
      <trkpt lat="53.243046" lon="6.572169">
        <ele>44.118674</ele>
        <time>2026-05-07T16:17:21.991Z</time>
      </trkpt>
      <trkpt lat="53.242975" lon="6.572321">
        <ele>44.091167</ele>
        <time>2026-05-07T16:17:24.992Z</time>
      </trkpt>
      <trkpt lat="53.242915" lon="6.572444">
        <ele>44.068529</ele>
        <time>2026-05-07T16:17:26.994Z</time>
      </trkpt>
      <trkpt lat="53.242860" lon="6.572566">
        <ele>44.046739</ele>
        <time>2026-05-07T16:17:29.002Z</time>
      </trkpt>
      <trkpt lat="53.242779" lon="6.572737">
        <ele>44.015627</ele>
        <time>2026-05-07T16:17:31.992Z</time>
      </trkpt>
      <trkpt lat="53.242746" lon="6.572943">
        <ele>43.985205</ele>
        <time>2026-05-07T16:17:34.992Z</time>
      </trkpt>
      <trkpt lat="53.242769" lon="6.573171">
        <ele>43.952221</ele>
        <time>2026-05-07T16:17:37.994Z</time>
      </trkpt>
      <trkpt lat="53.242818" lon="6.573303">
        <ele>43.930061</ele>
        <time>2026-05-07T16:17:39.998Z</time>
      </trkpt>
      <trkpt lat="53.242900" lon="6.573410">
        <ele>43.905260</ele>
        <time>2026-05-07T16:17:41.994Z</time>
      </trkpt>
      <trkpt lat="53.242981" lon="6.573515">
        <ele>43.880822</ele>
        <time>2026-05-07T16:17:43.992Z</time>
      </trkpt>
      <trkpt lat="53.243054" lon="6.573608">
        <ele>43.858939</ele>
        <time>2026-05-07T16:17:45.996Z</time>
      </trkpt>
      <trkpt lat="53.243125" lon="6.573705">
        <ele>43.837077</ele>
        <time>2026-05-07T16:17:47.996Z</time>
      </trkpt>
      <trkpt lat="53.243223" lon="6.573841">
        <ele>43.806710</ele>
        <time>2026-05-07T16:17:50.996Z</time>
      </trkpt>
      <trkpt lat="53.243314" lon="6.573967">
        <ele>43.778537</ele>
        <time>2026-05-07T16:17:53.996Z</time>
      </trkpt>
      <trkpt lat="53.243417" lon="6.574096">
        <ele>43.747853</ele>
        <time>2026-05-07T16:17:56.991Z</time>
      </trkpt>
      <trkpt lat="53.243521" lon="6.574228">
        <ele>43.719030</ele>
        <time>2026-05-07T16:17:59.995Z</time>
      </trkpt>
      <trkpt lat="53.243627" lon="6.574363">
        <ele>43.689828</ele>
        <time>2026-05-07T16:18:02.995Z</time>
      </trkpt>
      <trkpt lat="53.243699" lon="6.574466">
        <ele>43.669060</ele>
        <time>2026-05-07T16:18:04.993Z</time>
      </trkpt>
      <trkpt lat="53.243775" lon="6.574552">
        <ele>43.648948</ele>
        <time>2026-05-07T16:18:06.992Z</time>
      </trkpt>
      <trkpt lat="53.243879" lon="6.574681">
        <ele>43.620569</ele>
        <time>2026-05-07T16:18:09.995Z</time>
      </trkpt>
      <trkpt lat="53.243959" lon="6.574770">
        <ele>43.599510</ele>
        <time>2026-05-07T16:18:13.005Z</time>
      </trkpt>
      <trkpt lat="53.243884" lon="6.574651">
        <ele>43.576849</ele>
        <time>2026-05-07T16:18:19.992Z</time>
      </trkpt>
      <trkpt lat="53.243793" lon="6.574542">
        <ele>43.552317</ele>
        <time>2026-05-07T16:18:22.994Z</time>
      </trkpt>
      <trkpt lat="53.243699" lon="6.574427">
        <ele>43.526790</ele>
        <time>2026-05-07T16:18:25.991Z</time>
      </trkpt>
      <trkpt lat="53.243609" lon="6.574313">
        <ele>43.502045</ele>
        <time>2026-05-07T16:18:28.993Z</time>
      </trkpt>
      <trkpt lat="53.243511" lon="6.574194">
        <ele>43.475501</ele>
        <time>2026-05-07T16:18:32.000Z</time>
      </trkpt>
      <trkpt lat="53.243420" lon="6.574066">
        <ele>43.449438</ele>
        <time>2026-05-07T16:18:34.993Z</time>
      </trkpt>
      <trkpt lat="53.243335" lon="6.573956">
        <ele>43.425881</ele>
        <time>2026-05-07T16:18:38.000Z</time>
      </trkpt>
      <trkpt lat="53.243256" lon="6.573854">
        <ele>43.404006</ele>
        <time>2026-05-07T16:18:40.998Z</time>
      </trkpt>
      <trkpt lat="53.243056" lon="6.573584">
        <ele>43.353453</ele>
        <time>2026-05-07T16:19:23.003Z</time>
      </trkpt>
      <trkpt lat="53.242964" lon="6.573468">
        <ele>43.369719</ele>
        <time>2026-05-07T16:19:25.993Z</time>
      </trkpt>
      <trkpt lat="53.242879" lon="6.573354">
        <ele>43.385103</ele>
        <time>2026-05-07T16:19:28.991Z</time>
      </trkpt>
      <trkpt lat="53.242786" lon="6.573247">
        <ele>43.401039</ele>
        <time>2026-05-07T16:19:32.993Z</time>
      </trkpt>
      <trkpt lat="53.242708" lon="6.573327">
        <ele>43.413957</ele>
        <time>2026-05-07T16:19:36.993Z</time>
      </trkpt>
      <trkpt lat="53.242641" lon="6.573455">
        <ele>43.428320</ele>
        <time>2026-05-07T16:19:39.991Z</time>
      </trkpt>
      <trkpt lat="53.242585" lon="6.573596">
        <ele>43.442614</ele>
        <time>2026-05-07T16:19:42.996Z</time>
      </trkpt>
      <trkpt lat="53.242608" lon="6.573756">
        <ele>43.456512</ele>
        <time>2026-05-07T16:19:45.989Z</time>
      </trkpt>
      <trkpt lat="53.242700" lon="6.573882">
        <ele>43.473302</ele>
        <time>2026-05-07T16:19:48.989Z</time>
      </trkpt>
      <trkpt lat="53.242788" lon="6.574014">
        <ele>43.489992</ele>
        <time>2026-05-07T16:19:51.991Z</time>
      </trkpt>
      <trkpt lat="53.242877" lon="6.574135">
        <ele>43.506186</ele>
        <time>2026-05-07T16:19:54.994Z</time>
      </trkpt>
      <trkpt lat="53.242974" lon="6.574258">
        <ele>43.523372</ele>
        <time>2026-05-07T16:19:57.995Z</time>
      </trkpt>
      <trkpt lat="53.243076" lon="6.574390">
        <ele>43.541581</ele>
        <time>2026-05-07T16:20:00.993Z</time>
      </trkpt>
      <trkpt lat="53.243181" lon="6.574522">
        <ele>43.560127</ele>
        <time>2026-05-07T16:20:03.994Z</time>
      </trkpt>
      <trkpt lat="53.243280" lon="6.574648">
        <ele>43.577691</ele>
        <time>2026-05-07T16:20:06.995Z</time>
      </trkpt>
      <trkpt lat="53.243354" lon="6.574743">
        <ele>43.590862</ele>
        <time>2026-05-07T16:20:08.995Z</time>
      </trkpt>
      <trkpt lat="53.243426" lon="6.574841">
        <ele>43.603969</ele>
        <time>2026-05-07T16:20:10.993Z</time>
      </trkpt>
      <trkpt lat="53.243496" lon="6.574937">
        <ele>43.634994</ele>
        <time>2026-05-07T16:20:13.001Z</time>
      </trkpt>
      <trkpt lat="53.243569" lon="6.575029">
        <ele>43.668026</ele>
        <time>2026-05-07T16:20:14.993Z</time>
      </trkpt>
      <trkpt lat="53.243670" lon="6.575145">
        <ele>43.712302</ele>
        <time>2026-05-07T16:20:17.992Z</time>
      </trkpt>
      <trkpt lat="53.243746" lon="6.575232">
        <ele>43.745583</ele>
        <time>2026-05-07T16:20:19.997Z</time>
      </trkpt>
      <trkpt lat="53.243826" lon="6.575311">
        <ele>43.779153</ele>
        <time>2026-05-07T16:20:22.000Z</time>
      </trkpt>
      <trkpt lat="53.243923" lon="6.575437">
        <ele>43.823539</ele>
        <time>2026-05-07T16:20:24.994Z</time>
      </trkpt>
      <trkpt lat="53.244027" lon="6.575553">
        <ele>43.868711</ele>
        <time>2026-05-07T16:20:27.994Z</time>
      </trkpt>
      <trkpt lat="53.244126" lon="6.575594">
        <ele>43.905559</ele>
        <time>2026-05-07T16:20:30.997Z</time>
      </trkpt>
      <trkpt lat="53.244216" lon="6.575627">
        <ele>43.938847</ele>
        <time>2026-05-07T16:20:33.999Z</time>
      </trkpt>
      <trkpt lat="53.244312" lon="6.575670">
        <ele>43.974753</ele>
        <time>2026-05-07T16:20:36.996Z</time>
      </trkpt>
      <trkpt lat="53.244402" lon="6.575735">
        <ele>44.010174</ele>
        <time>2026-05-07T16:20:39.988Z</time>
      </trkpt>
      <trkpt lat="53.244503" lon="6.575816">
        <ele>44.050647</ele>
        <time>2026-05-07T16:20:44.004Z</time>
      </trkpt>
      <trkpt lat="53.244588" lon="6.575900">
        <ele>44.086323</ele>
        <time>2026-05-07T16:20:47.996Z</time>
      </trkpt>
      <trkpt lat="53.244682" lon="6.575985">
        <ele>44.124935</ele>
        <time>2026-05-07T16:20:51.997Z</time>
      </trkpt>
      <trkpt lat="53.244786" lon="6.576069">
        <ele>44.166666</ele>
        <time>2026-05-07T16:20:55.991Z</time>
      </trkpt>
      <trkpt lat="53.244874" lon="6.576136">
        <ele>44.201601</ele>
        <time>2026-05-07T16:20:59.994Z</time>
      </trkpt>
      <trkpt lat="53.244909" lon="6.576286">
        <ele>44.236407</ele>
        <time>2026-05-07T16:21:09.002Z</time>
      </trkpt>
      <trkpt lat="53.244997" lon="6.576389">
        <ele>44.261032</ele>
        <time>2026-05-07T16:21:14.993Z</time>
      </trkpt>
      <trkpt lat="53.245086" lon="6.576462">
        <ele>44.271900</ele>
        <time>2026-05-07T16:21:18.999Z</time>
      </trkpt>
      <trkpt lat="53.245168" lon="6.576542">
        <ele>44.282308</ele>
        <time>2026-05-07T16:21:22.993Z</time>
      </trkpt>
      <trkpt lat="53.245246" lon="6.576639">
        <ele>44.292966</ele>
        <time>2026-05-07T16:21:30.996Z</time>
      </trkpt>
      <trkpt lat="53.245326" lon="6.576735">
        <ele>44.303763</ele>
        <time>2026-05-07T16:21:36.000Z</time>
      </trkpt>
      <trkpt lat="53.245409" lon="6.576804">
        <ele>44.313925</ele>
        <time>2026-05-07T16:21:40.998Z</time>
      </trkpt>
      <trkpt lat="53.245489" lon="6.576902">
        <ele>44.324798</ele>
        <time>2026-05-07T16:21:46.997Z</time>
      </trkpt>
      <trkpt lat="53.245564" lon="6.576987">
        <ele>44.334732</ele>
        <time>2026-05-07T16:21:53.997Z</time>
      </trkpt>
      <trkpt lat="53.245649" lon="6.577066">
        <ele>44.345394</ele>
        <time>2026-05-07T16:22:01.988Z</time>
      </trkpt>
      <trkpt lat="53.245744" lon="6.577134">
        <ele>44.356723</ele>
        <time>2026-05-07T16:22:09.000Z</time>
      </trkpt>
      <trkpt lat="53.245825" lon="6.577213">
        <ele>44.367004</ele>
        <time>2026-05-07T16:22:13.994Z</time>
      </trkpt>
      <trkpt lat="53.245912" lon="6.577297">
        <ele>44.378018</ele>
        <time>2026-05-07T16:22:19.994Z</time>
      </trkpt>
      <trkpt lat="53.245989" lon="6.577382">
        <ele>44.388134</ele>
        <time>2026-05-07T16:22:26.994Z</time>
      </trkpt>
      <trkpt lat="53.246061" lon="6.577480">
        <ele>44.398313</ele>
        <time>2026-05-07T16:22:32.998Z</time>
      </trkpt>
      <trkpt lat="53.246094" lon="6.577624">
        <ele>44.408428</ele>
        <time>2026-05-07T16:22:39.991Z</time>
      </trkpt>
      <trkpt lat="53.246192" lon="6.577633">
        <ele>44.419187</ele>
        <time>2026-05-07T16:22:45.996Z</time>
      </trkpt>
      <trkpt lat="53.246289" lon="6.577596">
        <ele>44.430093</ele>
        <time>2026-05-07T16:22:48.996Z</time>
      </trkpt>
      <trkpt lat="53.246387" lon="6.577615">
        <ele>44.440908</ele>
        <time>2026-05-07T16:22:51.996Z</time>
      </trkpt>
      <trkpt lat="53.246482" lon="6.577724">
        <ele>44.451676</ele>
        <time>2026-05-07T16:22:54.994Z</time>
      </trkpt>
      <trkpt lat="53.246584" lon="6.577824">
        <ele>44.448757</ele>
        <time>2026-05-07T16:22:57.995Z</time>
      </trkpt>
      <trkpt lat="53.246682" lon="6.577940">
        <ele>44.445793</ele>
        <time>2026-05-07T16:23:00.993Z</time>
      </trkpt>
      <trkpt lat="53.246784" lon="6.578042">
        <ele>44.442859</ele>
        <time>2026-05-07T16:23:03.995Z</time>
      </trkpt>
      <trkpt lat="53.246897" lon="6.578129">
        <ele>44.439788</ele>
        <time>2026-05-07T16:23:06.992Z</time>
      </trkpt>
      <trkpt lat="53.247012" lon="6.578234">
        <ele>44.436553</ele>
        <time>2026-05-07T16:23:09.994Z</time>
      </trkpt>
      <trkpt lat="53.247121" lon="6.578338">
        <ele>44.433455</ele>
        <time>2026-05-07T16:23:12.994Z</time>
      </trkpt>
      <trkpt lat="53.247229" lon="6.578438">
        <ele>44.430408</ele>
        <time>2026-05-07T16:23:15.995Z</time>
      </trkpt>
      <trkpt lat="53.247344" lon="6.578551">
        <ele>44.427115</ele>
        <time>2026-05-07T16:23:19.004Z</time>
      </trkpt>
      <trkpt lat="53.247460" lon="6.578648">
        <ele>44.423913</ele>
        <time>2026-05-07T16:23:21.998Z</time>
      </trkpt>
      <trkpt lat="53.247566" lon="6.578742">
        <ele>44.420951</ele>
        <time>2026-05-07T16:23:25.000Z</time>
      </trkpt>
      <trkpt lat="53.247671" lon="6.578810">
        <ele>44.418172</ele>
        <time>2026-05-07T16:23:27.993Z</time>
      </trkpt>
      <trkpt lat="53.247776" lon="6.578885">
        <ele>44.415353</ele>
        <time>2026-05-07T16:23:30.999Z</time>
      </trkpt>
      <trkpt lat="53.247881" lon="6.578980">
        <ele>44.412406</ele>
        <time>2026-05-07T16:23:33.999Z</time>
      </trkpt>
      <trkpt lat="53.247996" lon="6.579085">
        <ele>44.409171</ele>
        <time>2026-05-07T16:23:36.996Z</time>
      </trkpt>
      <trkpt lat="53.248108" lon="6.579194">
        <ele>44.385971</ele>
        <time>2026-05-07T16:23:39.996Z</time>
      </trkpt>
      <trkpt lat="53.248182" lon="6.579285">
        <ele>44.356214</ele>
        <time>2026-05-07T16:23:41.996Z</time>
      </trkpt>
      <trkpt lat="53.248273" lon="6.579359">
        <ele>44.323437</ele>
        <time>2026-05-07T16:23:43.997Z</time>
      </trkpt>
      <trkpt lat="53.248350" lon="6.579445">
        <ele>44.293441</ele>
        <time>2026-05-07T16:23:45.995Z</time>
      </trkpt>
      <trkpt lat="53.248445" lon="6.579581">
        <ele>44.252927</ele>
        <time>2026-05-07T16:23:48.994Z</time>
      </trkpt>
      <trkpt lat="53.248528" lon="6.579758">
        <ele>44.209346</ele>
        <time>2026-05-07T16:23:51.989Z</time>
      </trkpt>
      <trkpt lat="53.248608" lon="6.579872">
        <ele>44.175295</ele>
        <time>2026-05-07T16:23:53.995Z</time>
      </trkpt>
      <trkpt lat="53.248695" lon="6.579994">
        <ele>44.138511</ele>
        <time>2026-05-07T16:23:56.996Z</time>
      </trkpt>
      <trkpt lat="53.248811" lon="6.580105">
        <ele>44.095218</ele>
        <time>2026-05-07T16:23:59.992Z</time>
      </trkpt>
      <trkpt lat="53.248895" lon="6.580159">
        <ele>44.066068</ele>
        <time>2026-05-07T16:24:01.996Z</time>
      </trkpt>
      <trkpt lat="53.249017" lon="6.580262">
        <ele>44.021798</ele>
        <time>2026-05-07T16:24:05.001Z</time>
      </trkpt>
      <trkpt lat="53.249099" lon="6.580345">
        <ele>43.990748</ele>
        <time>2026-05-07T16:24:06.997Z</time>
      </trkpt>
      <trkpt lat="53.249229" lon="6.580478">
        <ele>43.941380</ele>
        <time>2026-05-07T16:24:09.994Z</time>
      </trkpt>
      <trkpt lat="53.249345" lon="6.580584">
        <ele>43.898560</ele>
        <time>2026-05-07T16:24:12.999Z</time>
      </trkpt>
      <trkpt lat="53.249473" lon="6.580667">
        <ele>43.854092</ele>
        <time>2026-05-07T16:24:15.994Z</time>
      </trkpt>
      <trkpt lat="53.249566" lon="6.580728">
        <ele>43.830086</ele>
        <time>2026-05-07T16:24:17.994Z</time>
      </trkpt>
      <trkpt lat="53.249676" lon="6.580854">
        <ele>43.895221</ele>
        <time>2026-05-07T16:24:20.997Z</time>
      </trkpt>
      <trkpt lat="53.249758" lon="6.580943">
        <ele>43.942977</ele>
        <time>2026-05-07T16:24:22.994Z</time>
      </trkpt>
      <trkpt lat="53.249876" lon="6.581059">
        <ele>44.009844</ele>
        <time>2026-05-07T16:24:25.997Z</time>
      </trkpt>
      <trkpt lat="53.249962" lon="6.581153">
        <ele>44.060034</ele>
        <time>2026-05-07T16:24:27.998Z</time>
      </trkpt>
      <trkpt lat="53.250063" lon="6.581285">
        <ele>44.122658</ele>
        <time>2026-05-07T16:24:30.996Z</time>
      </trkpt>
      <trkpt lat="53.250166" lon="6.581415">
        <ele>44.185701</ele>
        <time>2026-05-07T16:24:33.997Z</time>
      </trkpt>
      <trkpt lat="53.250270" lon="6.581544">
        <ele>44.248959</ele>
        <time>2026-05-07T16:24:36.990Z</time>
      </trkpt>
      <trkpt lat="53.250374" lon="6.581681">
        <ele>44.313637</ele>
        <time>2026-05-07T16:24:39.994Z</time>
      </trkpt>
      <trkpt lat="53.250464" lon="6.581789">
        <ele>44.367754</ele>
        <time>2026-05-07T16:24:42.989Z</time>
      </trkpt>
      <trkpt lat="53.250565" lon="6.581897">
        <ele>44.426318</ele>
        <time>2026-05-07T16:24:46.001Z</time>
      </trkpt>
      <trkpt lat="53.250641" lon="6.581984">
        <ele>44.471311</ele>
        <time>2026-05-07T16:24:48.004Z</time>
      </trkpt>
      <trkpt lat="53.250739" lon="6.582091">
        <ele>44.528487</ele>
        <time>2026-05-07T16:24:50.996Z</time>
      </trkpt>
      <trkpt lat="53.250819" lon="6.582171">
        <ele>44.574021</ele>
        <time>2026-05-07T16:24:53.997Z</time>
      </trkpt>
      <trkpt lat="53.250921" lon="6.582285">
        <ele>44.633955</ele>
        <time>2026-05-07T16:24:56.993Z</time>
      </trkpt>
      <trkpt lat="53.250999" lon="6.582383">
        <ele>44.681616</ele>
        <time>2026-05-07T16:24:58.996Z</time>
      </trkpt>
      <trkpt lat="53.251071" lon="6.582475">
        <ele>44.667316</ele>
        <time>2026-05-07T16:25:00.998Z</time>
      </trkpt>
      <trkpt lat="53.251167" lon="6.582605">
        <ele>44.569155</ele>
        <time>2026-05-07T16:25:03.993Z</time>
      </trkpt>
      <trkpt lat="53.251264" lon="6.582748">
        <ele>44.466397</ele>
        <time>2026-05-07T16:25:06.995Z</time>
      </trkpt>
      <trkpt lat="53.251353" lon="6.582923">
        <ele>44.357221</ele>
        <time>2026-05-07T16:25:10.002Z</time>
      </trkpt>
      <trkpt lat="53.251413" lon="6.583051">
        <ele>44.279928</ele>
        <time>2026-05-07T16:25:11.999Z</time>
      </trkpt>
      <trkpt lat="53.251468" lon="6.583182">
        <ele>44.203857</ele>
        <time>2026-05-07T16:25:13.996Z</time>
      </trkpt>
      <trkpt lat="53.251536" lon="6.583334">
        <ele>44.113642</ele>
        <time>2026-05-07T16:25:15.997Z</time>
      </trkpt>
      <trkpt lat="53.251603" lon="6.583462">
        <ele>44.032801</ele>
        <time>2026-05-07T16:25:17.995Z</time>
      </trkpt>
      <trkpt lat="53.251697" lon="6.583558">
        <ele>43.945282</ele>
        <time>2026-05-07T16:25:20.004Z</time>
      </trkpt>
      <trkpt lat="53.251796" lon="6.583635">
        <ele>43.858530</ele>
        <time>2026-05-07T16:25:22.014Z</time>
      </trkpt>
      <trkpt lat="53.251897" lon="6.583697">
        <ele>43.773048</ele>
        <time>2026-05-07T16:25:23.999Z</time>
      </trkpt>
      <trkpt lat="53.252002" lon="6.583706">
        <ele>43.689518</ele>
        <time>2026-05-07T16:25:26.004Z</time>
      </trkpt>
      <trkpt lat="53.252138" lon="6.583628">
        <ele>43.575286</ele>
        <time>2026-05-07T16:25:28.995Z</time>
      </trkpt>
      <trkpt lat="53.252258" lon="6.583650">
        <ele>43.479377</ele>
        <time>2026-05-07T16:25:31.991Z</time>
      </trkpt>
      <trkpt lat="53.252346" lon="6.583736">
        <ele>43.398390</ele>
        <time>2026-05-07T16:25:33.989Z</time>
      </trkpt>
      <trkpt lat="53.252435" lon="6.583821">
        <ele>43.316953</ele>
        <time>2026-05-07T16:25:35.994Z</time>
      </trkpt>
      <trkpt lat="53.252516" lon="6.583904">
        <ele>43.279046</ele>
        <time>2026-05-07T16:25:37.994Z</time>
      </trkpt>
      <trkpt lat="53.252630" lon="6.584027">
        <ele>43.293472</ele>
        <time>2026-05-07T16:25:40.996Z</time>
      </trkpt>
      <trkpt lat="53.252738" lon="6.584153">
        <ele>43.307475</ele>
        <time>2026-05-07T16:25:43.994Z</time>
      </trkpt>
      <trkpt lat="53.252816" lon="6.584235">
        <ele>43.317272</ele>
        <time>2026-05-07T16:25:45.995Z</time>
      </trkpt>
      <trkpt lat="53.252898" lon="6.584315">
        <ele>43.327367</ele>
        <time>2026-05-07T16:25:47.995Z</time>
      </trkpt>
      <trkpt lat="53.252977" lon="6.584403">
        <ele>43.337460</ele>
        <time>2026-05-07T16:25:49.996Z</time>
      </trkpt>
      <trkpt lat="53.253086" lon="6.584529">
        <ele>43.351551</ele>
        <time>2026-05-07T16:25:52.997Z</time>
      </trkpt>
      <trkpt lat="53.253161" lon="6.584623">
        <ele>43.361518</ele>
        <time>2026-05-07T16:25:54.996Z</time>
      </trkpt>
      <trkpt lat="53.253269" lon="6.584755">
        <ele>43.375743</ele>
        <time>2026-05-07T16:25:58.001Z</time>
      </trkpt>
      <trkpt lat="53.253373" lon="6.584890">
        <ele>43.389743</ele>
        <time>2026-05-07T16:26:00.991Z</time>
      </trkpt>
      <trkpt lat="53.253478" lon="6.585018">
        <ele>43.403560</ele>
        <time>2026-05-07T16:26:03.993Z</time>
      </trkpt>
      <trkpt lat="53.253646" lon="6.585303">
        <ele>43.429010</ele>
        <time>2026-05-07T16:27:01.998Z</time>
      </trkpt>
      <trkpt lat="53.253719" lon="6.585456">
        <ele>43.441458</ele>
        <time>2026-05-07T16:27:05.993Z</time>
      </trkpt>
      <trkpt lat="53.253793" lon="6.585565">
        <ele>43.451944</ele>
        <time>2026-05-07T16:27:08.996Z</time>
      </trkpt>
      <trkpt lat="53.253887" lon="6.585641">
        <ele>43.463046</ele>
        <time>2026-05-07T16:27:11.996Z</time>
      </trkpt>
      <trkpt lat="53.253999" lon="6.585700">
        <ele>43.384295</ele>
        <time>2026-05-07T16:27:14.996Z</time>
      </trkpt>
      <trkpt lat="53.254113" lon="6.585774">
        <ele>43.274860</ele>
        <time>2026-05-07T16:27:17.993Z</time>
      </trkpt>
      <trkpt lat="53.254215" lon="6.585869">
        <ele>43.170373</ele>
        <time>2026-05-07T16:27:20.996Z</time>
      </trkpt>
      <trkpt lat="53.254301" lon="6.585978">
        <ele>43.073794</ele>
        <time>2026-05-07T16:27:23.987Z</time>
      </trkpt>
      <trkpt lat="53.254388" lon="6.586089">
        <ele>42.975855</ele>
        <time>2026-05-07T16:27:26.994Z</time>
      </trkpt>
      <trkpt lat="53.254473" lon="6.586210">
        <ele>42.875948</ele>
        <time>2026-05-07T16:27:29.993Z</time>
      </trkpt>
      <trkpt lat="53.254570" lon="6.586317">
        <ele>42.771950</ele>
        <time>2026-05-07T16:27:32.992Z</time>
      </trkpt>
      <trkpt lat="53.254660" lon="6.586404">
        <ele>42.678916</ele>
        <time>2026-05-07T16:27:36.001Z</time>
      </trkpt>
      <trkpt lat="53.254745" lon="6.586489">
        <ele>42.590282</ele>
        <time>2026-05-07T16:27:38.991Z</time>
      </trkpt>
      <trkpt lat="53.254835" lon="6.586588">
        <ele>42.493871</ele>
        <time>2026-05-07T16:27:42.995Z</time>
      </trkpt>
      <trkpt lat="53.254816" lon="6.586748">
        <ele>42.406545</ele>
        <time>2026-05-07T16:28:03.990Z</time>
      </trkpt>
      <trkpt lat="53.254798" lon="6.586907">
        <ele>42.319914</ele>
        <time>2026-05-07T16:28:08.999Z</time>
      </trkpt>
      <trkpt lat="53.254896" lon="6.586988">
        <ele>42.222084</ele>
        <time>2026-05-07T16:28:11.996Z</time>
      </trkpt>
      <trkpt lat="53.255006" lon="6.587065">
        <ele>42.115368</ele>
        <time>2026-05-07T16:28:14.991Z</time>
      </trkpt>
      <trkpt lat="53.255095" lon="6.587163">
        <ele>42.020000</ele>
        <time>2026-05-07T16:28:17.996Z</time>
      </trkpt>
      <trkpt lat="53.255195" lon="6.587279">
        <ele>41.911079</ele>
        <time>2026-05-07T16:28:20.992Z</time>
      </trkpt>
      <trkpt lat="53.255304" lon="6.587393">
        <ele>41.883476</ele>
        <time>2026-05-07T16:28:23.993Z</time>
      </trkpt>
      <trkpt lat="53.255403" lon="6.587491">
        <ele>41.929802</ele>
        <time>2026-05-07T16:28:26.996Z</time>
      </trkpt>
      <trkpt lat="53.255504" lon="6.587595">
        <ele>41.977565</ele>
        <time>2026-05-07T16:28:29.994Z</time>
      </trkpt>
      <trkpt lat="53.255545" lon="6.587777">
        <ele>42.024409</ele>
        <time>2026-05-07T16:28:32.992Z</time>
      </trkpt>
      <trkpt lat="53.255530" lon="6.587927">
        <ele>42.061041</ele>
        <time>2026-05-07T16:28:35.001Z</time>
      </trkpt>
      <trkpt lat="53.255511" lon="6.588076">
        <ele>42.097737</ele>
        <time>2026-05-07T16:28:36.992Z</time>
      </trkpt>
      <trkpt lat="53.255495" lon="6.588225">
        <ele>42.134201</ele>
        <time>2026-05-07T16:28:39.000Z</time>
      </trkpt>
      <trkpt lat="53.255479" lon="6.588373">
        <ele>42.170428</ele>
        <time>2026-05-07T16:28:40.993Z</time>
      </trkpt>
      <trkpt lat="53.255456" lon="6.588577">
        <ele>42.220431</ele>
        <time>2026-05-07T16:28:43.997Z</time>
      </trkpt>
      <trkpt lat="53.255440" lon="6.588803">
        <ele>42.275248</ele>
        <time>2026-05-07T16:28:46.998Z</time>
      </trkpt>
      <trkpt lat="53.255417" lon="6.589022">
        <ele>42.328806</ele>
        <time>2026-05-07T16:28:49.994Z</time>
      </trkpt>
      <trkpt lat="53.255401" lon="6.589248">
        <ele>42.383623</ele>
        <time>2026-05-07T16:28:52.996Z</time>
      </trkpt>
      <trkpt lat="53.255377" lon="6.589467">
        <ele>42.437253</ele>
        <time>2026-05-07T16:28:55.996Z</time>
      </trkpt>
      <trkpt lat="53.255362" lon="6.589619">
        <ele>42.474360</ele>
        <time>2026-05-07T16:28:57.996Z</time>
      </trkpt>
      <trkpt lat="53.255345" lon="6.589767">
        <ele>42.510661</ele>
        <time>2026-05-07T16:28:59.997Z</time>
      </trkpt>
      <trkpt lat="53.255326" lon="6.589918">
        <ele>42.547828</ele>
        <time>2026-05-07T16:29:01.995Z</time>
      </trkpt>
      <trkpt lat="53.255264" lon="6.590097">
        <ele>42.584507</ele>
        <time>2026-05-07T16:29:04.996Z</time>
      </trkpt>
      <trkpt lat="53.255255" lon="6.590271">
        <ele>42.594283</ele>
        <time>2026-05-07T16:29:07.993Z</time>
      </trkpt>
      <trkpt lat="53.255240" lon="6.590455">
        <ele>42.604679</ele>
        <time>2026-05-07T16:29:11.002Z</time>
      </trkpt>
      <trkpt lat="53.255231" lon="6.590644">
        <ele>42.615292</ele>
        <time>2026-05-07T16:29:13.995Z</time>
      </trkpt>
      <trkpt lat="53.255222" lon="6.590801">
        <ele>42.624121</ele>
        <time>2026-05-07T16:29:16.995Z</time>
      </trkpt>
      <trkpt lat="53.255122" lon="6.590880">
        <ele>42.634471</ele>
        <time>2026-05-07T16:29:20.001Z</time>
      </trkpt>
      <trkpt lat="53.255208" lon="6.590812">
        <ele>42.643373</ele>
        <time>2026-05-07T16:29:33.992Z</time>
      </trkpt>
      <trkpt lat="53.255248" lon="6.590646">
        <ele>42.653391</ele>
        <time>2026-05-07T16:29:40.990Z</time>
      </trkpt>
      <trkpt lat="53.255252" lon="6.590472">
        <ele>42.663138</ele>
        <time>2026-05-07T16:29:43.995Z</time>
      </trkpt>
      <trkpt lat="53.255227" lon="6.590320">
        <ele>42.671963</ele>
        <time>2026-05-07T16:29:47.000Z</time>
      </trkpt>
      <trkpt lat="53.255166" lon="6.590200">
        <ele>42.680778</ele>
        <time>2026-05-07T16:29:49.998Z</time>
      </trkpt>
      <trkpt lat="53.255110" lon="6.590077">
        <ele>42.689430</ele>
        <time>2026-05-07T16:29:52.995Z</time>
      </trkpt>
      <trkpt lat="53.255011" lon="6.590005">
        <ele>42.699533</ele>
        <time>2026-05-07T16:29:55.990Z</time>
      </trkpt>
      <trkpt lat="53.254903" lon="6.590009">
        <ele>42.709641</ele>
        <time>2026-05-07T16:29:58.990Z</time>
      </trkpt>
      <trkpt lat="53.254803" lon="6.589992">
        <ele>42.719046</ele>
        <time>2026-05-07T16:30:01.987Z</time>
      </trkpt>
      <trkpt lat="53.254702" lon="6.589976">
        <ele>42.728539</ele>
        <time>2026-05-07T16:30:04.993Z</time>
      </trkpt>
      <trkpt lat="53.254609" lon="6.589956">
        <ele>42.737313</ele>
        <time>2026-05-07T16:30:08.000Z</time>
      </trkpt>
      <trkpt lat="53.254516" lon="6.589904">
        <ele>42.746489</ele>
        <time>2026-05-07T16:30:10.993Z</time>
      </trkpt>
      <trkpt lat="53.254418" lon="6.589843">
        <ele>42.686474</ele>
        <time>2026-05-07T16:30:14.991Z</time>
      </trkpt>
      <trkpt lat="53.254304" lon="6.589864">
        <ele>42.596603</ele>
        <time>2026-05-07T16:30:18.999Z</time>
      </trkpt>
      <trkpt lat="53.254213" lon="6.589867">
        <ele>42.525282</ele>
        <time>2026-05-07T16:30:21.991Z</time>
      </trkpt>
      <trkpt lat="53.254111" lon="6.589847">
        <ele>42.444807</ele>
        <time>2026-05-07T16:30:25.991Z</time>
      </trkpt>
      <trkpt lat="53.254011" lon="6.589737">
        <ele>42.351002</ele>
        <time>2026-05-07T16:30:29.992Z</time>
      </trkpt>
      <trkpt lat="53.253913" lon="6.589713">
        <ele>42.273389</ele>
        <time>2026-05-07T16:30:32.997Z</time>
      </trkpt>
      <trkpt lat="53.253799" lon="6.589692">
        <ele>42.183519</ele>
        <time>2026-05-07T16:30:35.996Z</time>
      </trkpt>
      <trkpt lat="53.253697" lon="6.589671">
        <ele>42.102988</ele>
        <time>2026-05-07T16:30:38.998Z</time>
      </trkpt>
      <trkpt lat="53.253604" lon="6.589650">
        <ele>42.029451</ele>
        <time>2026-05-07T16:30:41.995Z</time>
      </trkpt>
      <trkpt lat="53.253505" lon="6.589635">
        <ele>41.951557</ele>
        <time>2026-05-07T16:30:45.004Z</time>
      </trkpt>
      <trkpt lat="53.253411" lon="6.589616">
        <ele>41.877363</ele>
        <time>2026-05-07T16:30:49.004Z</time>
      </trkpt>
      <trkpt lat="53.253296" lon="6.589609">
        <ele>41.787189</ele>
        <time>2026-05-07T16:30:52.991Z</time>
      </trkpt>
      <trkpt lat="53.253189" lon="6.589585">
        <ele>41.702593</ele>
        <time>2026-05-07T16:30:56.996Z</time>
      </trkpt>
      <trkpt lat="53.253134" lon="6.589713">
        <ele>41.628712</ele>
        <time>2026-05-07T16:31:00.995Z</time>
      </trkpt>
      <trkpt lat="53.253146" lon="6.589878">
        <ele>41.550789</ele>
        <time>2026-05-07T16:31:03.995Z</time>
      </trkpt>
      <trkpt lat="53.253142" lon="6.590089">
        <ele>41.451820</ele>
        <time>2026-05-07T16:31:06.995Z</time>
      </trkpt>
      <trkpt lat="53.253121" lon="6.590275">
        <ele>41.363083</ele>
        <time>2026-05-07T16:31:09.991Z</time>
      </trkpt>
      <trkpt lat="53.253102" lon="6.590433">
        <ele>41.331255</ele>
        <time>2026-05-07T16:31:12.995Z</time>
      </trkpt>
      <trkpt lat="53.253086" lon="6.590600">
        <ele>41.318780</ele>
        <time>2026-05-07T16:31:16.999Z</time>
      </trkpt>
      <trkpt lat="53.253073" lon="6.590756">
        <ele>41.307162</ele>
        <time>2026-05-07T16:31:20.993Z</time>
      </trkpt>
      <trkpt lat="53.253061" lon="6.590908">
        <ele>41.295854</ele>
        <time>2026-05-07T16:31:23.989Z</time>
      </trkpt>
      <trkpt lat="53.253037" lon="6.591088">
        <ele>41.282252</ele>
        <time>2026-05-07T16:31:26.993Z</time>
      </trkpt>
      <trkpt lat="53.253016" lon="6.591258">
        <ele>41.269448</ele>
        <time>2026-05-07T16:31:29.993Z</time>
      </trkpt>
      <trkpt lat="53.253057" lon="6.591435">
        <ele>41.255449</ele>
        <time>2026-05-07T16:31:33.992Z</time>
      </trkpt>
      <trkpt lat="53.253100" lon="6.591600">
        <ele>41.242174</ele>
        <time>2026-05-07T16:31:36.990Z</time>
      </trkpt>
      <trkpt lat="53.253147" lon="6.591784">
        <ele>41.227417</ele>
        <time>2026-05-07T16:31:39.991Z</time>
      </trkpt>
      <trkpt lat="53.253193" lon="6.591947">
        <ele>41.214124</ele>
        <time>2026-05-07T16:31:42.998Z</time>
      </trkpt>
      <trkpt lat="53.253156" lon="6.592103">
        <ele>41.201747</ele>
        <time>2026-05-07T16:31:47.993Z</time>
      </trkpt>
      <trkpt lat="53.253067" lon="6.592154">
        <ele>41.190148</ele>
        <time>2026-05-07T16:31:50.994Z</time>
      </trkpt>
      <trkpt lat="53.253059" lon="6.592339">
        <ele>41.176467</ele>
        <time>2026-05-07T16:31:53.993Z</time>
      </trkpt>
      <trkpt lat="53.253069" lon="6.592560">
        <ele>41.160119</ele>
        <time>2026-05-07T16:31:56.995Z</time>
      </trkpt>
      <trkpt lat="53.253061" lon="6.592712">
        <ele>41.148865</ele>
        <time>2026-05-07T16:31:58.992Z</time>
      </trkpt>
      <trkpt lat="53.253039" lon="6.592867">
        <ele>41.137115</ele>
        <time>2026-05-07T16:32:00.993Z</time>
      </trkpt>
      <trkpt lat="53.253026" lon="6.593021">
        <ele>41.125644</ele>
        <time>2026-05-07T16:32:02.992Z</time>
      </trkpt>
      <trkpt lat="53.253004" lon="6.593236">
        <ele>41.148757</ele>
        <time>2026-05-07T16:32:05.991Z</time>
      </trkpt>
      <trkpt lat="53.252989" lon="6.593386">
        <ele>41.191699</ele>
        <time>2026-05-07T16:32:07.993Z</time>
      </trkpt>
      <trkpt lat="53.252978" lon="6.593552">
        <ele>41.238859</ele>
        <time>2026-05-07T16:32:09.988Z</time>
      </trkpt>
      <trkpt lat="53.252959" lon="6.593707">
        <ele>41.283535</ele>
        <time>2026-05-07T16:32:11.991Z</time>
      </trkpt>
      <trkpt lat="53.252933" lon="6.593914">
        <ele>41.343259</ele>
        <time>2026-05-07T16:32:14.992Z</time>
      </trkpt>
      <trkpt lat="53.252894" lon="6.594126">
        <ele>41.405887</ele>
        <time>2026-05-07T16:32:17.986Z</time>
      </trkpt>
      <trkpt lat="53.252860" lon="6.594326">
        <ele>41.464596</ele>
        <time>2026-05-07T16:32:20.993Z</time>
      </trkpt>
      <trkpt lat="53.252844" lon="6.594532">
        <ele>41.523252</ele>
        <time>2026-05-07T16:32:23.992Z</time>
      </trkpt>
      <trkpt lat="53.252830" lon="6.594740">
        <ele>41.582354</ele>
        <time>2026-05-07T16:32:26.991Z</time>
      </trkpt>
      <trkpt lat="53.252820" lon="6.594903">
        <ele>41.628622</ele>
        <time>2026-05-07T16:32:28.991Z</time>
      </trkpt>
      <trkpt lat="53.252805" lon="6.595060">
        <ele>41.673515</ele>
        <time>2026-05-07T16:32:30.992Z</time>
      </trkpt>
      <trkpt lat="53.252792" lon="6.595214">
        <ele>41.717431</ele>
        <time>2026-05-07T16:32:32.997Z</time>
      </trkpt>
      <trkpt lat="53.252776" lon="6.595364">
        <ele>41.760454</ele>
        <time>2026-05-07T16:32:34.992Z</time>
      </trkpt>
      <trkpt lat="53.252767" lon="6.595514">
        <ele>41.803021</ele>
        <time>2026-05-07T16:32:36.992Z</time>
      </trkpt>
      <trkpt lat="53.252747" lon="6.595679">
        <ele>41.850559</ele>
        <time>2026-05-07T16:32:38.992Z</time>
      </trkpt>
      <trkpt lat="53.252730" lon="6.595841">
        <ele>41.897001</ele>
        <time>2026-05-07T16:32:40.994Z</time>
      </trkpt>
      <trkpt lat="53.252714" lon="6.596056">
        <ele>41.958178</ele>
        <time>2026-05-07T16:32:43.995Z</time>
      </trkpt>
      <trkpt lat="53.252701" lon="6.596221">
        <ele>42.035446</ele>
        <time>2026-05-07T16:32:45.995Z</time>
      </trkpt>
      <trkpt lat="53.252680" lon="6.596388">
        <ele>42.121420</ele>
        <time>2026-05-07T16:32:47.994Z</time>
      </trkpt>
      <trkpt lat="53.252662" lon="6.596554">
        <ele>42.206415</ele>
        <time>2026-05-07T16:32:49.994Z</time>
      </trkpt>
      <trkpt lat="53.252644" lon="6.596717">
        <ele>42.289923</ele>
        <time>2026-05-07T16:32:52.002Z</time>
      </trkpt>
      <trkpt lat="53.252630" lon="6.596888">
        <ele>42.376877</ele>
        <time>2026-05-07T16:32:53.994Z</time>
      </trkpt>
      <trkpt lat="53.252612" lon="6.597053">
        <ele>42.461376</ele>
        <time>2026-05-07T16:32:55.995Z</time>
      </trkpt>
      <trkpt lat="53.252597" lon="6.597226">
        <ele>42.549446</ele>
        <time>2026-05-07T16:32:57.993Z</time>
      </trkpt>
      <trkpt lat="53.252603" lon="6.597384">
        <ele>42.629208</ele>
        <time>2026-05-07T16:33:00.007Z</time>
      </trkpt>
      <trkpt lat="53.252631" lon="6.597545">
        <ele>42.713679</ele>
        <time>2026-05-07T16:33:01.993Z</time>
      </trkpt>
      <trkpt lat="53.252665" lon="6.597704">
        <ele>42.798747</ele>
        <time>2026-05-07T16:33:03.993Z</time>
      </trkpt>
      <trkpt lat="53.252698" lon="6.597862">
        <ele>42.883060</ele>
        <time>2026-05-07T16:33:05.996Z</time>
      </trkpt>
      <trkpt lat="53.252734" lon="6.598023">
        <ele>42.969653</ele>
        <time>2026-05-07T16:33:07.992Z</time>
      </trkpt>
      <trkpt lat="53.252766" lon="6.598170">
        <ele>43.048463</ele>
        <time>2026-05-07T16:33:09.992Z</time>
      </trkpt>
      <trkpt lat="53.252788" lon="6.598323">
        <ele>43.127740</ele>
        <time>2026-05-07T16:33:12.000Z</time>
      </trkpt>
      <trkpt lat="53.252798" lon="6.598484">
        <ele>43.209289</ele>
        <time>2026-05-07T16:33:13.994Z</time>
      </trkpt>
      <trkpt lat="53.252793" lon="6.598645">
        <ele>43.290511</ele>
        <time>2026-05-07T16:33:15.994Z</time>
      </trkpt>
      <trkpt lat="53.252777" lon="6.598802">
        <ele>43.370748</ele>
        <time>2026-05-07T16:33:17.991Z</time>
      </trkpt>
      <trkpt lat="53.252767" lon="6.598959">
        <ele>43.450293</ele>
        <time>2026-05-07T16:33:19.999Z</time>
      </trkpt>
      <trkpt lat="53.252752" lon="6.599128">
        <ele>43.510875</ele>
        <time>2026-05-07T16:33:21.996Z</time>
      </trkpt>
      <trkpt lat="53.252747" lon="6.599281">
        <ele>43.552416</ele>
        <time>2026-05-07T16:33:24.006Z</time>
      </trkpt>
      <trkpt lat="53.252744" lon="6.599435">
        <ele>43.594189</ele>
        <time>2026-05-07T16:33:25.997Z</time>
      </trkpt>
      <trkpt lat="53.252725" lon="6.599586">
        <ele>43.636021</ele>
        <time>2026-05-07T16:33:27.994Z</time>
      </trkpt>
      <trkpt lat="53.252701" lon="6.599811">
        <ele>43.697982</ele>
        <time>2026-05-07T16:33:30.996Z</time>
      </trkpt>
      <trkpt lat="53.252691" lon="6.599990">
        <ele>43.746721</ele>
        <time>2026-05-07T16:33:32.995Z</time>
      </trkpt>
      <trkpt lat="53.252673" lon="6.600157">
        <ele>43.792725</ele>
        <time>2026-05-07T16:33:34.995Z</time>
      </trkpt>
      <trkpt lat="53.252662" lon="6.600309">
        <ele>43.834233</ele>
        <time>2026-05-07T16:33:36.997Z</time>
      </trkpt>
      <trkpt lat="53.252652" lon="6.600459">
        <ele>43.875151</ele>
        <time>2026-05-07T16:33:38.995Z</time>
      </trkpt>
      <trkpt lat="53.252599" lon="6.600622">
        <ele>43.925446</ele>
        <time>2026-05-07T16:33:41.996Z</time>
      </trkpt>
      <trkpt lat="53.252532" lon="6.600743">
        <ele>43.970143</ele>
        <time>2026-05-07T16:33:44.997Z</time>
      </trkpt>
      <trkpt lat="53.252576" lon="6.600885">
        <ele>44.013497</ele>
        <time>2026-05-07T16:33:47.996Z</time>
      </trkpt>
      <trkpt lat="53.252651" lon="6.601026">
        <ele>44.064646</ele>
        <time>2026-05-07T16:33:50.993Z</time>
      </trkpt>
      <trkpt lat="53.252734" lon="6.601177">
        <ele>44.120237</ele>
        <time>2026-05-07T16:33:54.000Z</time>
      </trkpt>
      <trkpt lat="53.252820" lon="6.601314">
        <ele>44.174072</ele>
        <time>2026-05-07T16:33:57.000Z</time>
      </trkpt>
      <trkpt lat="53.252899" lon="6.601466">
        <ele>44.228657</ele>
        <time>2026-05-07T16:33:59.998Z</time>
      </trkpt>
      <trkpt lat="53.252977" lon="6.601615">
        <ele>44.282332</ele>
        <time>2026-05-07T16:34:02.991Z</time>
      </trkpt>
      <trkpt lat="53.253050" lon="6.601759">
        <ele>44.280821</ele>
        <time>2026-05-07T16:34:05.998Z</time>
      </trkpt>
      <trkpt lat="53.253130" lon="6.601901">
        <ele>44.259005</ele>
        <time>2026-05-07T16:34:08.998Z</time>
      </trkpt>
      <trkpt lat="53.253205" lon="6.602042">
        <ele>44.237901</ele>
        <time>2026-05-07T16:34:11.999Z</time>
      </trkpt>
      <trkpt lat="53.253288" lon="6.602162">
        <ele>44.217384</ele>
        <time>2026-05-07T16:34:14.992Z</time>
      </trkpt>
      <trkpt lat="53.253366" lon="6.602286">
        <ele>44.197259</ele>
        <time>2026-05-07T16:34:17.998Z</time>
      </trkpt>
      <trkpt lat="53.253353" lon="6.602459">
        <ele>44.177756</ele>
        <time>2026-05-07T16:34:21.990Z</time>
      </trkpt>
      <trkpt lat="53.253425" lon="6.602597">
        <ele>44.157276</ele>
        <time>2026-05-07T16:34:25.999Z</time>
      </trkpt>
      <trkpt lat="53.253532" lon="6.602621">
        <ele>44.137092</ele>
        <time>2026-05-07T16:34:28.996Z</time>
      </trkpt>
      <trkpt lat="53.253628" lon="6.602616">
        <ele>44.119135</ele>
        <time>2026-05-07T16:34:32.004Z</time>
      </trkpt>
      <trkpt lat="53.253712" lon="6.602693">
        <ele>44.101224</ele>
        <time>2026-05-07T16:34:34.988Z</time>
      </trkpt>
      <trkpt lat="53.253722" lon="6.602870">
        <ele>44.081338</ele>
        <time>2026-05-07T16:34:37.998Z</time>
      </trkpt>
      <trkpt lat="53.253723" lon="6.603042">
        <ele>44.062099</ele>
        <time>2026-05-07T16:34:40.995Z</time>
      </trkpt>
      <trkpt lat="53.253718" lon="6.603208">
        <ele>44.043508</ele>
        <time>2026-05-07T16:34:43.998Z</time>
      </trkpt>
      <trkpt lat="53.253704" lon="6.603377">
        <ele>44.024425</ele>
        <time>2026-05-07T16:34:47.000Z</time>
      </trkpt>
      <trkpt lat="53.253708" lon="6.603541">
        <ele>44.006066</ele>
        <time>2026-05-07T16:34:49.999Z</time>
      </trkpt>
      <trkpt lat="53.253790" lon="6.603633">
        <ele>43.987602</ele>
        <time>2026-05-07T16:34:52.999Z</time>
      </trkpt>
      <trkpt lat="53.253895" lon="6.603624">
        <ele>43.967946</ele>
        <time>2026-05-07T16:34:55.992Z</time>
      </trkpt>
      <trkpt lat="53.253982" lon="6.603666">
        <ele>43.863808</ele>
        <time>2026-05-07T16:34:59.998Z</time>
      </trkpt>
      <trkpt lat="53.254025" lon="6.603817">
        <ele>43.662271</ele>
        <time>2026-05-07T16:35:07.997Z</time>
      </trkpt>
      <trkpt lat="53.254004" lon="6.603985">
        <ele>43.455439</ele>
        <time>2026-05-07T16:35:11.990Z</time>
      </trkpt>
      <trkpt lat="53.253986" lon="6.604164">
        <ele>43.236696</ele>
        <time>2026-05-07T16:35:14.995Z</time>
      </trkpt>
      <trkpt lat="53.253970" lon="6.604361">
        <ele>42.997109</ele>
        <time>2026-05-07T16:35:17.996Z</time>
      </trkpt>
      <trkpt lat="53.253950" lon="6.604528">
        <ele>42.791861</ele>
        <time>2026-05-07T16:35:21.002Z</time>
      </trkpt>
      <trkpt lat="53.253933" lon="6.604700">
        <ele>42.581770</ele>
        <time>2026-05-07T16:35:23.994Z</time>
      </trkpt>
      <trkpt lat="53.253905" lon="6.604864">
        <ele>42.376239</ele>
        <time>2026-05-07T16:35:26.996Z</time>
      </trkpt>
      <trkpt lat="53.253853" lon="6.605042">
        <ele>42.137519</ele>
        <time>2026-05-07T16:35:29.995Z</time>
      </trkpt>
      <trkpt lat="53.253804" lon="6.605212">
        <ele>41.910111</ele>
        <time>2026-05-07T16:35:32.994Z</time>
      </trkpt>
      <trkpt lat="53.253730" lon="6.605302">
        <ele>41.725765</ele>
        <time>2026-05-07T16:35:36.992Z</time>
      </trkpt>
      <trkpt lat="53.253663" lon="6.605405">
        <ele>41.542401</ele>
        <time>2026-05-07T16:35:48.996Z</time>
      </trkpt>
      <trkpt lat="53.253568" lon="6.605351">
        <ele>41.340275</ele>
        <time>2026-05-07T16:37:26.996Z</time>
      </trkpt>
      <trkpt lat="53.253468" lon="6.605369">
        <ele>41.137675</ele>
        <time>2026-05-07T16:37:30.990Z</time>
      </trkpt>
      <trkpt lat="53.253372" lon="6.605386">
        <ele>40.943215</ele>
        <time>2026-05-07T16:37:35.000Z</time>
      </trkpt>
      <trkpt lat="53.253273" lon="6.605323">
        <ele>40.729831</ele>
        <time>2026-05-07T16:37:38.998Z</time>
      </trkpt>
      <trkpt lat="53.253181" lon="6.605282">
        <ele>40.538036</ele>
        <time>2026-05-07T16:37:41.990Z</time>
      </trkpt>
      <trkpt lat="53.253063" lon="6.605244">
        <ele>40.345989</ele>
        <time>2026-05-07T16:37:45.992Z</time>
      </trkpt>
      <trkpt lat="53.252969" lon="6.605199">
        <ele>40.390072</ele>
        <time>2026-05-07T16:37:48.997Z</time>
      </trkpt>
      <trkpt lat="53.252885" lon="6.605142">
        <ele>40.430945</ele>
        <time>2026-05-07T16:37:51.992Z</time>
      </trkpt>
      <trkpt lat="53.252834" lon="6.604970">
        <ele>40.482724</ele>
        <time>2026-05-07T16:37:55.997Z</time>
      </trkpt>
      <trkpt lat="53.252804" lon="6.604824">
        <ele>40.524363</ele>
        <time>2026-05-07T16:37:58.996Z</time>
      </trkpt>
      <trkpt lat="53.252857" lon="6.604653">
        <ele>40.576309</ele>
        <time>2026-05-07T16:38:02.997Z</time>
      </trkpt>
      <trkpt lat="53.252894" lon="6.604500">
        <ele>40.620822</ele>
        <time>2026-05-07T16:38:05.997Z</time>
      </trkpt>
      <trkpt lat="53.252960" lon="6.604368">
        <ele>40.667223</ele>
        <time>2026-05-07T16:38:08.993Z</time>
      </trkpt>
      <trkpt lat="53.253016" lon="6.604224">
        <ele>40.713549</ele>
        <time>2026-05-07T16:38:12.001Z</time>
      </trkpt>
      <trkpt lat="53.253054" lon="6.604068">
        <ele>40.758981</ele>
        <time>2026-05-07T16:38:14.994Z</time>
      </trkpt>
      <trkpt lat="53.253060" lon="6.603892">
        <ele>40.806530</ele>
        <time>2026-05-07T16:38:18.001Z</time>
      </trkpt>
      <trkpt lat="53.253064" lon="6.603724">
        <ele>40.851881</ele>
        <time>2026-05-07T16:38:20.994Z</time>
      </trkpt>
      <trkpt lat="53.253074" lon="6.603561">
        <ele>40.896078</ele>
        <time>2026-05-07T16:38:23.993Z</time>
      </trkpt>
      <trkpt lat="53.252993" lon="6.603459">
        <ele>40.941800</ele>
        <time>2026-05-07T16:38:26.994Z</time>
      </trkpt>
      <trkpt lat="53.252877" lon="6.603422">
        <ele>40.995041</ele>
        <time>2026-05-07T16:38:29.992Z</time>
      </trkpt>
      <trkpt lat="53.252763" lon="6.603377">
        <ele>41.047851</ele>
        <time>2026-05-07T16:38:32.996Z</time>
      </trkpt>
      <trkpt lat="53.252662" lon="6.603346">
        <ele>41.094148</ele>
        <time>2026-05-07T16:38:35.996Z</time>
      </trkpt>
      <trkpt lat="53.252568" lon="6.603316">
        <ele>41.137293</ele>
        <time>2026-05-07T16:38:38.998Z</time>
      </trkpt>
      <trkpt lat="53.252495" lon="6.603202">
        <ele>41.194033</ele>
        <time>2026-05-07T16:38:42.997Z</time>
      </trkpt>
      <trkpt lat="53.252414" lon="6.603097">
        <ele>41.255879</ele>
        <time>2026-05-07T16:38:46.992Z</time>
      </trkpt>
      <trkpt lat="53.252316" lon="6.603069">
        <ele>41.315865</ele>
        <time>2026-05-07T16:38:50.996Z</time>
      </trkpt>
      <trkpt lat="53.252221" lon="6.602950">
        <ele>41.387493</ele>
        <time>2026-05-07T16:38:54.996Z</time>
      </trkpt>
      <trkpt lat="53.252146" lon="6.602836">
        <ele>41.448657</ele>
        <time>2026-05-07T16:38:58.993Z</time>
      </trkpt>
      <trkpt lat="53.252042" lon="6.602838">
        <ele>41.511409</ele>
        <time>2026-05-07T16:39:01.986Z</time>
      </trkpt>
      <trkpt lat="53.251940" lon="6.602781">
        <ele>41.576299</ele>
        <time>2026-05-07T16:39:04.995Z</time>
      </trkpt>
      <trkpt lat="53.251839" lon="6.602691">
        <ele>41.645356</ele>
        <time>2026-05-07T16:39:08.995Z</time>
      </trkpt>
      <trkpt lat="53.251817" lon="6.602537">
        <ele>41.702510</ele>
        <time>2026-05-07T16:39:13.995Z</time>
      </trkpt>
      <trkpt lat="53.251879" lon="6.602376">
        <ele>41.771626</ele>
        <time>2026-05-07T16:39:17.996Z</time>
      </trkpt>
      <trkpt lat="53.251846" lon="6.602520">
        <ele>41.827289</ele>
        <time>2026-05-07T16:39:28.994Z</time>
      </trkpt>
      <trkpt lat="53.251779" lon="6.602656">
        <ele>41.890884</ele>
        <time>2026-05-07T16:39:31.993Z</time>
      </trkpt>
      <trkpt lat="53.251695" lon="6.602770">
        <ele>41.956168</ele>
        <time>2026-05-07T16:39:34.994Z</time>
      </trkpt>
      <trkpt lat="53.251594" lon="6.602772">
        <ele>42.017110</ele>
        <time>2026-05-07T16:39:37.996Z</time>
      </trkpt>
      <trkpt lat="53.251491" lon="6.602764">
        <ele>42.079322</ele>
        <time>2026-05-07T16:39:43.996Z</time>
      </trkpt>
      <trkpt lat="53.251404" lon="6.602687">
        <ele>42.138718</ele>
        <time>2026-05-07T16:39:47.994Z</time>
      </trkpt>
      <trkpt lat="53.251311" lon="6.602670">
        <ele>42.195164</ele>
        <time>2026-05-07T16:39:50.993Z</time>
      </trkpt>
      <trkpt lat="53.251245" lon="6.602544">
        <ele>42.216917</ele>
        <time>2026-05-07T16:39:53.993Z</time>
      </trkpt>
      <trkpt lat="53.251204" lon="6.602390">
        <ele>42.173886</ele>
        <time>2026-05-07T16:39:56.996Z</time>
      </trkpt>
      <trkpt lat="53.251171" lon="6.602206">
        <ele>42.124848</ele>
        <time>2026-05-07T16:40:00.992Z</time>
      </trkpt>
      <trkpt lat="53.251107" lon="6.602056">
        <ele>42.077814</ele>
        <time>2026-05-07T16:40:04.992Z</time>
      </trkpt>
      <trkpt lat="53.251015" lon="6.601966">
        <ele>42.032329</ele>
        <time>2026-05-07T16:40:08.993Z</time>
      </trkpt>
      <trkpt lat="53.250923" lon="6.601933">
        <ele>41.992180</ele>
        <time>2026-05-07T16:40:12.993Z</time>
      </trkpt>
      <trkpt lat="53.250918" lon="6.601781">
        <ele>41.953318</ele>
        <time>2026-05-07T16:40:17.992Z</time>
      </trkpt>
      <trkpt lat="53.250916" lon="6.601602">
        <ele>41.907612</ele>
        <time>2026-05-07T16:40:21.999Z</time>
      </trkpt>
      <trkpt lat="53.250851" lon="6.601466">
        <ele>41.863175</ele>
        <time>2026-05-07T16:40:28.007Z</time>
      </trkpt>
      <trkpt lat="53.250744" lon="6.601445">
        <ele>41.817206</ele>
        <time>2026-05-07T16:40:30.993Z</time>
      </trkpt>
      <trkpt lat="53.250623" lon="6.601446">
        <ele>41.765576</ele>
        <time>2026-05-07T16:40:33.998Z</time>
      </trkpt>
      <trkpt lat="53.250500" lon="6.601455">
        <ele>41.713043</ele>
        <time>2026-05-07T16:40:36.998Z</time>
      </trkpt>
      <trkpt lat="53.250380" lon="6.601487">
        <ele>41.661193</ele>
        <time>2026-05-07T16:40:39.992Z</time>
      </trkpt>
      <trkpt lat="53.250260" lon="6.601500">
        <ele>41.609884</ele>
        <time>2026-05-07T16:40:42.988Z</time>
      </trkpt>
      <trkpt lat="53.250153" lon="6.601491">
        <ele>41.564170</ele>
        <time>2026-05-07T16:40:45.994Z</time>
      </trkpt>
      <trkpt lat="53.250099" lon="6.601337">
        <ele>41.518600</ele>
        <time>2026-05-07T16:40:52.988Z</time>
      </trkpt>
      <trkpt lat="53.250008" lon="6.601240">
        <ele>41.472547</ele>
        <time>2026-05-07T16:40:57.994Z</time>
      </trkpt>
      <trkpt lat="53.249910" lon="6.601312">
        <ele>41.565518</ele>
        <time>2026-05-07T16:41:00.993Z</time>
      </trkpt>
      <trkpt lat="53.249795" lon="6.601330">
        <ele>41.693162</ele>
        <time>2026-05-07T16:41:04.993Z</time>
      </trkpt>
      <trkpt lat="53.249698" lon="6.601323">
        <ele>41.800459</ele>
        <time>2026-05-07T16:41:09.001Z</time>
      </trkpt>
      <trkpt lat="53.249582" lon="6.601367">
        <ele>41.931912</ele>
        <time>2026-05-07T16:41:12.994Z</time>
      </trkpt>
      <trkpt lat="53.249477" lon="6.601398">
        <ele>42.049746</ele>
        <time>2026-05-07T16:41:15.994Z</time>
      </trkpt>
      <trkpt lat="53.249382" lon="6.601417">
        <ele>42.155481</ele>
        <time>2026-05-07T16:41:18.999Z</time>
      </trkpt>
      <trkpt lat="53.249292" lon="6.601427">
        <ele>42.255161</ele>
        <time>2026-05-07T16:41:21.992Z</time>
      </trkpt>
      <trkpt lat="53.249180" lon="6.601450">
        <ele>42.379865</ele>
        <time>2026-05-07T16:41:25.998Z</time>
      </trkpt>
      <trkpt lat="53.249087" lon="6.601452">
        <ele>42.482649</ele>
        <time>2026-05-07T16:41:32.995Z</time>
      </trkpt>
      <trkpt lat="53.249025" lon="6.601225">
        <ele>42.647648</ele>
        <time>2026-05-07T16:41:59.988Z</time>
      </trkpt>
      <trkpt lat="53.249032" lon="6.601071">
        <ele>42.749771</ele>
        <time>2026-05-07T16:42:03.994Z</time>
      </trkpt>
      <trkpt lat="53.249020" lon="6.600885">
        <ele>42.873474</ele>
        <time>2026-05-07T16:42:08.999Z</time>
      </trkpt>
      <trkpt lat="53.249018" lon="6.600716">
        <ele>42.985244</ele>
        <time>2026-05-07T16:42:12.993Z</time>
      </trkpt>
      <trkpt lat="53.249027" lon="6.600557">
        <ele>43.090849</ele>
        <time>2026-05-07T16:42:17.998Z</time>
      </trkpt>
      <trkpt lat="53.249008" lon="6.600403">
        <ele>43.194822</ele>
        <time>2026-05-07T16:42:23.997Z</time>
      </trkpt>
      <trkpt lat="53.248998" lon="6.600249">
        <ele>43.297250</ele>
        <time>2026-05-07T16:42:27.997Z</time>
      </trkpt>
      <trkpt lat="53.248932" lon="6.600131">
        <ele>43.404057</ele>
        <time>2026-05-07T16:42:31.995Z</time>
      </trkpt>
      <trkpt lat="53.248922" lon="6.599965">
        <ele>43.488934</ele>
        <time>2026-05-07T16:42:35.997Z</time>
      </trkpt>
      <trkpt lat="53.248917" lon="6.599783">
        <ele>43.559301</ele>
        <time>2026-05-07T16:42:39.988Z</time>
      </trkpt>
      <trkpt lat="53.248836" lon="6.599706">
        <ele>43.619452</ele>
        <time>2026-05-07T16:42:44.995Z</time>
      </trkpt>
      <trkpt lat="53.248738" lon="6.599683">
        <ele>43.683331</ele>
        <time>2026-05-07T16:42:48.995Z</time>
      </trkpt>
      <trkpt lat="53.248659" lon="6.599610">
        <ele>43.741601</ele>
        <time>2026-05-07T16:42:56.995Z</time>
      </trkpt>
      <trkpt lat="53.248633" lon="6.599450">
        <ele>43.805635</ele>
        <time>2026-05-07T16:43:01.001Z</time>
      </trkpt>
      <trkpt lat="53.248623" lon="6.599274">
        <ele>43.873917</ele>
        <time>2026-05-07T16:43:04.991Z</time>
      </trkpt>
      <trkpt lat="53.248559" lon="6.599140">
        <ele>43.940138</ele>
        <time>2026-05-07T16:43:10.001Z</time>
      </trkpt>
      <trkpt lat="53.248533" lon="6.598984">
        <ele>44.002683</ele>
        <time>2026-05-07T16:43:12.992Z</time>
      </trkpt>
      <trkpt lat="53.248522" lon="6.598804">
        <ele>44.072566</ele>
        <time>2026-05-07T16:43:16.001Z</time>
      </trkpt>
      <trkpt lat="53.248508" lon="6.598619">
        <ele>44.144588</ele>
        <time>2026-05-07T16:43:18.992Z</time>
      </trkpt>
      <trkpt lat="53.248494" lon="6.598450">
        <ele>44.210483</ele>
        <time>2026-05-07T16:43:21.992Z</time>
      </trkpt>
      <trkpt lat="53.248491" lon="6.598297">
        <ele>44.269608</ele>
        <time>2026-05-07T16:43:25.000Z</time>
      </trkpt>
      <trkpt lat="53.248574" lon="6.598229">
        <ele>44.329275</ele>
        <time>2026-05-07T16:43:27.992Z</time>
      </trkpt>
      <trkpt lat="53.248678" lon="6.598224">
        <ele>44.396434</ele>
        <time>2026-05-07T16:43:30.998Z</time>
      </trkpt>
      <trkpt lat="53.248780" lon="6.598207">
        <ele>44.462601</ele>
        <time>2026-05-07T16:43:33.996Z</time>
      </trkpt>
      <trkpt lat="53.248879" lon="6.598127">
        <ele>44.533583</ele>
        <time>2026-05-07T16:43:36.997Z</time>
      </trkpt>
      <trkpt lat="53.248901" lon="6.597932">
        <ele>44.610224</ele>
        <time>2026-05-07T16:43:39.999Z</time>
      </trkpt>
      <trkpt lat="53.248885" lon="6.597712">
        <ele>44.468901</ele>
        <time>2026-05-07T16:43:42.993Z</time>
      </trkpt>
      <trkpt lat="53.248857" lon="6.597520">
        <ele>44.332984</ele>
        <time>2026-05-07T16:43:45.996Z</time>
      </trkpt>
      <trkpt lat="53.248830" lon="6.597348">
        <ele>44.210684</ele>
        <time>2026-05-07T16:43:48.994Z</time>
      </trkpt>
      <trkpt lat="53.248812" lon="6.597160">
        <ele>44.079739</ele>
        <time>2026-05-07T16:43:51.998Z</time>
      </trkpt>
      <trkpt lat="53.248793" lon="6.596963">
        <ele>43.942500</ele>
        <time>2026-05-07T16:43:54.993Z</time>
      </trkpt>
      <trkpt lat="53.248772" lon="6.596764">
        <ele>43.803522</ele>
        <time>2026-05-07T16:43:57.991Z</time>
      </trkpt>
      <trkpt lat="53.248754" lon="6.596569">
        <ele>43.667820</ele>
        <time>2026-05-07T16:44:00.992Z</time>
      </trkpt>
      <trkpt lat="53.248733" lon="6.596371">
        <ele>43.529519</ele>
        <time>2026-05-07T16:44:03.990Z</time>
      </trkpt>
      <trkpt lat="53.248712" lon="6.596173">
        <ele>43.391218</ele>
        <time>2026-05-07T16:44:07.001Z</time>
      </trkpt>
      <trkpt lat="53.248689" lon="6.595999">
        <ele>43.268660</ele>
        <time>2026-05-07T16:44:10.002Z</time>
      </trkpt>
      <trkpt lat="53.248656" lon="6.595840">
        <ele>43.152913</ele>
        <time>2026-05-07T16:44:12.994Z</time>
      </trkpt>
      <trkpt lat="53.248557" lon="6.595775">
        <ele>43.030650</ele>
        <time>2026-05-07T16:44:16.000Z</time>
      </trkpt>
      <trkpt lat="53.248494" lon="6.595618">
        <ele>42.900635</ele>
        <time>2026-05-07T16:44:18.994Z</time>
      </trkpt>
      <trkpt lat="53.248408" lon="6.595477">
        <ele>42.762157</ele>
        <time>2026-05-07T16:44:21.997Z</time>
      </trkpt>
      <trkpt lat="53.248323" lon="6.595332">
        <ele>42.622544</ele>
        <time>2026-05-07T16:44:24.992Z</time>
      </trkpt>
      <trkpt lat="53.248274" lon="6.595175">
        <ele>42.566465</ele>
        <time>2026-05-07T16:44:27.995Z</time>
      </trkpt>
      <trkpt lat="53.248210" lon="6.595001">
        <ele>42.626678</ele>
        <time>2026-05-07T16:44:30.994Z</time>
      </trkpt>
      <trkpt lat="53.248191" lon="6.594796">
        <ele>42.687835</ele>
        <time>2026-05-07T16:44:33.992Z</time>
      </trkpt>
      <trkpt lat="53.248164" lon="6.594585">
        <ele>42.751446</ele>
        <time>2026-05-07T16:44:36.995Z</time>
      </trkpt>
      <trkpt lat="53.248141" lon="6.594433">
        <ele>42.797667</ele>
        <time>2026-05-07T16:44:39.004Z</time>
      </trkpt>
      <trkpt lat="53.248119" lon="6.594268">
        <ele>42.847504</ele>
        <time>2026-05-07T16:44:40.993Z</time>
      </trkpt>
      <trkpt lat="53.248104" lon="6.594107">
        <ele>42.895540</ele>
        <time>2026-05-07T16:44:42.992Z</time>
      </trkpt>
      <trkpt lat="53.248089" lon="6.593950">
        <ele>42.942411</ele>
        <time>2026-05-07T16:44:44.994Z</time>
      </trkpt>
      <trkpt lat="53.248068" lon="6.593784">
        <ele>42.992431</ele>
        <time>2026-05-07T16:44:46.995Z</time>
      </trkpt>
      <trkpt lat="53.248055" lon="6.593628">
        <ele>43.038865</ele>
        <time>2026-05-07T16:44:49.001Z</time>
      </trkpt>
      <trkpt lat="53.248034" lon="6.593474">
        <ele>43.085430</ele>
        <time>2026-05-07T16:44:50.994Z</time>
      </trkpt>
      <trkpt lat="53.248019" lon="6.593316">
        <ele>43.132593</ele>
        <time>2026-05-07T16:44:52.995Z</time>
      </trkpt>
      <trkpt lat="53.248010" lon="6.593141">
        <ele>43.184374</ele>
        <time>2026-05-07T16:44:54.993Z</time>
      </trkpt>
      <trkpt lat="53.247997" lon="6.592985">
        <ele>43.230809</ele>
        <time>2026-05-07T16:44:56.993Z</time>
      </trkpt>
      <trkpt lat="53.247980" lon="6.592830">
        <ele>43.277265</ele>
        <time>2026-05-07T16:44:59.000Z</time>
      </trkpt>
      <trkpt lat="53.247971" lon="6.592654">
        <ele>43.329341</ele>
        <time>2026-05-07T16:45:01.991Z</time>
      </trkpt>
      <trkpt lat="53.247933" lon="6.592493">
        <ele>43.380365</ele>
        <time>2026-05-07T16:45:04.991Z</time>
      </trkpt>
      <trkpt lat="53.247911" lon="6.592308">
        <ele>43.432732</ele>
        <time>2026-05-07T16:45:07.994Z</time>
      </trkpt>
      <trkpt lat="53.247892" lon="6.592155">
        <ele>43.429492</ele>
        <time>2026-05-07T16:45:13.995Z</time>
      </trkpt>
      <trkpt lat="53.247821" lon="6.591885">
        <ele>43.423377</ele>
        <time>2026-05-07T16:45:50.991Z</time>
      </trkpt>
      <trkpt lat="53.247782" lon="6.591735">
        <ele>43.419986</ele>
        <time>2026-05-07T16:45:53.995Z</time>
      </trkpt>
      <trkpt lat="53.247760" lon="6.591570">
        <ele>43.416481</ele>
        <time>2026-05-07T16:45:57.993Z</time>
      </trkpt>
      <trkpt lat="53.247743" lon="6.591400">
        <ele>43.412907</ele>
        <time>2026-05-07T16:46:02.994Z</time>
      </trkpt>
      <trkpt lat="53.247735" lon="6.591232">
        <ele>43.409413</ele>
        <time>2026-05-07T16:46:04.991Z</time>
      </trkpt>
      <trkpt lat="53.247718" lon="6.591060">
        <ele>43.405798</ele>
        <time>2026-05-07T16:46:06.998Z</time>
      </trkpt>
      <trkpt lat="53.247701" lon="6.590851">
        <ele>43.401425</ele>
        <time>2026-05-07T16:46:09.996Z</time>
      </trkpt>
      <trkpt lat="53.247672" lon="6.590648">
        <ele>43.397098</ele>
        <time>2026-05-07T16:46:12.992Z</time>
      </trkpt>
      <trkpt lat="53.247653" lon="6.590425">
        <ele>43.392427</ele>
        <time>2026-05-07T16:46:15.991Z</time>
      </trkpt>
      <trkpt lat="53.247635" lon="6.590214">
        <ele>43.388008</ele>
        <time>2026-05-07T16:46:18.995Z</time>
      </trkpt>
      <trkpt lat="53.247620" lon="6.590006">
        <ele>43.383664</ele>
        <time>2026-05-07T16:46:21.988Z</time>
      </trkpt>
      <trkpt lat="53.247602" lon="6.589803">
        <ele>43.379409</ele>
        <time>2026-05-07T16:46:24.990Z</time>
      </trkpt>
      <trkpt lat="53.247588" lon="6.589654">
        <ele>43.376282</ele>
        <time>2026-05-07T16:46:26.994Z</time>
      </trkpt>
      <trkpt lat="53.247565" lon="6.589432">
        <ele>43.371610</ele>
        <time>2026-05-07T16:46:29.992Z</time>
      </trkpt>
      <trkpt lat="53.247551" lon="6.589272">
        <ele>43.345469</ele>
        <time>2026-05-07T16:46:31.995Z</time>
      </trkpt>
      <trkpt lat="53.247533" lon="6.589117">
        <ele>43.310594</ele>
        <time>2026-05-07T16:46:33.993Z</time>
      </trkpt>
      <trkpt lat="53.247518" lon="6.588965">
        <ele>43.276566</ele>
        <time>2026-05-07T16:46:35.995Z</time>
      </trkpt>
      <trkpt lat="53.247504" lon="6.588747">
        <ele>43.228137</ele>
        <time>2026-05-07T16:46:38.992Z</time>
      </trkpt>
      <trkpt lat="53.247489" lon="6.588540">
        <ele>43.182081</ele>
        <time>2026-05-07T16:46:41.992Z</time>
      </trkpt>
      <trkpt lat="53.247477" lon="6.588388">
        <ele>43.148216</ele>
        <time>2026-05-07T16:46:43.995Z</time>
      </trkpt>
      <trkpt lat="53.247460" lon="6.588239">
        <ele>43.114711</ele>
        <time>2026-05-07T16:46:45.992Z</time>
      </trkpt>
      <trkpt lat="53.247444" lon="6.588087">
        <ele>43.080621</ele>
        <time>2026-05-07T16:46:47.994Z</time>
      </trkpt>
      <trkpt lat="53.247427" lon="6.587879">
        <ele>43.034251</ele>
        <time>2026-05-07T16:46:51.006Z</time>
      </trkpt>
      <trkpt lat="53.247406" lon="6.587699">
        <ele>42.993744</ele>
        <time>2026-05-07T16:46:54.999Z</time>
      </trkpt>
      <trkpt lat="53.247394" lon="6.587548">
        <ele>42.960097</ele>
        <time>2026-05-07T16:46:59.995Z</time>
      </trkpt>
      <trkpt lat="53.247376" lon="6.587384">
        <ele>42.923268</ele>
        <time>2026-05-07T16:47:02.993Z</time>
      </trkpt>
      <trkpt lat="53.247352" lon="6.587160">
        <ele>42.873004</ele>
        <time>2026-05-07T16:47:05.997Z</time>
      </trkpt>
      <trkpt lat="53.247338" lon="6.587006">
        <ele>42.838597</ele>
        <time>2026-05-07T16:47:07.992Z</time>
      </trkpt>
      <trkpt lat="53.247317" lon="6.586840">
        <ele>42.801120</ele>
        <time>2026-05-07T16:47:09.998Z</time>
      </trkpt>
      <trkpt lat="53.247303" lon="6.586691">
        <ele>42.767805</ele>
        <time>2026-05-07T16:47:11.996Z</time>
      </trkpt>
      <trkpt lat="53.247291" lon="6.586532">
        <ele>42.732406</ele>
        <time>2026-05-07T16:47:14.005Z</time>
      </trkpt>
      <trkpt lat="53.247279" lon="6.586366">
        <ele>42.682037</ele>
        <time>2026-05-07T16:47:15.995Z</time>
      </trkpt>
      <trkpt lat="53.247262" lon="6.586207">
        <ele>42.603494</ele>
        <time>2026-05-07T16:47:17.995Z</time>
      </trkpt>
      <trkpt lat="53.247240" lon="6.586055">
        <ele>42.527447</ele>
        <time>2026-05-07T16:47:19.997Z</time>
      </trkpt>
      <trkpt lat="53.247184" lon="6.585920">
        <ele>42.447566</ele>
        <time>2026-05-07T16:47:21.994Z</time>
      </trkpt>
      <trkpt lat="53.247104" lon="6.585827">
        <ele>42.368369</ele>
        <time>2026-05-07T16:47:23.994Z</time>
      </trkpt>
      <trkpt lat="53.247011" lon="6.585790">
        <ele>42.290676</ele>
        <time>2026-05-07T16:47:25.994Z</time>
      </trkpt>
      <trkpt lat="53.246915" lon="6.585780">
        <ele>42.212507</ele>
        <time>2026-05-07T16:47:28.006Z</time>
      </trkpt>
      <trkpt lat="53.246819" lon="6.585787">
        <ele>42.134414</ele>
        <time>2026-05-07T16:47:29.987Z</time>
      </trkpt>
      <trkpt lat="53.246687" lon="6.585793">
        <ele>42.027099</ele>
        <time>2026-05-07T16:47:32.994Z</time>
      </trkpt>
      <trkpt lat="53.246564" lon="6.585790">
        <ele>41.927128</ele>
        <time>2026-05-07T16:47:35.993Z</time>
      </trkpt>
      <trkpt lat="53.246441" lon="6.585792">
        <ele>41.827162</ele>
        <time>2026-05-07T16:47:38.994Z</time>
      </trkpt>
      <trkpt lat="53.246350" lon="6.585787">
        <ele>41.753167</ele>
        <time>2026-05-07T16:47:40.992Z</time>
      </trkpt>
      <trkpt lat="53.246256" lon="6.585782">
        <ele>41.676735</ele>
        <time>2026-05-07T16:47:42.994Z</time>
      </trkpt>
      <trkpt lat="53.246159" lon="6.585779">
        <ele>41.597891</ele>
        <time>2026-05-07T16:47:44.993Z</time>
      </trkpt>
      <trkpt lat="53.246066" lon="6.585780">
        <ele>41.522309</ele>
        <time>2026-05-07T16:47:46.994Z</time>
      </trkpt>
      <trkpt lat="53.245976" lon="6.585783">
        <ele>41.449153</ele>
        <time>2026-05-07T16:47:48.991Z</time>
      </trkpt>
      <trkpt lat="53.245881" lon="6.585781">
        <ele>41.371941</ele>
        <time>2026-05-07T16:47:50.993Z</time>
      </trkpt>
      <trkpt lat="53.245786" lon="6.585782">
        <ele>41.294734</ele>
        <time>2026-05-07T16:47:53.000Z</time>
      </trkpt>
      <trkpt lat="53.245692" lon="6.585773">
        <ele>41.279562</ele>
        <time>2026-05-07T16:47:54.990Z</time>
      </trkpt>
      <trkpt lat="53.245559" lon="6.585771">
        <ele>41.419829</ele>
        <time>2026-05-07T16:47:57.992Z</time>
      </trkpt>
      <trkpt lat="53.245437" lon="6.585693">
        <ele>41.557585</ele>
        <time>2026-05-07T16:48:01.000Z</time>
      </trkpt>
      <trkpt lat="53.245380" lon="6.585574">
        <ele>41.653777</ele>
        <time>2026-05-07T16:48:02.991Z</time>
      </trkpt>
      <trkpt lat="53.245363" lon="6.585364">
        <ele>41.787507</ele>
        <time>2026-05-07T16:48:05.997Z</time>
      </trkpt>
      <trkpt lat="53.245345" lon="6.585214">
        <ele>41.884051</ele>
        <time>2026-05-07T16:48:08.013Z</time>
      </trkpt>
      <trkpt lat="53.245330" lon="6.585059">
        <ele>41.983137</ele>
        <time>2026-05-07T16:48:09.996Z</time>
      </trkpt>
      <trkpt lat="53.245308" lon="6.584900">
        <ele>42.086123</ele>
        <time>2026-05-07T16:48:11.992Z</time>
      </trkpt>
      <trkpt lat="53.245294" lon="6.584748">
        <ele>42.183175</ele>
        <time>2026-05-07T16:48:14.002Z</time>
      </trkpt>
      <trkpt lat="53.245283" lon="6.584583">
        <ele>42.287944</ele>
        <time>2026-05-07T16:48:15.996Z</time>
      </trkpt>
      <trkpt lat="53.245259" lon="6.584421">
        <ele>42.393263</ele>
        <time>2026-05-07T16:48:17.996Z</time>
      </trkpt>
      <trkpt lat="53.245239" lon="6.584260">
        <ele>42.497031</ele>
        <time>2026-05-07T16:48:19.995Z</time>
      </trkpt>
      <trkpt lat="53.245222" lon="6.584095">
        <ele>42.602689</ele>
        <time>2026-05-07T16:48:21.996Z</time>
      </trkpt>
      <trkpt lat="53.245200" lon="6.583947">
        <ele>42.698925</ele>
        <time>2026-05-07T16:48:23.994Z</time>
      </trkpt>
      <trkpt lat="53.245174" lon="6.583736">
        <ele>42.834873</ele>
        <time>2026-05-07T16:48:26.999Z</time>
      </trkpt>
      <trkpt lat="53.245151" lon="6.583525">
        <ele>42.970219</ele>
        <time>2026-05-07T16:48:29.996Z</time>
      </trkpt>
      <trkpt lat="53.245136" lon="6.583367">
        <ele>43.071175</ele>
        <time>2026-05-07T16:48:31.993Z</time>
      </trkpt>
      <trkpt lat="53.245120" lon="6.583207">
        <ele>43.101604</ele>
        <time>2026-05-07T16:48:33.995Z</time>
      </trkpt>
      <trkpt lat="53.245106" lon="6.583047">
        <ele>42.972642</ele>
        <time>2026-05-07T16:48:36.001Z</time>
      </trkpt>
      <trkpt lat="53.245085" lon="6.582880">
        <ele>42.836545</ele>
        <time>2026-05-07T16:48:37.990Z</time>
      </trkpt>
      <trkpt lat="53.245057" lon="6.582707">
        <ele>42.693614</ele>
        <time>2026-05-07T16:48:39.992Z</time>
      </trkpt>
      <trkpt lat="53.245034" lon="6.582517">
        <ele>42.539013</ele>
        <time>2026-05-07T16:48:41.994Z</time>
      </trkpt>
      <trkpt lat="53.245014" lon="6.582317">
        <ele>42.377294</ele>
        <time>2026-05-07T16:48:43.993Z</time>
      </trkpt>
      <trkpt lat="53.245004" lon="6.582112">
        <ele>42.213257</ele>
        <time>2026-05-07T16:48:45.988Z</time>
      </trkpt>
      <trkpt lat="53.244943" lon="6.581489">
        <ele>41.709785</ele>
        <time>2026-05-07T16:48:51.993Z</time>
      </trkpt>
      <trkpt lat="53.244900" lon="6.581297">
        <ele>41.546284</ele>
        <time>2026-05-07T16:48:55.999Z</time>
      </trkpt>
      <trkpt lat="53.244875" lon="6.581135">
        <ele>41.412856</ele>
        <time>2026-05-07T16:48:58.001Z</time>
      </trkpt>
      <trkpt lat="53.244857" lon="6.580984">
        <ele>41.290062</ele>
        <time>2026-05-07T16:49:00.000Z</time>
      </trkpt>
      <trkpt lat="53.244838" lon="6.580833">
        <ele>41.167000</ele>
        <time>2026-05-07T16:49:01.992Z</time>
      </trkpt>
      <trkpt lat="53.244817" lon="6.580615">
        <ele>40.990898</ele>
        <time>2026-05-07T16:49:04.999Z</time>
      </trkpt>
      <trkpt lat="53.244793" lon="6.580461">
        <ele>40.863980</ele>
        <time>2026-05-07T16:49:07.005Z</time>
      </trkpt>
      <trkpt lat="53.244769" lon="6.580312">
        <ele>40.751122</ele>
        <time>2026-05-07T16:49:08.996Z</time>
      </trkpt>
      <trkpt lat="53.244740" lon="6.580105">
        <ele>41.057862</ele>
        <time>2026-05-07T16:49:11.997Z</time>
      </trkpt>
      <trkpt lat="53.244722" lon="6.579951">
        <ele>41.284255</ele>
        <time>2026-05-07T16:49:13.992Z</time>
      </trkpt>
      <trkpt lat="53.244704" lon="6.579785">
        <ele>41.527664</ele>
        <time>2026-05-07T16:49:15.996Z</time>
      </trkpt>
      <trkpt lat="53.244691" lon="6.579618">
        <ele>41.770645</ele>
        <time>2026-05-07T16:49:17.993Z</time>
      </trkpt>
      <trkpt lat="53.244668" lon="6.579455">
        <ele>42.012275</ele>
        <time>2026-05-07T16:49:19.996Z</time>
      </trkpt>
      <trkpt lat="53.244650" lon="6.579301">
        <ele>42.238669</ele>
        <time>2026-05-07T16:49:21.998Z</time>
      </trkpt>
      <trkpt lat="53.244628" lon="6.579138">
        <ele>42.479757</ele>
        <time>2026-05-07T16:49:23.997Z</time>
      </trkpt>
      <trkpt lat="53.244608" lon="6.578967">
        <ele>42.731148</ele>
        <time>2026-05-07T16:49:25.994Z</time>
      </trkpt>
      <trkpt lat="53.244587" lon="6.578802">
        <ele>42.974539</ele>
        <time>2026-05-07T16:49:28.002Z</time>
      </trkpt>
      <trkpt lat="53.244566" lon="6.578646">
        <ele>43.205245</ele>
        <time>2026-05-07T16:49:29.996Z</time>
      </trkpt>
      <trkpt lat="53.244546" lon="6.578497">
        <ele>43.425568</ele>
        <time>2026-05-07T16:49:31.996Z</time>
      </trkpt>
      <trkpt lat="53.244498" lon="6.578297">
        <ele>43.736478</ele>
        <time>2026-05-07T16:49:34.994Z</time>
      </trkpt>
      <trkpt lat="53.244428" lon="6.578201">
        <ele>43.954817</ele>
        <time>2026-05-07T16:49:37.993Z</time>
      </trkpt>
      <trkpt lat="53.244341" lon="6.578247">
        <ele>44.174835</ele>
        <time>2026-05-07T16:49:39.993Z</time>
      </trkpt>
      <trkpt lat="53.244248" lon="6.578282">
        <ele>44.404687</ele>
        <time>2026-05-07T16:49:41.995Z</time>
      </trkpt>
      <trkpt lat="53.244139" lon="6.578312">
        <ele>44.671042</ele>
        <time>2026-05-07T16:49:43.998Z</time>
      </trkpt>
      <trkpt lat="53.244030" lon="6.578349">
        <ele>44.939223</ele>
        <time>2026-05-07T16:49:45.993Z</time>
      </trkpt>
      <trkpt lat="53.243925" lon="6.578387">
        <ele>45.027696</ele>
        <time>2026-05-07T16:49:47.995Z</time>
      </trkpt>
      <trkpt lat="53.243793" lon="6.578402">
        <ele>44.881393</ele>
        <time>2026-05-07T16:49:50.995Z</time>
      </trkpt>
      <trkpt lat="53.243736" lon="6.578210">
        <ele>44.739566</ele>
        <time>2026-05-07T16:49:53.997Z</time>
      </trkpt>
      <trkpt lat="53.243716" lon="6.578040">
        <ele>44.624919</ele>
        <time>2026-05-07T16:49:55.998Z</time>
      </trkpt>
      <trkpt lat="53.243695" lon="6.577871">
        <ele>44.510702</ele>
        <time>2026-05-07T16:49:57.992Z</time>
      </trkpt>
      <trkpt lat="53.243678" lon="6.577702">
        <ele>44.397301</ele>
        <time>2026-05-07T16:50:00.001Z</time>
      </trkpt>
      <trkpt lat="53.243649" lon="6.577532">
        <ele>44.280326</ele>
        <time>2026-05-07T16:50:01.993Z</time>
      </trkpt>
      <trkpt lat="53.243631" lon="6.577376">
        <ele>44.175195</ele>
        <time>2026-05-07T16:50:03.990Z</time>
      </trkpt>
      <trkpt lat="53.243607" lon="6.577160">
        <ele>44.029819</ele>
        <time>2026-05-07T16:50:06.998Z</time>
      </trkpt>
      <trkpt lat="53.243578" lon="6.576967">
        <ele>43.898141</ele>
        <time>2026-05-07T16:50:09.990Z</time>
      </trkpt>
      <trkpt lat="53.243564" lon="6.576785">
        <ele>43.776716</ele>
        <time>2026-05-07T16:50:12.995Z</time>
      </trkpt>
      <trkpt lat="53.243535" lon="6.576598">
        <ele>43.648885</ele>
        <time>2026-05-07T16:50:15.990Z</time>
      </trkpt>
      <trkpt lat="53.243442" lon="6.576640">
        <ele>43.542356</ele>
        <time>2026-05-07T16:50:19.994Z</time>
      </trkpt>
      <trkpt lat="53.243330" lon="6.576585">
        <ele>43.413269</ele>
        <time>2026-05-07T16:50:22.994Z</time>
      </trkpt>
      <trkpt lat="53.243260" lon="6.576487">
        <ele>43.312288</ele>
        <time>2026-05-07T16:50:24.993Z</time>
      </trkpt>
      <trkpt lat="53.243150" lon="6.576352">
        <ele>43.161369</ele>
        <time>2026-05-07T16:50:27.993Z</time>
      </trkpt>
      <trkpt lat="53.243061" lon="6.576254">
        <ele>43.034871</ele>
        <time>2026-05-07T16:50:29.988Z</time>
      </trkpt>
      <trkpt lat="53.242985" lon="6.576163">
        <ele>42.913214</ele>
        <time>2026-05-07T16:50:32.000Z</time>
      </trkpt>
      <trkpt lat="53.242877" lon="6.576029">
        <ele>42.738183</ele>
        <time>2026-05-07T16:50:34.996Z</time>
      </trkpt>
      <trkpt lat="53.242802" lon="6.575945">
        <ele>42.620701</ele>
        <time>2026-05-07T16:50:36.996Z</time>
      </trkpt>
      <trkpt lat="53.242702" lon="6.575823">
        <ele>42.459593</ele>
        <time>2026-05-07T16:50:39.994Z</time>
      </trkpt>
      <trkpt lat="53.242623" lon="6.575748">
        <ele>42.341367</ele>
        <time>2026-05-07T16:50:41.994Z</time>
      </trkpt>
      <trkpt lat="53.242545" lon="6.575643">
        <ele>42.211037</ele>
        <time>2026-05-07T16:50:43.998Z</time>
      </trkpt>
      <trkpt lat="53.242471" lon="6.575554">
        <ele>42.092402</ele>
        <time>2026-05-07T16:50:45.998Z</time>
      </trkpt>
      <trkpt lat="53.242394" lon="6.575472">
        <ele>41.973593</ele>
        <time>2026-05-07T16:50:47.996Z</time>
      </trkpt>
      <trkpt lat="53.242281" lon="6.575347">
        <ele>41.797259</ele>
        <time>2026-05-07T16:50:50.997Z</time>
      </trkpt>
      <trkpt lat="53.242201" lon="6.575256">
        <ele>41.671334</ele>
        <time>2026-05-07T16:50:52.993Z</time>
      </trkpt>
      <trkpt lat="53.242122" lon="6.575161">
        <ele>41.544688</ele>
        <time>2026-05-07T16:50:54.998Z</time>
      </trkpt>
      <trkpt lat="53.242042" lon="6.575072">
        <ele>41.419632</ele>
        <time>2026-05-07T16:50:56.999Z</time>
      </trkpt>
      <trkpt lat="53.241938" lon="6.574938">
        <ele>41.248751</ele>
        <time>2026-05-07T16:50:59.995Z</time>
      </trkpt>
      <trkpt lat="53.241861" lon="6.574859">
        <ele>41.131180</ele>
        <time>2026-05-07T16:51:01.995Z</time>
      </trkpt>
      <trkpt lat="53.241780" lon="6.574770">
        <ele>41.005039</ele>
        <time>2026-05-07T16:51:03.994Z</time>
      </trkpt>
      <trkpt lat="53.241705" lon="6.574668">
        <ele>40.879213</ele>
        <time>2026-05-07T16:51:06.995Z</time>
      </trkpt>
      <trkpt lat="53.241610" lon="6.574572">
        <ele>40.765539</ele>
        <time>2026-05-07T16:51:10.994Z</time>
      </trkpt>
      <trkpt lat="53.241517" lon="6.574453">
        <ele>40.885429</ele>
        <time>2026-05-07T16:51:13.996Z</time>
      </trkpt>
      <trkpt lat="53.241404" lon="6.574336">
        <ele>41.021491</ele>
        <time>2026-05-07T16:51:16.994Z</time>
      </trkpt>
      <trkpt lat="53.241300" lon="6.574219">
        <ele>41.149814</ele>
        <time>2026-05-07T16:51:19.999Z</time>
      </trkpt>
      <trkpt lat="53.241201" lon="6.574107">
        <ele>41.272183</ele>
        <time>2026-05-07T16:51:22.994Z</time>
      </trkpt>
      <trkpt lat="53.241111" lon="6.573993">
        <ele>41.387775</ele>
        <time>2026-05-07T16:51:25.994Z</time>
      </trkpt>
      <trkpt lat="53.241022" lon="6.573920">
        <ele>41.489252</ele>
        <time>2026-05-07T16:51:29.001Z</time>
      </trkpt>
      <trkpt lat="53.240942" lon="6.574008">
        <ele>41.587283</ele>
        <time>2026-05-07T16:51:31.993Z</time>
      </trkpt>
      <trkpt lat="53.240901" lon="6.574209">
        <ele>41.717357</ele>
        <time>2026-05-07T16:51:34.995Z</time>
      </trkpt>
      <trkpt lat="53.240875" lon="6.574365">
        <ele>41.816549</ele>
        <time>2026-05-07T16:51:36.995Z</time>
      </trkpt>
      <trkpt lat="53.240829" lon="6.574576">
        <ele>41.954102</ele>
        <time>2026-05-07T16:51:39.995Z</time>
      </trkpt>
      <trkpt lat="53.240834" lon="6.574776">
        <ele>42.076715</ele>
        <time>2026-05-07T16:51:42.995Z</time>
      </trkpt>
      <trkpt lat="53.240900" lon="6.574881">
        <ele>42.169989</ele>
        <time>2026-05-07T16:51:44.999Z</time>
      </trkpt>
      <trkpt lat="53.240972" lon="6.574979">
        <ele>42.265037</ele>
        <time>2026-05-07T16:51:46.997Z</time>
      </trkpt>
      <trkpt lat="53.241053" lon="6.575078">
        <ele>42.367753</ele>
        <time>2026-05-07T16:51:48.998Z</time>
      </trkpt>
      <trkpt lat="53.241135" lon="6.575159">
        <ele>42.465251</ele>
        <time>2026-05-07T16:51:50.992Z</time>
      </trkpt>
      <trkpt lat="53.241236" lon="6.575274">
        <ele>42.590345</ele>
        <time>2026-05-07T16:51:54.004Z</time>
      </trkpt>
      <trkpt lat="53.241338" lon="6.575391">
        <ele>42.661281</ele>
        <time>2026-05-07T16:51:56.990Z</time>
      </trkpt>
      <trkpt lat="53.241415" lon="6.575476">
        <ele>42.713322</ele>
        <time>2026-05-07T16:51:58.995Z</time>
      </trkpt>
      <trkpt lat="53.241528" lon="6.575595">
        <ele>42.788644</ele>
        <time>2026-05-07T16:52:01.995Z</time>
      </trkpt>
      <trkpt lat="53.241607" lon="6.575736">
        <ele>42.853827</ele>
        <time>2026-05-07T16:52:04.995Z</time>
      </trkpt>
      <trkpt lat="53.241558" lon="6.575934">
        <ele>42.926135</ele>
        <time>2026-05-07T16:52:08.007Z</time>
      </trkpt>
      <trkpt lat="53.241506" lon="6.576061">
        <ele>42.978066</ele>
        <time>2026-05-07T16:52:09.995Z</time>
      </trkpt>
      <trkpt lat="53.241427" lon="6.576234">
        <ele>43.051504</ele>
        <time>2026-05-07T16:52:12.994Z</time>
      </trkpt>
      <trkpt lat="53.241375" lon="6.576358">
        <ele>43.102603</ele>
        <time>2026-05-07T16:52:14.993Z</time>
      </trkpt>
      <trkpt lat="53.241289" lon="6.576499">
        <ele>43.170545</ele>
        <time>2026-05-07T16:52:17.986Z</time>
      </trkpt>
      <trkpt lat="53.241206" lon="6.576678">
        <ele>43.246964</ele>
        <time>2026-05-07T16:52:20.993Z</time>
      </trkpt>
      <trkpt lat="53.241147" lon="6.576803">
        <ele>43.300691</ele>
        <time>2026-05-07T16:52:22.999Z</time>
      </trkpt>
      <trkpt lat="53.241095" lon="6.576939">
        <ele>43.355155</ele>
        <time>2026-05-07T16:52:24.999Z</time>
      </trkpt>
      <trkpt lat="53.241040" lon="6.577063">
        <ele>43.407243</ele>
        <time>2026-05-07T16:52:26.993Z</time>
      </trkpt>
      <trkpt lat="53.240985" lon="6.577200">
        <ele>43.462917</ele>
        <time>2026-05-07T16:52:28.993Z</time>
      </trkpt>
      <trkpt lat="53.240927" lon="6.577320">
        <ele>43.514973</ele>
        <time>2026-05-07T16:52:30.992Z</time>
      </trkpt>
      <trkpt lat="53.240881" lon="6.577453">
        <ele>43.566815</ele>
        <time>2026-05-07T16:52:32.990Z</time>
      </trkpt>
      <trkpt lat="53.240808" lon="6.577641">
        <ele>43.610716</ele>
        <time>2026-05-07T16:52:35.993Z</time>
      </trkpt>
      <trkpt lat="53.240734" lon="6.577823">
        <ele>43.618057</ele>
        <time>2026-05-07T16:52:38.999Z</time>
      </trkpt>
      <trkpt lat="53.240668" lon="6.577985">
        <ele>43.624596</ele>
        <time>2026-05-07T16:52:41.986Z</time>
      </trkpt>
      <trkpt lat="53.240598" lon="6.578136">
        <ele>43.630969</ele>
        <time>2026-05-07T16:52:44.998Z</time>
      </trkpt>
      <trkpt lat="53.240535" lon="6.578297">
        <ele>43.637387</ele>
        <time>2026-05-07T16:52:47.997Z</time>
      </trkpt>
      <trkpt lat="53.240475" lon="6.578434">
        <ele>43.643051</ele>
        <time>2026-05-07T16:52:50.990Z</time>
      </trkpt>
      <trkpt lat="53.240418" lon="6.578571">
        <ele>43.648618</ele>
        <time>2026-05-07T16:52:53.992Z</time>
      </trkpt>
      <trkpt lat="53.240353" lon="6.578719">
        <ele>43.654743</ele>
        <time>2026-05-07T16:52:56.995Z</time>
      </trkpt>
      <trkpt lat="53.240297" lon="6.578871">
        <ele>43.660699</ele>
        <time>2026-05-07T16:52:59.998Z</time>
      </trkpt>
      <trkpt lat="53.240225" lon="6.579043">
        <ele>43.667702</ele>
        <time>2026-05-07T16:53:02.996Z</time>
      </trkpt>
      <trkpt lat="53.240175" lon="6.579182">
        <ele>43.673113</ele>
        <time>2026-05-07T16:53:04.995Z</time>
      </trkpt>
      <trkpt lat="53.240098" lon="6.579361">
        <ele>43.680468</ele>
        <time>2026-05-07T16:53:07.994Z</time>
      </trkpt>
      <trkpt lat="53.240021" lon="6.579532">
        <ele>43.687608</ele>
        <time>2026-05-07T16:53:10.994Z</time>
      </trkpt>
      <trkpt lat="53.239957" lon="6.579694">
        <ele>43.694085</ele>
        <time>2026-05-07T16:53:13.995Z</time>
      </trkpt>
      <trkpt lat="53.239893" lon="6.579850">
        <ele>43.700395</ele>
        <time>2026-05-07T16:53:16.992Z</time>
      </trkpt>
      <trkpt lat="53.239837" lon="6.579998">
        <ele>43.706238</ele>
        <time>2026-05-07T16:53:19.999Z</time>
      </trkpt>
      <trkpt lat="53.239784" lon="6.580125">
        <ele>43.645773</ele>
        <time>2026-05-07T16:53:22.998Z</time>
      </trkpt>
      <trkpt lat="53.239592" lon="6.580143">
        <ele>43.475692</ele>
        <time>2026-05-07T16:53:59.988Z</time>
      </trkpt>
      <trkpt lat="53.239512" lon="6.580044">
        <ele>43.387645</ele>
        <time>2026-05-07T16:54:02.995Z</time>
      </trkpt>
      <trkpt lat="53.239407" lon="6.579938">
        <ele>43.279144</ele>
        <time>2026-05-07T16:54:05.992Z</time>
      </trkpt>
      <trkpt lat="53.239313" lon="6.579817">
        <ele>43.174197</ele>
        <time>2026-05-07T16:54:08.994Z</time>
      </trkpt>
      <trkpt lat="53.239226" lon="6.579715">
        <ele>43.080198</ele>
        <time>2026-05-07T16:54:11.999Z</time>
      </trkpt>
      <trkpt lat="53.239144" lon="6.579617">
        <ele>42.991032</ele>
        <time>2026-05-07T16:54:14.992Z</time>
      </trkpt>
      <trkpt lat="53.239052" lon="6.579510">
        <ele>42.891892</ele>
        <time>2026-05-07T16:54:17.999Z</time>
      </trkpt>
      <trkpt lat="53.238945" lon="6.579399">
        <ele>42.780500</ele>
        <time>2026-05-07T16:54:20.991Z</time>
      </trkpt>
      <trkpt lat="53.238846" lon="6.579285">
        <ele>42.674161</ele>
        <time>2026-05-07T16:54:23.998Z</time>
      </trkpt>
      <trkpt lat="53.238754" lon="6.579176">
        <ele>42.574413</ele>
        <time>2026-05-07T16:54:26.991Z</time>
      </trkpt>
      <trkpt lat="53.238649" lon="6.579064">
        <ele>42.464236</ele>
        <time>2026-05-07T16:54:29.993Z</time>
      </trkpt>
      <trkpt lat="53.238537" lon="6.578963">
        <ele>42.351672</ele>
        <time>2026-05-07T16:54:32.993Z</time>
      </trkpt>
      <trkpt lat="53.238460" lon="6.578839">
        <ele>42.257088</ele>
        <time>2026-05-07T16:54:35.992Z</time>
      </trkpt>
      <trkpt lat="53.238375" lon="6.578729">
        <ele>42.161999</ele>
        <time>2026-05-07T16:54:38.996Z</time>
      </trkpt>
      <trkpt lat="53.238304" lon="6.578562">
        <ele>42.189823</ele>
        <time>2026-05-07T16:54:41.995Z</time>
      </trkpt>
      <trkpt lat="53.238262" lon="6.578370">
        <ele>42.315118</ele>
        <time>2026-05-07T16:54:44.995Z</time>
      </trkpt>
      <trkpt lat="53.238257" lon="6.578182">
        <ele>42.430460</ele>
        <time>2026-05-07T16:54:47.991Z</time>
      </trkpt>
      <trkpt lat="53.238240" lon="6.578024">
        <ele>42.528854</ele>
        <time>2026-05-07T16:54:50.994Z</time>
      </trkpt>
      <trkpt lat="53.238143" lon="6.578009">
        <ele>42.628617</ele>
        <time>2026-05-07T16:54:54.009Z</time>
      </trkpt>
      <trkpt lat="53.238020" lon="6.578017">
        <ele>42.754678</ele>
        <time>2026-05-07T16:54:56.994Z</time>
      </trkpt>
      <trkpt lat="53.237884" lon="6.578032">
        <ele>42.894260</ele>
        <time>2026-05-07T16:54:59.993Z</time>
      </trkpt>
      <trkpt lat="53.237795" lon="6.578011">
        <ele>42.986311</ele>
        <time>2026-05-07T16:55:01.994Z</time>
      </trkpt>
      <trkpt lat="53.237672" lon="6.577989">
        <ele>43.112996</ele>
        <time>2026-05-07T16:55:04.998Z</time>
      </trkpt>
      <trkpt lat="53.237546" lon="6.578012">
        <ele>43.242802</ele>
        <time>2026-05-07T16:55:07.990Z</time>
      </trkpt>
      <trkpt lat="53.237413" lon="6.578019">
        <ele>43.379076</ele>
        <time>2026-05-07T16:55:10.995Z</time>
      </trkpt>
      <trkpt lat="53.237288" lon="6.578032">
        <ele>43.507338</ele>
        <time>2026-05-07T16:55:13.997Z</time>
      </trkpt>
      <trkpt lat="53.237168" lon="6.578022">
        <ele>43.630384</ele>
        <time>2026-05-07T16:55:17.005Z</time>
      </trkpt>
      <trkpt lat="53.237058" lon="6.577972">
        <ele>43.747130</ele>
        <time>2026-05-07T16:55:19.998Z</time>
      </trkpt>
      <trkpt lat="53.236957" lon="6.577926">
        <ele>43.854339</ele>
        <time>2026-05-07T16:55:22.997Z</time>
      </trkpt>
      <trkpt lat="53.236843" lon="6.577856">
        <ele>44.011967</ele>
        <time>2026-05-07T16:55:26.000Z</time>
      </trkpt>
      <trkpt lat="53.236735" lon="6.577843">
        <ele>44.307158</ele>
        <time>2026-05-07T16:55:28.991Z</time>
      </trkpt>
      <trkpt lat="53.236652" lon="6.577965">
        <ele>44.608530</ele>
        <time>2026-05-07T16:55:31.997Z</time>
      </trkpt>
      <trkpt lat="53.236586" lon="6.578122">
        <ele>44.921574</ele>
        <time>2026-05-07T16:55:34.996Z</time>
      </trkpt>
      <trkpt lat="53.236541" lon="6.578293">
        <ele>45.226366</ele>
        <time>2026-05-07T16:55:37.995Z</time>
      </trkpt>
      <trkpt lat="53.236535" lon="6.578481">
        <ele>45.533553</ele>
        <time>2026-05-07T16:55:40.995Z</time>
      </trkpt>
      <trkpt lat="53.236505" lon="6.578633">
        <ele>45.794701</ele>
        <time>2026-05-07T16:55:43.995Z</time>
      </trkpt>
      <trkpt lat="53.236410" lon="6.578523">
        <ele>46.109802</ele>
        <time>2026-05-07T16:55:47.993Z</time>
      </trkpt>
      <trkpt lat="53.236449" lon="6.578365">
        <ele>46.388667</ele>
        <time>2026-05-07T16:55:50.993Z</time>
      </trkpt>
      <trkpt lat="53.236504" lon="6.578181">
        <ele>46.724252</ele>
        <time>2026-05-07T16:55:53.992Z</time>
      </trkpt>
      <trkpt lat="53.236555" lon="6.578015">
        <ele>47.028707</ele>
        <time>2026-05-07T16:55:56.995Z</time>
      </trkpt>
      <trkpt lat="53.236615" lon="6.577852">
        <ele>47.340941</ele>
        <time>2026-05-07T16:56:00.001Z</time>
      </trkpt>
      <trkpt lat="53.236671" lon="6.577699">
        <ele>47.633564</ele>
        <time>2026-05-07T16:56:02.994Z</time>
      </trkpt>
      <trkpt lat="53.236635" lon="6.577551">
        <ele>47.894230</ele>
        <time>2026-05-07T16:56:06.993Z</time>
      </trkpt>
      <trkpt lat="53.236565" lon="6.577679">
        <ele>48.177136</ele>
        <time>2026-05-07T16:56:09.994Z</time>
      </trkpt>
      <trkpt lat="53.236512" lon="6.577858">
        <ele>48.502988</ele>
        <time>2026-05-07T16:56:12.998Z</time>
      </trkpt>
      <trkpt lat="53.236460" lon="6.578021">
        <ele>48.804370</ele>
        <time>2026-05-07T16:56:15.993Z</time>
      </trkpt>
      <trkpt lat="53.236415" lon="6.578188">
        <ele>48.745292</ele>
        <time>2026-05-07T16:56:18.996Z</time>
      </trkpt>
      <trkpt lat="53.236323" lon="6.578250">
        <ele>48.614189</ele>
        <time>2026-05-07T16:56:22.999Z</time>
      </trkpt>
      <trkpt lat="53.236215" lon="6.578157">
        <ele>48.453617</ele>
        <time>2026-05-07T16:56:25.999Z</time>
      </trkpt>
      <trkpt lat="53.236114" lon="6.578083">
        <ele>48.307868</ele>
        <time>2026-05-07T16:56:28.995Z</time>
      </trkpt>
      <trkpt lat="53.236026" lon="6.578006">
        <ele>48.176586</ele>
        <time>2026-05-07T16:56:31.996Z</time>
      </trkpt>
      <trkpt lat="53.235929" lon="6.577911">
        <ele>48.027992</ele>
        <time>2026-05-07T16:56:34.992Z</time>
      </trkpt>
      <trkpt lat="53.235826" lon="6.577839">
        <ele>47.880436</ele>
        <time>2026-05-07T16:56:37.995Z</time>
      </trkpt>
      <trkpt lat="53.235711" lon="6.577790">
        <ele>47.723591</ele>
        <time>2026-05-07T16:56:40.994Z</time>
      </trkpt>
      <trkpt lat="53.235594" lon="6.577678">
        <ele>47.545385</ele>
        <time>2026-05-07T16:56:43.993Z</time>
      </trkpt>
      <trkpt lat="53.235482" lon="6.577583">
        <ele>47.379386</ele>
        <time>2026-05-07T16:56:46.994Z</time>
      </trkpt>
      <trkpt lat="53.235451" lon="6.577730">
        <ele>47.256103</ele>
        <time>2026-05-07T16:56:50.990Z</time>
      </trkpt>
      <trkpt lat="53.235544" lon="6.577850">
        <ele>47.100810</ele>
        <time>2026-05-07T16:56:53.993Z</time>
      </trkpt>
      <trkpt lat="53.235651" lon="6.577959">
        <ele>46.935190</ele>
        <time>2026-05-07T16:56:57.000Z</time>
      </trkpt>
      <trkpt lat="53.235760" lon="6.578064">
        <ele>46.768910</ele>
        <time>2026-05-07T16:56:59.995Z</time>
      </trkpt>
      <trkpt lat="53.235656" lon="6.578035">
        <ele>46.629565</ele>
        <time>2026-05-07T16:57:04.999Z</time>
      </trkpt>
      <trkpt lat="53.235569" lon="6.577953">
        <ele>46.497554</ele>
        <time>2026-05-07T16:57:06.997Z</time>
      </trkpt>
      <trkpt lat="53.235480" lon="6.577879">
        <ele>46.581568</ele>
        <time>2026-05-07T16:57:08.998Z</time>
      </trkpt>
      <trkpt lat="53.235398" lon="6.577809">
        <ele>46.680279</ele>
        <time>2026-05-07T16:57:10.992Z</time>
      </trkpt>
      <trkpt lat="53.235306" lon="6.577652">
        <ele>46.821250</ele>
        <time>2026-05-07T16:57:14.000Z</time>
      </trkpt>
      <trkpt lat="53.235196" lon="6.577608">
        <ele>46.942498</ele>
        <time>2026-05-07T16:57:17.000Z</time>
      </trkpt>
      <trkpt lat="53.235094" lon="6.577674">
        <ele>47.059752</ele>
        <time>2026-05-07T16:57:22.991Z</time>
      </trkpt>
      <trkpt lat="53.235041" lon="6.577813">
        <ele>47.165495</ele>
        <time>2026-05-07T16:57:25.995Z</time>
      </trkpt>
      <trkpt lat="53.234992" lon="6.578018">
        <ele>47.307125</ele>
        <time>2026-05-07T16:57:28.993Z</time>
      </trkpt>
      <trkpt lat="53.234948" lon="6.578156">
        <ele>47.407446</ele>
        <time>2026-05-07T16:57:30.989Z</time>
      </trkpt>
      <trkpt lat="53.234891" lon="6.578351">
        <ele>47.546683</ele>
        <time>2026-05-07T16:57:33.994Z</time>
      </trkpt>
      <trkpt lat="53.234829" lon="6.578543">
        <ele>47.686657</ele>
        <time>2026-05-07T16:57:36.996Z</time>
      </trkpt>
      <trkpt lat="53.234786" lon="6.578680">
        <ele>47.785910</ele>
        <time>2026-05-07T16:57:38.995Z</time>
      </trkpt>
      <trkpt lat="53.234718" lon="6.578866">
        <ele>47.925751</ele>
        <time>2026-05-07T16:57:42.000Z</time>
      </trkpt>
      <trkpt lat="53.234653" lon="6.579053">
        <ele>48.064498</ele>
        <time>2026-05-07T16:57:44.996Z</time>
      </trkpt>
      <trkpt lat="53.234590" lon="6.579225">
        <ele>48.193879</ele>
        <time>2026-05-07T16:57:47.993Z</time>
      </trkpt>
      <trkpt lat="53.234541" lon="6.579352">
        <ele>48.290827</ele>
        <time>2026-05-07T16:57:49.997Z</time>
      </trkpt>
      <trkpt lat="53.234454" lon="6.579531">
        <ele>48.419613</ele>
        <time>2026-05-07T16:57:52.992Z</time>
      </trkpt>
      <trkpt lat="53.234396" lon="6.579653">
        <ele>48.444726</ele>
        <time>2026-05-07T16:57:54.999Z</time>
      </trkpt>
      <trkpt lat="53.234318" lon="6.579850">
        <ele>48.482798</ele>
        <time>2026-05-07T16:57:57.993Z</time>
      </trkpt>
      <trkpt lat="53.234262" lon="6.580045">
        <ele>48.517660</ele>
        <time>2026-05-07T16:58:00.996Z</time>
      </trkpt>
      <trkpt lat="53.234188" lon="6.580234">
        <ele>48.554063</ele>
        <time>2026-05-07T16:58:03.996Z</time>
      </trkpt>
      <trkpt lat="53.234111" lon="6.580420">
        <ele>48.590516</ele>
        <time>2026-05-07T16:58:06.995Z</time>
      </trkpt>
      <trkpt lat="53.234068" lon="6.580555">
        <ele>48.615166</ele>
        <time>2026-05-07T16:58:08.996Z</time>
      </trkpt>
      <trkpt lat="53.234015" lon="6.580687">
        <ele>48.640786</ele>
        <time>2026-05-07T16:58:10.995Z</time>
      </trkpt>
      <trkpt lat="53.233952" lon="6.580857">
        <ele>48.673015</ele>
        <time>2026-05-07T16:58:13.996Z</time>
      </trkpt>
      <trkpt lat="53.233889" lon="6.580973">
        <ele>48.698263</ele>
        <time>2026-05-07T16:58:15.991Z</time>
      </trkpt>
      <trkpt lat="53.233824" lon="6.581083">
        <ele>48.723178</ele>
        <time>2026-05-07T16:58:18.003Z</time>
      </trkpt>
      <trkpt lat="53.233760" lon="6.581221">
        <ele>48.751318</ele>
        <time>2026-05-07T16:58:19.996Z</time>
      </trkpt>
      <trkpt lat="53.233690" lon="6.581354">
        <ele>48.779865</ele>
        <time>2026-05-07T16:58:21.993Z</time>
      </trkpt>
      <trkpt lat="53.233636" lon="6.581488">
        <ele>48.805903</ele>
        <time>2026-05-07T16:58:24.003Z</time>
      </trkpt>
      <trkpt lat="53.233569" lon="6.581593">
        <ele>48.830642</ele>
        <time>2026-05-07T16:58:25.995Z</time>
      </trkpt>
      <trkpt lat="53.233448" lon="6.581591">
        <ele>48.863228</ele>
        <time>2026-05-07T16:58:28.994Z</time>
      </trkpt>
      <trkpt lat="53.233360" lon="6.581443">
        <ele>48.896854</ele>
        <time>2026-05-07T16:58:31.992Z</time>
      </trkpt>
      <trkpt lat="53.233300" lon="6.581312">
        <ele>48.577672</ele>
        <time>2026-05-07T16:58:34.000Z</time>
      </trkpt>
      <trkpt lat="53.233235" lon="6.581171">
        <ele>48.223218</ele>
        <time>2026-05-07T16:58:35.996Z</time>
      </trkpt>
      <trkpt lat="53.233182" lon="6.581034">
        <ele>47.898334</ele>
        <time>2026-05-07T16:58:38.001Z</time>
      </trkpt>
      <trkpt lat="53.233111" lon="6.580847">
        <ele>47.457289</ele>
        <time>2026-05-07T16:58:41.007Z</time>
      </trkpt>
      <trkpt lat="53.233023" lon="6.580676">
        <ele>47.008148</ele>
        <time>2026-05-07T16:58:43.992Z</time>
      </trkpt>
      <trkpt lat="53.232944" lon="6.580516">
        <ele>46.595057</ele>
        <time>2026-05-07T16:58:46.998Z</time>
      </trkpt>
      <trkpt lat="53.232874" lon="6.580367">
        <ele>46.217811</ele>
        <time>2026-05-07T16:58:49.993Z</time>
      </trkpt>
      <trkpt lat="53.232801" lon="6.580222">
        <ele>45.840451</ele>
        <time>2026-05-07T16:58:52.994Z</time>
      </trkpt>
      <trkpt lat="53.232733" lon="6.580084">
        <ele>45.484450</ele>
        <time>2026-05-07T16:58:55.996Z</time>
      </trkpt>
      <trkpt lat="53.232667" lon="6.579926">
        <ele>45.100715</ele>
        <time>2026-05-07T16:58:59.014Z</time>
      </trkpt>
      <trkpt lat="53.232602" lon="6.579790">
        <ele>44.754094</ele>
        <time>2026-05-07T16:59:00.993Z</time>
      </trkpt>
      <trkpt lat="53.232540" lon="6.579658">
        <ele>44.419915</ele>
        <time>2026-05-07T16:59:02.998Z</time>
      </trkpt>
      <trkpt lat="53.232485" lon="6.579528">
        <ele>44.102850</ele>
        <time>2026-05-07T16:59:04.992Z</time>
      </trkpt>
      <trkpt lat="53.232424" lon="6.579395">
        <ele>43.769136</ele>
        <time>2026-05-07T16:59:07.003Z</time>
      </trkpt>
      <trkpt lat="53.232364" lon="6.579262">
        <ele>43.437434</ele>
        <time>2026-05-07T16:59:08.999Z</time>
      </trkpt>
      <trkpt lat="53.232310" lon="6.579133">
        <ele>43.123912</ele>
        <time>2026-05-07T16:59:10.995Z</time>
      </trkpt>
      <trkpt lat="53.232220" lon="6.578986">
        <ele>42.916419</ele>
        <time>2026-05-07T16:59:13.994Z</time>
      </trkpt>
      <trkpt lat="53.232163" lon="6.578853">
        <ele>42.922151</ele>
        <time>2026-05-07T16:59:16.002Z</time>
      </trkpt>
      <trkpt lat="53.232092" lon="6.578730">
        <ele>42.928139</ele>
        <time>2026-05-07T16:59:17.995Z</time>
      </trkpt>
      <trkpt lat="53.232013" lon="6.578550">
        <ele>42.935960</ele>
        <time>2026-05-07T16:59:21.000Z</time>
      </trkpt>
      <trkpt lat="53.231935" lon="6.578375">
        <ele>42.943606</ele>
        <time>2026-05-07T16:59:23.992Z</time>
      </trkpt>
      <trkpt lat="53.231861" lon="6.578209">
        <ele>42.950859</ele>
        <time>2026-05-07T16:59:26.995Z</time>
      </trkpt>
      <trkpt lat="53.231804" lon="6.578086">
        <ele>42.956311</ele>
        <time>2026-05-07T16:59:28.993Z</time>
      </trkpt>
      <trkpt lat="53.231740" lon="6.577959">
        <ele>42.962128</ele>
        <time>2026-05-07T16:59:30.993Z</time>
      </trkpt>
      <trkpt lat="53.231666" lon="6.577780">
        <ele>42.969752</ele>
        <time>2026-05-07T16:59:33.999Z</time>
      </trkpt>
      <trkpt lat="53.231609" lon="6.577617">
        <ele>42.976367</ele>
        <time>2026-05-07T16:59:36.998Z</time>
      </trkpt>
      <trkpt lat="53.231553" lon="6.577488">
        <ele>42.981951</ele>
        <time>2026-05-07T16:59:38.993Z</time>
      </trkpt>
      <trkpt lat="53.231496" lon="6.577367">
        <ele>42.987347</ele>
        <time>2026-05-07T16:59:40.990Z</time>
      </trkpt>
      <trkpt lat="53.231437" lon="6.577242">
        <ele>42.992925</ele>
        <time>2026-05-07T16:59:42.998Z</time>
      </trkpt>
      <trkpt lat="53.231387" lon="6.577115">
        <ele>42.998252</ele>
        <time>2026-05-07T16:59:44.999Z</time>
      </trkpt>
      <trkpt lat="53.231333" lon="6.576983">
        <ele>43.003855</ele>
        <time>2026-05-07T16:59:46.990Z</time>
      </trkpt>
      <trkpt lat="53.231243" lon="6.576818">
        <ele>43.011678</ele>
        <time>2026-05-07T16:59:50.004Z</time>
      </trkpt>
      <trkpt lat="53.231166" lon="6.576671">
        <ele>43.020595</ele>
        <time>2026-05-07T16:59:52.997Z</time>
      </trkpt>
      <trkpt lat="53.231084" lon="6.576503">
        <ele>43.062503</ele>
        <time>2026-05-07T16:59:56.000Z</time>
      </trkpt>
      <trkpt lat="53.230996" lon="6.576335">
        <ele>43.105662</ele>
        <time>2026-05-07T16:59:58.996Z</time>
      </trkpt>
      <trkpt lat="53.230939" lon="6.576197">
        <ele>43.138077</ele>
        <time>2026-05-07T17:00:00.992Z</time>
      </trkpt>
      <trkpt lat="53.230879" lon="6.576083">
        <ele>43.167425</ele>
        <time>2026-05-07T17:00:02.992Z</time>
      </trkpt>
      <trkpt lat="53.230819" lon="6.575951">
        <ele>43.199468</ele>
        <time>2026-05-07T17:00:04.995Z</time>
      </trkpt>
      <trkpt lat="53.230769" lon="6.575819">
        <ele>43.229668</ele>
        <time>2026-05-07T17:00:07.007Z</time>
      </trkpt>
      <trkpt lat="53.230724" lon="6.575685">
        <ele>43.259373</ele>
        <time>2026-05-07T17:00:08.996Z</time>
      </trkpt>
      <trkpt lat="53.230670" lon="6.575552">
        <ele>43.290443</ele>
        <time>2026-05-07T17:00:10.994Z</time>
      </trkpt>
      <trkpt lat="53.230615" lon="6.575420">
        <ele>43.321536</ele>
        <time>2026-05-07T17:00:12.995Z</time>
      </trkpt>
      <trkpt lat="53.230558" lon="6.575295">
        <ele>43.351916</ele>
        <time>2026-05-07T17:00:14.993Z</time>
      </trkpt>
      <trkpt lat="53.230511" lon="6.575157">
        <ele>43.382612</ele>
        <time>2026-05-07T17:00:16.993Z</time>
      </trkpt>
      <trkpt lat="53.230450" lon="6.575020">
        <ele>43.415623</ele>
        <time>2026-05-07T17:00:18.993Z</time>
      </trkpt>
      <trkpt lat="53.230392" lon="6.574897">
        <ele>43.445895</ele>
        <time>2026-05-07T17:00:20.992Z</time>
      </trkpt>
      <trkpt lat="53.230305" lon="6.574742">
        <ele>43.486974</ele>
        <time>2026-05-07T17:00:24.000Z</time>
      </trkpt>
      <trkpt lat="53.230234" lon="6.574578">
        <ele>43.526104</ele>
        <time>2026-05-07T17:00:26.992Z</time>
      </trkpt>
      <trkpt lat="53.230173" lon="6.574391">
        <ele>43.567277</ele>
        <time>2026-05-07T17:00:29.998Z</time>
      </trkpt>
      <trkpt lat="53.230241" lon="6.574262">
        <ele>43.598132</ele>
        <time>2026-05-07T17:00:32.998Z</time>
      </trkpt>
      <trkpt lat="53.230328" lon="6.574159">
        <ele>43.578948</ele>
        <time>2026-05-07T17:00:36.993Z</time>
      </trkpt>
      <trkpt lat="53.230230" lon="6.573796">
        <ele>43.536065</ele>
        <time>2026-05-07T17:37:33.000Z</time>
      </trkpt>
      <trkpt lat="53.230165" lon="6.573657">
        <ele>43.517069</ele>
        <time>2026-05-07T17:37:36.001Z</time>
      </trkpt>
      <trkpt lat="53.230099" lon="6.573522">
        <ele>43.498298</ele>
        <time>2026-05-07T17:37:38.997Z</time>
      </trkpt>
      <trkpt lat="53.230029" lon="6.573384">
        <ele>43.478819</ele>
        <time>2026-05-07T17:37:41.995Z</time>
      </trkpt>
      <trkpt lat="53.229971" lon="6.573248">
        <ele>43.460836</ele>
        <time>2026-05-07T17:37:44.996Z</time>
      </trkpt>
      <trkpt lat="53.229902" lon="6.573089">
        <ele>43.439686</ele>
        <time>2026-05-07T17:37:48.997Z</time>
      </trkpt>
      <trkpt lat="53.229852" lon="6.572956">
        <ele>43.422773</ele>
        <time>2026-05-07T17:37:52.998Z</time>
      </trkpt>
      <trkpt lat="53.229890" lon="6.572793">
        <ele>43.403935</ele>
        <time>2026-05-07T17:37:57.003Z</time>
      </trkpt>
      <trkpt lat="53.229984" lon="6.572676">
        <ele>43.382846</ele>
        <time>2026-05-07T17:38:00.995Z</time>
      </trkpt>
      <trkpt lat="53.230038" lon="6.572541">
        <ele>43.365360</ele>
        <time>2026-05-07T17:38:03.998Z</time>
      </trkpt>
      <trkpt lat="53.229997" lon="6.572378">
        <ele>43.346320</ele>
        <time>2026-05-07T17:38:06.993Z</time>
      </trkpt>
      <trkpt lat="53.229918" lon="6.572231">
        <ele>43.325045</ele>
        <time>2026-05-07T17:38:09.996Z</time>
      </trkpt>
      <trkpt lat="53.229839" lon="6.572084">
        <ele>43.303770</ele>
        <time>2026-05-07T17:38:12.997Z</time>
      </trkpt>
      <trkpt lat="53.229760" lon="6.571927">
        <ele>43.281683</ele>
        <time>2026-05-07T17:38:15.999Z</time>
      </trkpt>
      <trkpt lat="53.229691" lon="6.571767">
        <ele>43.269349</ele>
        <time>2026-05-07T17:38:18.999Z</time>
      </trkpt>
      <trkpt lat="53.229613" lon="6.571609">
        <ele>43.260427</ele>
        <time>2026-05-07T17:38:21.998Z</time>
      </trkpt>
      <trkpt lat="53.229542" lon="6.571448">
        <ele>43.251715</ele>
        <time>2026-05-07T17:38:24.997Z</time>
      </trkpt>
      <trkpt lat="53.229468" lon="6.571298">
        <ele>43.243247</ele>
        <time>2026-05-07T17:38:27.992Z</time>
      </trkpt>
      <trkpt lat="53.229396" lon="6.571141">
        <ele>43.234631</ele>
        <time>2026-05-07T17:38:30.994Z</time>
      </trkpt>
      <trkpt lat="53.229331" lon="6.571000">
        <ele>43.226878</ele>
        <time>2026-05-07T17:38:33.995Z</time>
      </trkpt>
      <trkpt lat="53.229275" lon="6.570868">
        <ele>43.219830</ele>
        <time>2026-05-07T17:38:36.997Z</time>
      </trkpt>
      <trkpt lat="53.229235" lon="6.570718">
        <ele>43.212676</ele>
        <time>2026-05-07T17:38:40.997Z</time>
      </trkpt>
      <trkpt lat="53.229163" lon="6.570621">
        <ele>43.205945</ele>
        <time>2026-05-07T17:38:44.995Z</time>
      </trkpt>
      <trkpt lat="53.229088" lon="6.570536">
        <ele>43.199349</ele>
        <time>2026-05-07T17:38:49.995Z</time>
      </trkpt>
      <trkpt lat="53.229046" lon="6.570362">
        <ele>43.191175</ele>
        <time>2026-05-07T17:39:38.005Z</time>
      </trkpt>
      <trkpt lat="53.228965" lon="6.570210">
        <ele>43.182310</ele>
        <time>2026-05-07T17:39:42.001Z</time>
      </trkpt>
      <trkpt lat="53.228898" lon="6.570078">
        <ele>43.174770</ele>
        <time>2026-05-07T17:39:45.012Z</time>
      </trkpt>
      <trkpt lat="53.228830" lon="6.569952">
        <ele>43.167380</ele>
        <time>2026-05-07T17:39:48.000Z</time>
      </trkpt>
      <trkpt lat="53.228803" lon="6.569804">
        <ele>43.160639</ele>
        <time>2026-05-07T17:39:50.994Z</time>
      </trkpt>
      <trkpt lat="53.228857" lon="6.569676">
        <ele>43.153817</ele>
        <time>2026-05-07T17:39:53.992Z</time>
      </trkpt>
      <trkpt lat="53.228801" lon="6.569509">
        <ele>43.145478</ele>
        <time>2026-05-07T17:39:57.998Z</time>
      </trkpt>
      <trkpt lat="53.228744" lon="6.569385">
        <ele>43.241936</ele>
        <time>2026-05-07T17:40:01.001Z</time>
      </trkpt>
      <trkpt lat="53.228684" lon="6.569266">
        <ele>43.355189</ele>
        <time>2026-05-07T17:40:03.991Z</time>
      </trkpt>
      <trkpt lat="53.228627" lon="6.569141">
        <ele>43.469569</ele>
        <time>2026-05-07T17:40:08.987Z</time>
      </trkpt>
      <trkpt lat="53.228567" lon="6.569025">
        <ele>43.581160</ele>
        <time>2026-05-07T17:40:15.995Z</time>
      </trkpt>
      <trkpt lat="53.228464" lon="6.569018">
        <ele>43.706509</ele>
        <time>2026-05-07T17:40:21.995Z</time>
      </trkpt>
      <trkpt lat="53.228374" lon="6.569157">
        <ele>43.855552</ele>
        <time>2026-05-07T17:40:24.995Z</time>
      </trkpt>
      <trkpt lat="53.228274" lon="6.569298">
        <ele>44.014675</ele>
        <time>2026-05-07T17:40:27.996Z</time>
      </trkpt>
      <trkpt lat="53.228168" lon="6.569435">
        <ele>44.177643</ele>
        <time>2026-05-07T17:40:30.995Z</time>
      </trkpt>
      <trkpt lat="53.228096" lon="6.569545">
        <ele>44.296286</ele>
        <time>2026-05-07T17:40:32.988Z</time>
      </trkpt>
      <trkpt lat="53.228015" lon="6.569642">
        <ele>44.417474</ele>
        <time>2026-05-07T17:40:34.997Z</time>
      </trkpt>
      <trkpt lat="53.227914" lon="6.569794">
        <ele>44.582778</ele>
        <time>2026-05-07T17:40:37.994Z</time>
      </trkpt>
      <trkpt lat="53.227844" lon="6.569895">
        <ele>44.695251</ele>
        <time>2026-05-07T17:40:40.002Z</time>
      </trkpt>
      <trkpt lat="53.227773" lon="6.570000">
        <ele>44.810557</ele>
        <time>2026-05-07T17:40:41.997Z</time>
      </trkpt>
      <trkpt lat="53.227666" lon="6.570137">
        <ele>44.974489</ele>
        <time>2026-05-07T17:40:45.004Z</time>
      </trkpt>
      <trkpt lat="53.227561" lon="6.570270">
        <ele>45.134721</ele>
        <time>2026-05-07T17:40:48.000Z</time>
      </trkpt>
      <trkpt lat="53.227456" lon="6.570388">
        <ele>45.288602</ele>
        <time>2026-05-07T17:40:50.996Z</time>
      </trkpt>
      <trkpt lat="53.227375" lon="6.570474">
        <ele>45.262236</ele>
        <time>2026-05-07T17:40:53.994Z</time>
      </trkpt>
      <trkpt lat="53.227287" lon="6.570574">
        <ele>45.140448</ele>
        <time>2026-05-07T17:41:13.996Z</time>
      </trkpt>
      <trkpt lat="53.227242" lon="6.570411">
        <ele>45.017489</ele>
        <time>2026-05-07T17:41:20.996Z</time>
      </trkpt>
      <trkpt lat="53.227207" lon="6.570252">
        <ele>44.901441</ele>
        <time>2026-05-07T17:41:23.993Z</time>
      </trkpt>
      <trkpt lat="53.227163" lon="6.570098">
        <ele>44.784549</ele>
        <time>2026-05-07T17:41:26.991Z</time>
      </trkpt>
      <trkpt lat="53.227116" lon="6.569957">
        <ele>44.673998</ele>
        <time>2026-05-07T17:41:30.006Z</time>
      </trkpt>
      <trkpt lat="53.227057" lon="6.569824">
        <ele>44.560603</ele>
        <time>2026-05-07T17:41:32.994Z</time>
      </trkpt>
      <trkpt lat="53.226992" lon="6.569687">
        <ele>44.440855</ele>
        <time>2026-05-07T17:41:35.999Z</time>
      </trkpt>
      <trkpt lat="53.226937" lon="6.569529">
        <ele>44.315654</ele>
        <time>2026-05-07T17:41:38.996Z</time>
      </trkpt>
      <trkpt lat="53.226877" lon="6.569388">
        <ele>44.197150</ele>
        <time>2026-05-07T17:41:41.995Z</time>
      </trkpt>
      <trkpt lat="53.226818" lon="6.569256">
        <ele>44.084304</ele>
        <time>2026-05-07T17:41:44.992Z</time>
      </trkpt>
      <trkpt lat="53.226755" lon="6.569129">
        <ele>43.971319</ele>
        <time>2026-05-07T17:41:47.994Z</time>
      </trkpt>
      <trkpt lat="53.226665" lon="6.569003">
        <ele>43.836946</ele>
        <time>2026-05-07T17:41:52.000Z</time>
      </trkpt>
      <trkpt lat="53.226621" lon="6.568868">
        <ele>43.731650</ele>
        <time>2026-05-07T17:41:56.002Z</time>
      </trkpt>
      <trkpt lat="53.226652" lon="6.569038">
        <ele>43.609913</ele>
        <time>2026-05-07T17:42:08.998Z</time>
      </trkpt>
      <trkpt lat="53.226738" lon="6.569160">
        <ele>43.480806</ele>
        <time>2026-05-07T17:42:13.013Z</time>
      </trkpt>
      <trkpt lat="53.226817" lon="6.569311">
        <ele>43.343433</ele>
        <time>2026-05-07T17:42:16.992Z</time>
      </trkpt>
      <trkpt lat="53.226876" lon="6.569429">
        <ele>43.302881</ele>
        <time>2026-05-07T17:42:19.992Z</time>
      </trkpt>
      <trkpt lat="53.226930" lon="6.569590">
        <ele>43.408227</ele>
        <time>2026-05-07T17:42:23.992Z</time>
      </trkpt>
      <trkpt lat="53.227038" lon="6.569884">
        <ele>43.605129</ele>
        <time>2026-05-07T17:43:16.994Z</time>
      </trkpt>
      <trkpt lat="53.227108" lon="6.570017">
        <ele>43.706219</ele>
        <time>2026-05-07T17:43:20.998Z</time>
      </trkpt>
      <trkpt lat="53.227062" lon="6.569887">
        <ele>43.792421</ele>
        <time>2026-05-07T17:43:33.993Z</time>
      </trkpt>
      <trkpt lat="53.226999" lon="6.569730">
        <ele>43.900313</ele>
        <time>2026-05-07T17:43:38.000Z</time>
      </trkpt>
      <trkpt lat="53.226938" lon="6.569616">
        <ele>43.987594</ele>
        <time>2026-05-07T17:43:43.001Z</time>
      </trkpt>
      <trkpt lat="53.226843" lon="6.569583">
        <ele>44.080118</ele>
        <time>2026-05-07T17:44:00.993Z</time>
      </trkpt>
      <trkpt lat="53.226779" lon="6.569714">
        <ele>44.176638</ele>
        <time>2026-05-07T17:44:07.991Z</time>
      </trkpt>
      <trkpt lat="53.226741" lon="6.569864">
        <ele>44.269615</ele>
        <time>2026-05-07T17:44:12.997Z</time>
      </trkpt>
      <trkpt lat="53.226689" lon="6.569999">
        <ele>44.361252</ele>
        <time>2026-05-07T17:44:28.991Z</time>
      </trkpt>
      <trkpt lat="53.226644" lon="6.570135">
        <ele>44.449954</ele>
        <time>2026-05-07T17:44:40.996Z</time>
      </trkpt>
      <trkpt lat="53.226676" lon="6.570310">
        <ele>44.554407</ele>
        <time>2026-05-07T17:44:46.001Z</time>
      </trkpt>
      <trkpt lat="53.226734" lon="6.570448">
        <ele>44.650658</ele>
        <time>2026-05-07T17:44:49.999Z</time>
      </trkpt>
      <trkpt lat="53.226798" lon="6.570590">
        <ele>44.752121</ele>
        <time>2026-05-07T17:44:53.997Z</time>
      </trkpt>
      <trkpt lat="53.226850" lon="6.570750">
        <ele>44.856046</ele>
        <time>2026-05-07T17:44:57.989Z</time>
      </trkpt>
      <trkpt lat="53.226791" lon="6.570898">
        <ele>44.957547</ele>
        <time>2026-05-07T17:45:03.998Z</time>
      </trkpt>
      <trkpt lat="53.226710" lon="6.570981">
        <ele>44.960742</ele>
        <time>2026-05-07T17:45:08.004Z</time>
      </trkpt>
      <trkpt lat="53.226628" lon="6.571078">
        <ele>44.916119</ele>
        <time>2026-05-07T17:45:11.994Z</time>
      </trkpt>
      <trkpt lat="53.226548" lon="6.571164">
        <ele>44.873869</ele>
        <time>2026-05-07T17:45:15.999Z</time>
      </trkpt>
      <trkpt lat="53.226463" lon="6.571239">
        <ele>44.831178</ele>
        <time>2026-05-07T17:45:20.996Z</time>
      </trkpt>
      <trkpt lat="53.226381" lon="6.571078">
        <ele>44.774978</ele>
        <time>2026-05-07T17:45:25.005Z</time>
      </trkpt>
      <trkpt lat="53.226306" lon="6.570917">
        <ele>44.720742</ele>
        <time>2026-05-07T17:45:27.992Z</time>
      </trkpt>
      <trkpt lat="53.226223" lon="6.570745">
        <ele>44.662006</ele>
        <time>2026-05-07T17:45:30.993Z</time>
      </trkpt>
      <trkpt lat="53.226142" lon="6.570575">
        <ele>44.604241</ele>
        <time>2026-05-07T17:45:34.000Z</time>
      </trkpt>
      <trkpt lat="53.226065" lon="6.570420">
        <ele>44.550692</ele>
        <time>2026-05-07T17:45:36.993Z</time>
      </trkpt>
      <trkpt lat="53.226008" lon="6.570302">
        <ele>44.510380</ele>
        <time>2026-05-07T17:45:38.999Z</time>
      </trkpt>
      <trkpt lat="53.225931" lon="6.570133">
        <ele>44.453916</ele>
        <time>2026-05-07T17:45:41.995Z</time>
      </trkpt>
      <trkpt lat="53.225872" lon="6.570015">
        <ele>44.413041</ele>
        <time>2026-05-07T17:45:43.992Z</time>
      </trkpt>
      <trkpt lat="53.225818" lon="6.569891">
        <ele>44.372274</ele>
        <time>2026-05-07T17:45:45.996Z</time>
      </trkpt>
      <trkpt lat="53.225761" lon="6.569769">
        <ele>44.331129</ele>
        <time>2026-05-07T17:45:47.996Z</time>
      </trkpt>
      <trkpt lat="53.225705" lon="6.569644">
        <ele>44.289620</ele>
        <time>2026-05-07T17:45:49.995Z</time>
      </trkpt>
      <trkpt lat="53.225628" lon="6.569458">
        <ele>44.229497</ele>
        <time>2026-05-07T17:45:52.987Z</time>
      </trkpt>
      <trkpt lat="53.225574" lon="6.569335">
        <ele>44.192490</ele>
        <time>2026-05-07T17:45:54.996Z</time>
      </trkpt>
      <trkpt lat="53.225522" lon="6.569204">
        <ele>44.338002</ele>
        <time>2026-05-07T17:45:56.992Z</time>
      </trkpt>
      <trkpt lat="53.225462" lon="6.569078">
        <ele>44.487051</ele>
        <time>2026-05-07T17:45:58.993Z</time>
      </trkpt>
      <trkpt lat="53.225408" lon="6.568950">
        <ele>44.632016</ele>
        <time>2026-05-07T17:46:01.000Z</time>
      </trkpt>
      <trkpt lat="53.225328" lon="6.568781">
        <ele>44.831473</ele>
        <time>2026-05-07T17:46:03.994Z</time>
      </trkpt>
      <trkpt lat="53.225247" lon="6.568610">
        <ele>45.033341</ele>
        <time>2026-05-07T17:46:06.989Z</time>
      </trkpt>
      <trkpt lat="53.225191" lon="6.568483">
        <ele>45.179364</ele>
        <time>2026-05-07T17:46:08.988Z</time>
      </trkpt>
      <trkpt lat="53.225134" lon="6.568355">
        <ele>45.327052</ele>
        <time>2026-05-07T17:46:10.998Z</time>
      </trkpt>
      <trkpt lat="53.225081" lon="6.568231">
        <ele>45.468103</ele>
        <time>2026-05-07T17:46:12.996Z</time>
      </trkpt>
      <trkpt lat="53.225006" lon="6.568068">
        <ele>45.658426</ele>
        <time>2026-05-07T17:46:15.991Z</time>
      </trkpt>
      <trkpt lat="53.224928" lon="6.567902">
        <ele>45.853788</ele>
        <time>2026-05-07T17:46:18.994Z</time>
      </trkpt>
      <trkpt lat="53.224867" lon="6.567747">
        <ele>46.025512</ele>
        <time>2026-05-07T17:46:22.989Z</time>
      </trkpt>
      <trkpt lat="53.224770" lon="6.567674">
        <ele>46.190034</ele>
        <time>2026-05-07T17:46:27.002Z</time>
      </trkpt>
      <trkpt lat="53.224658" lon="6.567775">
        <ele>46.386858</ele>
        <time>2026-05-07T17:46:29.994Z</time>
      </trkpt>
      <trkpt lat="53.224556" lon="6.567919">
        <ele>46.593381</ele>
        <time>2026-05-07T17:46:32.989Z</time>
      </trkpt>
      <trkpt lat="53.224491" lon="6.568033">
        <ele>46.739128</ele>
        <time>2026-05-07T17:46:34.993Z</time>
      </trkpt>
      <trkpt lat="53.224405" lon="6.568188">
        <ele>46.934775</ele>
        <time>2026-05-07T17:46:37.994Z</time>
      </trkpt>
      <trkpt lat="53.224326" lon="6.568346">
        <ele>46.834464</ele>
        <time>2026-05-07T17:46:40.992Z</time>
      </trkpt>
      <trkpt lat="53.224230" lon="6.568501">
        <ele>46.651488</ele>
        <time>2026-05-07T17:46:43.996Z</time>
      </trkpt>
      <trkpt lat="53.224160" lon="6.568623">
        <ele>46.512846</ele>
        <time>2026-05-07T17:46:45.993Z</time>
      </trkpt>
      <trkpt lat="53.224071" lon="6.568780">
        <ele>46.335452</ele>
        <time>2026-05-07T17:46:48.993Z</time>
      </trkpt>
      <trkpt lat="53.223990" lon="6.568949">
        <ele>46.157835</ele>
        <time>2026-05-07T17:46:51.994Z</time>
      </trkpt>
      <trkpt lat="53.223907" lon="6.569119">
        <ele>45.977857</ele>
        <time>2026-05-07T17:46:54.994Z</time>
      </trkpt>
      <trkpt lat="53.223828" lon="6.569281">
        <ele>45.806430</ele>
        <time>2026-05-07T17:46:57.996Z</time>
      </trkpt>
      <trkpt lat="53.223760" lon="6.569425">
        <ele>45.655955</ele>
        <time>2026-05-07T17:47:00.998Z</time>
      </trkpt>
      <trkpt lat="53.223688" lon="6.569572">
        <ele>45.500128</ele>
        <time>2026-05-07T17:47:03.989Z</time>
      </trkpt>
      <trkpt lat="53.223628" lon="6.569685">
        <ele>45.376206</ele>
        <time>2026-05-07T17:47:05.995Z</time>
      </trkpt>
      <trkpt lat="53.223545" lon="6.569855">
        <ele>45.196227</ele>
        <time>2026-05-07T17:47:09.004Z</time>
      </trkpt>
      <trkpt lat="53.223470" lon="6.569997">
        <ele>45.040864</ele>
        <time>2026-05-07T17:47:11.991Z</time>
      </trkpt>
      <trkpt lat="53.223351" lon="6.569964">
        <ele>44.875551</ele>
        <time>2026-05-07T17:47:14.992Z</time>
      </trkpt>
      <trkpt lat="53.223269" lon="6.569896">
        <ele>44.750089</ele>
        <time>2026-05-07T17:47:16.994Z</time>
      </trkpt>
      <trkpt lat="53.223180" lon="6.569814">
        <ele>44.610796</ele>
        <time>2026-05-07T17:47:18.997Z</time>
      </trkpt>
      <trkpt lat="53.223095" lon="6.569733">
        <ele>44.496001</ele>
        <time>2026-05-07T17:47:20.994Z</time>
      </trkpt>
      <trkpt lat="53.223007" lon="6.569653">
        <ele>44.448462</ele>
        <time>2026-05-07T17:47:23.001Z</time>
      </trkpt>
      <trkpt lat="53.222921" lon="6.569561">
        <ele>44.400004</ele>
        <time>2026-05-07T17:47:24.995Z</time>
      </trkpt>
      <trkpt lat="53.222847" lon="6.569467">
        <ele>44.355891</ele>
        <time>2026-05-07T17:47:27.002Z</time>
      </trkpt>
      <trkpt lat="53.222906" lon="6.569603">
        <ele>44.308180</ele>
        <time>2026-05-07T17:47:34.000Z</time>
      </trkpt>
      <trkpt lat="53.222990" lon="6.569663">
        <ele>44.264831</ele>
        <time>2026-05-07T17:47:36.995Z</time>
      </trkpt>
      <trkpt lat="53.223036" lon="6.569523">
        <ele>44.219464</ele>
        <time>2026-05-07T17:47:44.994Z</time>
      </trkpt>
      <trkpt lat="53.223059" lon="6.569361">
        <ele>44.172167</ele>
        <time>2026-05-07T17:47:49.997Z</time>
      </trkpt>
      <trkpt lat="53.223179" lon="6.569093">
        <ele>44.077098</ele>
        <time>2026-05-07T17:48:27.990Z</time>
      </trkpt>
      <trkpt lat="53.223164" lon="6.568934">
        <ele>44.031372</ele>
        <time>2026-05-07T17:48:31.992Z</time>
      </trkpt>
      <trkpt lat="53.223113" lon="6.568787">
        <ele>43.983108</ele>
        <time>2026-05-07T17:48:36.993Z</time>
      </trkpt>
      <trkpt lat="53.223194" lon="6.568896">
        <ele>43.933753</ele>
        <time>2026-05-07T17:48:47.991Z</time>
      </trkpt>
      <trkpt lat="53.223237" lon="6.569029">
        <ele>43.890813</ele>
        <time>2026-05-07T17:48:50.996Z</time>
      </trkpt>
      <trkpt lat="53.223204" lon="6.569180">
        <ele>43.845149</ele>
        <time>2026-05-07T17:48:53.995Z</time>
      </trkpt>
      <trkpt lat="53.223143" lon="6.569332">
        <ele>43.793166</ele>
        <time>2026-05-07T17:48:56.993Z</time>
      </trkpt>
      <trkpt lat="53.223067" lon="6.569452">
        <ele>43.743543</ele>
        <time>2026-05-07T17:49:00.995Z</time>
      </trkpt>
      <trkpt lat="53.222996" lon="6.569557">
        <ele>43.698547</ele>
        <time>2026-05-07T17:49:07.992Z</time>
      </trkpt>
      <trkpt lat="53.222905" lon="6.569460">
        <ele>43.660517</ele>
        <time>2026-05-07T17:49:10.993Z</time>
      </trkpt>
      <trkpt lat="53.222812" lon="6.569339">
        <ele>43.739534</ele>
        <time>2026-05-07T17:49:13.991Z</time>
      </trkpt>
      <trkpt lat="53.222725" lon="6.569204">
        <ele>43.819130</ele>
        <time>2026-05-07T17:49:17.000Z</time>
      </trkpt>
      <trkpt lat="53.222624" lon="6.569079">
        <ele>43.903388</ele>
        <time>2026-05-07T17:49:19.992Z</time>
      </trkpt>
      <trkpt lat="53.222531" lon="6.568932">
        <ele>43.989213</ele>
        <time>2026-05-07T17:49:22.992Z</time>
      </trkpt>
      <trkpt lat="53.222439" lon="6.568798">
        <ele>44.071032</ele>
        <time>2026-05-07T17:49:25.994Z</time>
      </trkpt>
      <trkpt lat="53.222348" lon="6.568670">
        <ele>44.150776</ele>
        <time>2026-05-07T17:49:28.995Z</time>
      </trkpt>
      <trkpt lat="53.222257" lon="6.568572">
        <ele>44.223351</ele>
        <time>2026-05-07T17:49:31.994Z</time>
      </trkpt>
      <trkpt lat="53.222156" lon="6.568495">
        <ele>44.297769</ele>
        <time>2026-05-07T17:49:35.992Z</time>
      </trkpt>
      <trkpt lat="53.222057" lon="6.568426">
        <ele>44.369672</ele>
        <time>2026-05-07T17:49:39.999Z</time>
      </trkpt>
      <trkpt lat="53.221969" lon="6.568351">
        <ele>44.435893</ele>
        <time>2026-05-07T17:49:45.992Z</time>
      </trkpt>
      <trkpt lat="53.221864" lon="6.568357">
        <ele>44.506314</ele>
        <time>2026-05-07T17:49:49.990Z</time>
      </trkpt>
      <trkpt lat="53.221805" lon="6.568538">
        <ele>44.589019</ele>
        <time>2026-05-07T17:49:52.987Z</time>
      </trkpt>
      <trkpt lat="53.221766" lon="6.568674">
        <ele>44.649534</ele>
        <time>2026-05-07T17:49:54.994Z</time>
      </trkpt>
      <trkpt lat="53.221710" lon="6.568865">
        <ele>44.734882</ele>
        <time>2026-05-07T17:49:57.995Z</time>
      </trkpt>
      <trkpt lat="53.221667" lon="6.568998">
        <ele>44.795541</ele>
        <time>2026-05-07T17:49:59.989Z</time>
      </trkpt>
      <trkpt lat="53.221629" lon="6.569144">
        <ele>44.860862</ele>
        <time>2026-05-07T17:50:01.994Z</time>
      </trkpt>
      <trkpt lat="53.221572" lon="6.569335">
        <ele>45.064739</ele>
        <time>2026-05-07T17:50:04.994Z</time>
      </trkpt>
      <trkpt lat="53.221533" lon="6.569471">
        <ele>45.208796</ele>
        <time>2026-05-07T17:50:06.993Z</time>
      </trkpt>
      <trkpt lat="53.221496" lon="6.569609">
        <ele>45.353246</ele>
        <time>2026-05-07T17:50:08.995Z</time>
      </trkpt>
      <trkpt lat="53.221452" lon="6.569741">
        <ele>45.497575</ele>
        <time>2026-05-07T17:50:10.995Z</time>
      </trkpt>
      <trkpt lat="53.221384" lon="6.569926">
        <ele>45.704958</ele>
        <time>2026-05-07T17:50:13.991Z</time>
      </trkpt>
      <trkpt lat="53.221331" lon="6.570095">
        <ele>45.887216</ele>
        <time>2026-05-07T17:50:16.994Z</time>
      </trkpt>
      <trkpt lat="53.221234" lon="6.570242">
        <ele>46.096204</ele>
        <time>2026-05-07T17:50:19.993Z</time>
      </trkpt>
      <trkpt lat="53.221130" lon="6.570343">
        <ele>46.288160</ele>
        <time>2026-05-07T17:50:22.994Z</time>
      </trkpt>
      <trkpt lat="53.221036" lon="6.570446">
        <ele>46.467543</ele>
        <time>2026-05-07T17:50:24.990Z</time>
      </trkpt>
      <trkpt lat="53.220957" lon="6.570529">
        <ele>46.616461</ele>
        <time>2026-05-07T17:50:26.993Z</time>
      </trkpt>
      <trkpt lat="53.220875" lon="6.570602">
        <ele>46.764727</ele>
        <time>2026-05-07T17:50:28.989Z</time>
      </trkpt>
      <trkpt lat="53.220798" lon="6.570698">
        <ele>46.918043</ele>
        <time>2026-05-07T17:50:30.993Z</time>
      </trkpt>
      <trkpt lat="53.220720" lon="6.570774">
        <ele>47.062131</ele>
        <time>2026-05-07T17:50:32.992Z</time>
      </trkpt>
      <trkpt lat="53.220639" lon="6.570859">
        <ele>47.214768</ele>
        <time>2026-05-07T17:50:34.997Z</time>
      </trkpt>
      <trkpt lat="53.220561" lon="6.570946">
        <ele>47.364426</ele>
        <time>2026-05-07T17:50:36.997Z</time>
      </trkpt>
      <trkpt lat="53.220477" lon="6.571044">
        <ele>47.527918</ele>
        <time>2026-05-07T17:50:38.991Z</time>
      </trkpt>
      <trkpt lat="53.220391" lon="6.571135">
        <ele>47.690361</ele>
        <time>2026-05-07T17:50:40.993Z</time>
      </trkpt>
      <trkpt lat="53.220312" lon="6.571214">
        <ele>47.728311</ele>
        <time>2026-05-07T17:50:42.997Z</time>
      </trkpt>
      <trkpt lat="53.220236" lon="6.571296">
        <ele>47.728311</ele>
        <time>2026-05-07T17:50:44.990Z</time>
      </trkpt>
      <trkpt lat="53.220156" lon="6.571390">
        <ele>47.728311</ele>
        <time>2026-05-07T17:50:46.992Z</time>
      </trkpt>
      <trkpt lat="53.220047" lon="6.571507">
        <ele>47.728311</ele>
        <time>2026-05-07T17:50:49.996Z</time>
      </trkpt>
      <trkpt lat="53.219920" lon="6.571553">
        <ele>47.728311</ele>
        <time>2026-05-07T17:50:52.992Z</time>
      </trkpt>
      <trkpt lat="53.219862" lon="6.571421">
        <ele>47.728311</ele>
        <time>2026-05-07T17:50:55.994Z</time>
      </trkpt>
      <trkpt lat="53.219815" lon="6.571259">
        <ele>47.728311</ele>
        <time>2026-05-07T17:50:58.994Z</time>
      </trkpt>
      <trkpt lat="53.219773" lon="6.571100">
        <ele>47.728311</ele>
        <time>2026-05-07T17:51:02.995Z</time>
      </trkpt>
      <trkpt lat="53.219729" lon="6.570944">
        <ele>47.728311</ele>
        <time>2026-05-07T17:51:05.994Z</time>
      </trkpt>
      <trkpt lat="53.219688" lon="6.570805">
        <ele>47.728311</ele>
        <time>2026-05-07T17:51:08.994Z</time>
      </trkpt>
      <trkpt lat="53.219615" lon="6.570702">
        <ele>47.728311</ele>
        <time>2026-05-07T17:51:11.991Z</time>
      </trkpt>
      <trkpt lat="53.219561" lon="6.570534">
        <ele>47.728311</ele>
        <time>2026-05-07T17:51:15.001Z</time>
      </trkpt>
      <trkpt lat="53.219530" lon="6.570329">
        <ele>47.728311</ele>
        <time>2026-05-07T17:51:17.993Z</time>
      </trkpt>
      <trkpt lat="53.219502" lon="6.570126">
        <ele>47.728311</ele>
        <time>2026-05-07T17:51:20.992Z</time>
      </trkpt>
      <trkpt lat="53.219472" lon="6.569932">
        <ele>47.728311</ele>
        <time>2026-05-07T17:51:23.994Z</time>
      </trkpt>
      <trkpt lat="53.219448" lon="6.569747">
        <ele>47.728311</ele>
        <time>2026-05-07T17:51:26.990Z</time>
      </trkpt>
      <trkpt lat="53.219416" lon="6.569602">
        <ele>47.728311</ele>
        <time>2026-05-07T17:51:29.990Z</time>
      </trkpt>
      <trkpt lat="53.219334" lon="6.569534">
        <ele>47.728311</ele>
        <time>2026-05-07T17:51:33.990Z</time>
      </trkpt>
      <trkpt lat="53.219226" lon="6.569594">
        <ele>47.728311</ele>
        <time>2026-05-07T17:51:38.992Z</time>
      </trkpt>
      <trkpt lat="53.219122" lon="6.569633">
        <ele>47.728311</ele>
        <time>2026-05-07T17:51:42.989Z</time>
      </trkpt>
      <trkpt lat="53.219030" lon="6.569665">
        <ele>47.728311</ele>
        <time>2026-05-07T17:51:46.994Z</time>
      </trkpt>
    </trkseg>
  </trk>
</gpx>